GFSSW_500_spd_000.txt.gz
Wind_Speed
26 22 21 20 19 18 16 13 14 13 11 11 13 13 17 16 14 12 13 11 12 16 17 17 20 21 27 30 27 22 24 24 24 27 28 15 15 18 21 18 10 11 6 4 5
21 20 21 21 17 16 13 10 9 9 9 10 13 11 14 12 14 13 11 8 11 15 15 18 27 36 35 27 22 23 19 24 17 21 23 10 9 18 17 15 9 11 7 7 4
20 23 23 20 15 12 12 11 11 14 12 11 12 12 12 13 14 13 11 13 16 14 21 26 34 36 32 28 19 13 13 9 15 9 8 11 17 16 11 6 5 4 6 5 4
23 18 18 17 13 13 15 15 16 14 12 13 13 12 14 12 15 15 15 21 17 17 26 25 37 36 30 21 15 16 12 6 12 9 11 15 10 5 4 3 6 6 4 5 4
20 18 17 14 12 14 15 16 15 14 13 16 15 16 16 18 18 18 23 26 20 27 32 35 32 30 25 9 8 5 13 12 15 14 12 8 6 5 7 6 6 7 6 4 4
14 19 21 15 13 14 14 14 14 15 16 14 12 16 15 14 19 26 32 32 36 35 38 35 27 28 25 18 10 11 11 16 21 15 7 6 4 4 4 2 5 9 8 7 6
18 14 14 14 14 13 14 14 13 17 16 13 14 13 12 15 27 31 31 35 43 43 38 32 34 34 27 20 19 12 9 14 14 11 9 8 7 5 3 1 2 6 7 4 6
15 14 14 15 17 13 11 12 12 14 15 14 12 10 14 17 27 32 32 34 36 39 36 33 24 21 22 17 18 17 17 16 13 11 9 5 2 4 6 5 3 1 5 6 7
10 5 13 18 13 11 11 12 12 13 11 11 12 14 20 22 21 18 30 30 14 30 26 20 21 19 14 14 16 15 19 11 11 7 2 2 1 11 5 5 1 6 9 10 12
6 6 16 17 17 15 12 12 14 14 16 17 18 20 19 19 21 21 18 18 13 25 18 13 13 19 24 20 17 14 12 8 9 5 6 10 9 5 1 1 5 9 11 16 19
8 8 15 21 13 12 15 18 20 22 21 22 23 22 22 20 19 19 17 18 18 20 23 24 24 26 23 17 14 5 3 6 7 3 7 13 13 13 7 7 8 11 13 16 19
16 8 13 15 17 20 21 21 21 21 21 21 22 23 24 22 19 18 19 20 20 25 26 22 21 21 18 14 10 10 8 8 7 4 9 17 14 14 15 13 11 11 10 16 21
19 15 17 19 20 20 25 28 27 26 25 22 21 21 20 19 19 17 16 17 20 19 16 16 12 14 11 10 10 17 15 12 7 4 9 12 13 15 16 16 11 8 12 18 21
19 18 23 23 26 29 30 29 27 26 25 22 22 21 20 19 18 17 14 13 12 14 14 13 12 9 8 8 7 10 19 20 13 10 14 16 18 21 23 21 20 19 15 17 23
22 27 28 32 32 30 30 29 29 28 27 25 22 22 20 16 17 18 16 14 10 14 13 11 12 12 11 11 10 12 14 16 17 15 15 20 24 26 27 26 23 19 16 16 27
30 33 35 35 32 31 30 31 31 27 25 23 21 18 15 14 12 13 14 14 13 11 11 11 11 11 11 11 11 11 12 14 16 16 16 21 24 28 28 26 26 25 26 31 34
35 38 37 35 34 33 33 32 28 24 22 19 17 14 12 11 9 9 8 8 7 10 11 10 9 9 9 11 12 11 12 14 14 15 16 18 22 27 30 33 31 30 32 33 35
39 39 37 37 36 36 33 28 23 19 18 15 13 10 10 10 11 10 10 11 13 11 11 11 9 8 8 7 5 5 5 6 8 9 13 16 22 25 29 31 34 37 29 30 33
42 41 39 38 38 35 31 26 20 17 14 11 8 7 11 12 11 12 13 12 11 11 10 10 9 8 7 5 3 2 2 3 5 9 14 19 23 27 29 31 32 30 29 39 43
43 41 41 39 37 34 29 25 20 15 7 5 5 6 9 11 12 11 11 11 11 11 12 11 8 7 8 7 4 2 3 4 5 5 11 15 18 23 26 31 34 37 37 39 34
45 44 43 41 37 33 29 24 18 11 6 3 3 4 7 8 9 10 13 14 13 11 10 11 10 9 7 6 4 4 5 6 11 11 12 15 17 20 25 29 31 29 28 29 29
46 46 45 41 37 33 29 24 17 10 4 2 5 2 4 6 7 12 15 15 13 11 11 10 9 9 6 4 1 3 6 9 10 12 14 16 18 23 26 29 30 30 31 30 32
47 49 45 41 37 32 29 22 15 8 2 3 4 3 3 5 11 14 16 16 14 14 14 10 8 6 5 4 2 4 7 10 13 15 16 17 20 25 23 25 27 31 32 31 32
50 50 47 43 38 35 29 20 13 8 4 5 5 4 4 7 14 16 16 15 15 14 12 11 9 6 6 5 6 10 11 12 15 17 19 21 21 27 26 27 29 30 31 32 37
51 50 46 43 39 34 28 20 16 10 7 5 7 5 6 7 11 14 15 16 15 16 13 12 10 9 8 10 12 13 15 19 21 23 23 25 27 26 23 24 27 31 36 39 41
49 49 47 43 40 34 28 22 17 15 11 9 8 6 8 8 11 14 15 17 16 17 16 15 13 12 12 13 15 17 18 21 24 27 29 31 32 32 33 33 34 37 39 41 42
49 47 46 44 40 36 30 26 21 18 16 13 10 9 12 12 13 17 20 22 21 23 21 19 17 17 17 19 21 22 23 25 29 29 31 34 36 37 38 36 36 38 39 41 44

GFSSW_500_spd_003.txt.gz
Wind_Speed
29 26 26 23 21 22 23 23 20 14 12 9 11 13 13 17 16 13 15 15 16 19 23 23 21 17 17 27 26 22 23 23 23 19 17 14 16 11 9 9 14 14 17 10 9
23 24 22 21 24 24 21 19 14 13 12 10 9 8 8 12 14 14 12 11 11 16 22 23 19 21 30 34 24 28 24 20 21 18 20 14 13 7 12 9 12 13 14 10 9
21 22 21 24 24 21 18 12 11 10 9 9 10 9 9 12 13 14 12 13 15 17 18 20 26 37 36 31 31 23 25 29 28 24 26 14 2 14 8 1 4 9 12 11 9
22 22 25 22 21 17 14 11 11 11 14 15 12 10 11 13 13 17 15 15 16 20 20 24 29 34 36 38 34 23 25 11 5 8 4 6 7 10 1 2 5 6 7 8 7
22 23 23 21 18 15 13 13 15 17 13 15 14 13 13 14 15 18 17 21 22 24 30 36 35 34 34 32 24 17 14 8 7 4 7 9 7 9 6 6 4 5 6 8 8
23 21 17 21 20 15 13 14 15 15 13 13 16 13 12 15 16 17 23 26 25 29 37 37 34 29 22 16 12 18 9 9 13 11 9 6 12 11 12 11 9 9 5 6 6
16 16 18 17 17 16 13 14 13 13 14 12 10 6 8 13 18 23 30 26 28 35 37 37 33 28 18 13 13 13 11 10 12 16 9 10 12 11 10 11 13 14 11 7 6
19 18 17 16 15 17 15 13 14 12 12 12 10 8 11 14 18 30 34 32 37 35 28 23 23 20 14 8 9 10 8 12 12 10 10 8 7 10 10 9 9 10 9 7 5
12 17 11 16 15 16 12 12 12 11 11 11 8 10 17 17 21 30 32 35 39 36 28 23 19 17 18 15 15 16 19 13 11 12 12 10 5 6 5 8 6 5 7 7 7
16 10 10 16 18 15 11 10 11 10 9 10 13 16 19 23 25 28 25 36 40 37 32 31 29 23 13 19 17 18 16 15 13 10 9 9 8 6 6 7 5 7 8 8 11
14 11 10 18 17 18 12 11 12 14 14 17 20 20 21 19 23 28 27 30 34 27 16 12 16 18 23 21 20 21 24 12 14 10 6 3 0 1 3 5 7 9 11 11 12
15 13 16 19 18 10 12 15 17 19 22 22 20 19 19 20 20 21 26 28 23 21 19 25 24 29 24 21 18 12 20 11 7 3 6 3 4 6 5 5 5 8 9 11 16
21 15 14 14 9 10 16 19 21 21 22 22 21 21 21 19 20 20 21 23 25 26 27 24 27 29 21 18 13 7 10 9 7 5 8 9 12 11 11 9 7 6 10 15 19
22 16 11 10 14 18 23 24 24 25 25 23 23 23 22 21 21 19 19 19 17 18 21 18 19 19 15 13 14 13 15 15 14 14 15 17 19 18 18 18 16 14 15 16 19
24 16 14 19 21 27 28 27 27 26 24 22 22 21 21 19 19 19 18 16 16 15 16 14 15 16 16 14 11 11 16 17 18 19 23 24 24 22 23 21 19 18 18 23 19
23 20 25 27 31 31 28 27 26 27 23 24 23 20 19 16 15 15 15 15 13 15 16 16 15 15 15 14 13 12 14 17 20 23 27 27 28 28 26 22 21 20 23 23 28
25 31 33 33 32 30 29 27 26 26 25 23 20 18 15 15 13 13 12 12 12 16 18 15 15 15 14 13 13 14 15 17 20 22 25 26 26 27 24 23 26 30 29 27 28
32 38 37 34 32 31 30 30 28 25 22 20 17 16 13 11 11 11 12 13 14 14 15 13 13 12 10 9 12 14 14 15 14 14 16 18 21 22 24 27 30 30 31 28 26
39 41 38 36 35 33 32 31 25 21 17 15 13 13 13 13 13 14 14 13 12 13 13 12 10 10 9 8 8 8 9 9 11 13 14 15 16 20 20 21 22 24 24 25 31
45 42 39 38 36 36 34 29 21 17 14 12 11 12 15 14 14 15 16 13 12 15 15 14 12 11 11 10 9 7 4 3 4 6 5 6 7 11 12 15 16 18 20 24 26
48 44 41 40 39 38 34 28 22 16 11 7 5 6 10 12 13 15 14 13 15 17 16 15 14 13 12 9 7 6 5 1 2 3 5 8 9 12 14 17 19 19 21 24 29
49 45 43 42 42 39 34 28 22 17 10 5 3 4 9 10 11 15 16 17 17 17 16 15 15 14 10 9 7 3 2 2 4 7 9 12 13 16 18 20 23 24 25 27 31
50 48 46 44 43 38 33 27 23 15 7 3 3 4 7 10 13 15 18 20 20 17 16 16 15 13 12 10 7 7 5 6 6 8 10 15 16 19 22 24 26 28 29 31 32
53 51 48 45 42 38 34 28 22 15 8 6 4 1 4 9 13 15 19 19 18 18 18 17 15 14 12 11 11 11 11 11 11 11 13 17 21 24 26 28 30 32 33 34 35
53 52 48 46 43 40 35 29 24 16 9 6 3 2 5 7 12 16 18 18 18 19 19 18 17 14 13 14 15 16 16 16 16 18 19 20 22 25 27 29 32 34 36 37 39
53 52 50 46 43 41 37 30 24 17 11 9 8 5 6 9 12 15 18 20 20 19 22 20 19 18 18 18 19 19 21 22 21 23 24 23 25 27 29 33 35 38 40 41 43
54 52 51 49 47 44 37 31 26 20 14 13 12 10 9 10 12 16 20 23 24 24 25 25 23 23 22 22 24 22 25 27 26 25 28 28 28 30 33 37 40 41 42 43 46

GFSSW_500_spd_006.txt.gz
Wind_Speed
35 35 32 24 24 21 23 24 27 26 18 13 10 12 14 15 17 15 17 15 14 14 19 27 28 21 18 20 21 19 18 20 22 17 19 22 25 13 8 3 4 9 13 10 9
35 31 27 24 21 22 25 25 25 21 12 12 11 7 9 9 12 16 13 15 16 17 18 25 26 22 19 24 23 19 22 19 14 14 18 15 14 11 9 4 6 9 13 8 8
35 27 26 24 21 25 26 22 21 13 9 8 8 8 9 10 11 13 14 15 16 15 20 21 20 20 24 27 26 22 24 20 16 16 11 8 9 10 8 3 4 10 8 10 8
35 26 24 24 24 25 23 18 15 11 9 12 14 12 10 11 13 16 15 14 14 15 19 19 16 28 27 29 31 26 22 21 18 15 14 1 10 5 2 4 5 5 8 10 9
30 25 24 25 26 22 19 17 15 14 14 15 19 18 10 12 14 15 15 13 13 16 21 24 34 33 30 30 22 24 21 18 10 4 4 3 5 8 4 6 7 6 8 8 8
27 23 24 26 20 22 20 18 16 15 17 13 15 14 9 13 12 14 14 12 13 20 27 32 31 27 25 23 20 16 11 7 5 5 0 3 7 5 8 6 6 8 7 8 5
26 23 22 23 21 21 17 17 16 14 14 14 8 5 5 11 13 14 13 17 17 21 31 30 26 25 23 20 17 18 13 11 6 9 7 7 9 13 9 9 10 12 10 7 2
25 24 24 22 22 18 18 19 14 10 12 11 8 8 12 12 13 15 23 23 21 31 30 31 26 22 17 16 6 9 6 5 10 10 14 9 11 10 8 10 10 13 13 6 4
23 23 18 22 17 15 17 15 11 11 11 11 9 6 11 13 17 23 29 26 31 28 23 24 24 23 11 7 8 12 12 10 11 16 14 13 10 7 12 10 8 11 8 4 6
20 21 21 19 17 15 14 12 10 9 11 9 10 14 16 19 18 26 28 30 33 29 24 15 19 16 15 10 11 10 15 12 11 13 13 12 9 8 8 10 10 9 5 6 9
20 19 19 15 13 14 13 12 12 13 12 11 16 20 20 20 23 24 34 34 34 28 21 19 16 13 8 12 11 20 16 15 14 17 17 13 9 7 5 4 6 9 8 8 12
21 16 16 12 14 14 15 13 13 14 15 15 17 17 15 17 22 27 34 35 33 25 19 14 22 17 16 20 20 23 20 16 19 17 13 6 6 4 2 2 3 6 7 8 12
18 17 17 13 16 14 11 13 14 16 21 21 19 19 18 16 18 21 28 36 33 29 26 16 21 24 26 25 19 19 23 18 11 8 8 5 7 5 3 6 7 9 10 14 18
17 21 15 14 12 12 15 19 19 20 20 19 20 18 18 18 19 20 23 33 29 27 25 17 21 23 25 21 21 21 19 19 12 14 13 13 13 11 12 12 13 14 15 18 18
17 24 14 11 14 18 22 22 22 23 21 21 20 19 20 20 20 21 22 22 24 22 19 16 20 23 21 21 19 18 16 13 15 16 18 19 19 18 17 18 19 20 21 22 22
18 23 16 18 19 24 25 26 25 24 19 21 21 19 19 19 19 18 18 18 16 15 17 18 15 18 21 17 14 13 15 14 16 18 21 18 21 20 21 21 22 21 22 25 28
24 23 23 23 28 28 28 27 26 23 21 20 19 18 17 14 13 12 12 12 14 15 15 17 15 16 17 16 15 15 15 16 19 20 21 21 25 23 22 19 20 23 26 28 30
28 29 30 31 31 29 27 26 24 20 21 20 18 16 14 14 11 11 11 13 13 13 16 17 17 17 17 17 17 16 16 17 18 20 20 20 17 14 14 16 19 21 23 23 22
33 35 36 35 32 30 28 25 24 21 21 19 17 15 12 12 11 11 11 12 13 15 17 16 14 13 13 14 14 14 14 12 12 14 15 14 7 5 3 6 7 9 11 15 17
39 40 41 36 34 32 29 26 25 23 20 16 14 13 12 13 14 14 14 13 13 13 15 16 14 12 12 11 11 11 9 8 7 8 6 2 1 4 2 5 7 10 13 17 19
44 45 42 38 36 34 30 29 23 20 15 12 11 12 14 16 17 17 16 14 14 15 17 16 15 14 13 12 11 9 7 6 4 4 4 3 4 7 9 11 13 16 19 21 24
48 47 44 40 39 36 34 31 23 18 14 8 5 7 10 10 11 14 16 15 14 16 16 15 17 15 14 13 11 8 7 7 7 7 8 9 7 11 14 17 19 21 24 27 30
51 50 46 42 41 39 37 33 23 18 12 5 4 5 8 10 13 15 16 16 17 18 18 17 18 18 16 14 12 9 8 9 10 11 11 13 14 16 16 18 20 23 26 31 35
56 53 49 43 42 40 37 32 25 19 12 7 5 4 8 11 14 16 16 18 19 19 18 19 17 17 15 16 16 13 13 14 16 17 17 18 19 21 19 21 23 27 30 33 36
58 53 47 43 43 42 39 32 26 20 14 8 4 4 5 9 12 15 17 19 19 19 19 20 19 19 18 18 18 18 19 19 21 21 22 23 23 26 25 26 27 30 33 36 40
59 52 48 44 43 42 40 34 27 21 16 9 6 6 5 7 10 13 17 20 20 20 21 22 21 22 22 21 21 22 22 23 25 27 28 28 27 29 30 31 33 35 37 40 42
59 54 48 46 45 45 40 33 27 24 18 14 10 9 8 7 9 12 16 20 21 22 23 24 25 26 27 27 28 27 24 28 29 31 32 32 33 34 33 34 35 38 40 42 44

GFSSW_500_spd_009.txt.gz
Wind_Speed
40 41 41 38 31 22 21 19 23 27 27 25 15 12 12 16 18 19 20 16 11 12 18 21 29 28 26 22 20 17 18 16 19 18 22 30 19 13 4 2 17 2 5 4 5
38 39 39 37 27 22 23 22 25 26 24 18 13 10 8 11 13 14 12 11 12 14 16 27 31 30 22 21 22 19 20 16 15 20 14 13 21 23 4 4 2 3 2 4 6
38 38 37 33 23 23 24 26 25 22 18 11 8 8 8 12 10 11 12 11 12 16 14 23 27 24 20 20 21 21 22 16 17 10 10 4 7 12 10 3 3 4 5 9 7
39 35 36 30 23 25 27 26 23 20 12 8 11 13 12 11 10 10 11 11 13 14 17 18 20 19 19 20 22 21 18 14 11 19 12 9 15 11 7 3 4 3 7 9 6
37 33 34 27 23 26 29 21 21 18 13 13 14 14 15 10 10 10 13 15 11 14 18 17 18 20 24 24 22 19 17 14 14 5 12 10 6 7 1 4 6 6 6 6 5
35 32 32 27 24 25 23 24 23 18 16 15 15 11 9 8 10 10 13 8 5 12 19 25 29 31 29 25 19 16 6 6 7 7 10 5 4 2 9 7 5 3 3 4 3
32 32 31 24 24 25 23 24 18 17 15 14 12 8 8 8 11 11 9 9 14 16 27 34 34 28 28 24 19 16 10 6 3 4 4 2 2 12 9 6 4 5 5 4 4
31 33 29 21 23 22 26 21 18 16 12 9 9 9 9 11 13 16 13 19 20 30 32 25 24 23 20 20 16 11 6 7 7 8 11 7 8 11 6 4 4 5 7 7 7
31 31 24 20 20 24 23 17 17 14 12 9 10 10 11 12 14 15 19 19 22 31 29 24 20 17 13 11 7 5 8 6 8 9 13 9 10 9 7 4 6 8 11 10 11
30 27 20 18 20 23 18 15 13 12 11 11 12 11 15 15 10 19 23 24 24 29 31 26 23 20 11 13 7 8 5 8 7 12 13 12 10 9 7 7 9 12 12 13 13
27 22 19 17 20 18 14 12 12 12 12 11 13 14 17 19 18 19 25 31 27 24 19 11 21 22 12 7 7 5 13 14 13 12 13 10 8 7 8 9 12 13 12 12 14
23 19 17 17 18 13 12 13 14 15 16 15 14 18 17 20 22 22 27 26 22 20 19 16 11 15 13 11 11 16 18 12 13 13 13 11 11 7 8 6 7 6 9 11 12
21 17 15 16 15 14 14 15 17 16 15 16 17 17 17 15 17 23 28 26 28 25 20 12 10 12 12 15 13 22 18 13 10 7 9 10 9 5 3 3 5 7 10 13 14
22 16 16 16 16 19 18 16 14 15 17 17 18 18 16 15 16 19 29 31 29 26 20 15 12 19 17 18 19 19 20 19 14 13 11 10 10 6 6 7 10 13 14 15 15
22 16 17 16 16 17 14 16 17 19 20 20 20 18 18 18 16 20 24 33 30 26 23 21 22 18 20 20 23 18 17 18 22 22 16 13 12 8 9 11 14 15 15 15 16
21 17 14 17 18 18 18 21 22 21 16 19 19 18 18 18 19 18 19 21 31 25 28 21 17 14 19 20 17 18 18 17 17 18 16 13 16 11 13 16 15 14 14 15 16
21 18 20 20 20 22 25 25 24 22 22 20 18 19 18 16 16 16 17 19 20 22 19 17 15 14 17 21 18 18 16 15 16 17 15 13 19 15 15 13 12 13 12 13 16
24 20 26 25 26 27 27 27 26 21 20 19 18 16 16 14 14 13 13 13 14 15 16 17 19 18 16 17 18 18 17 17 17 17 16 17 11 11 9 9 9 9 8 9 11
26 27 30 31 32 32 31 29 26 21 20 19 18 15 13 12 11 12 12 12 13 14 15 15 15 14 15 18 19 18 18 17 16 13 11 10 6 6 6 7 4 4 6 8 11
29 34 35 37 38 35 32 29 25 21 20 19 16 13 12 11 10 10 11 11 12 14 15 14 16 15 15 17 16 16 12 11 8 7 5 2 3 3 4 4 5 7 9 11 14
34 39 42 44 41 36 32 28 25 22 20 17 15 13 14 15 16 16 15 14 15 16 16 17 17 17 15 14 13 11 10 9 7 5 5 4 4 7 7 7 9 12 14 15 18
38 43 48 48 43 37 34 30 26 23 19 15 13 13 15 17 17 19 20 18 16 16 18 18 17 17 17 15 14 11 10 9 8 9 9 9 8 9 12 13 14 16 18 20 23
42 47 51 50 43 39 36 33 27 24 20 13 9 8 10 10 13 14 16 16 15 15 16 16 16 17 16 15 14 12 12 11 11 11 11 12 14 17 18 19 21 23 25 27 29
49 53 55 51 44 41 39 35 29 24 19 11 4 3 6 8 11 13 16 16 16 17 17 17 16 16 17 17 18 15 16 16 15 15 17 17 20 24 24 24 25 27 30 33 34
52 58 55 49 45 43 42 37 31 22 17 10 3 1 3 6 9 13 16 16 17 18 17 17 17 18 20 21 20 20 20 20 19 21 23 23 24 31 30 30 31 33 35 37 39
56 59 56 50 46 44 44 40 35 25 19 11 5 2 2 4 7 10 12 14 17 18 18 18 19 21 22 22 23 24 23 22 25 26 28 30 28 35 36 37 36 37 40 42 44
58 59 57 51 48 47 44 39 33 27 20 14 8 5 5 4 4 7 9 12 15 18 19 20 21 23 25 26 28 30 23 27 30 31 34 34 36 38 39 40 41 42 44 45 47

GFSSW_500_spd_012.txt.gz
Wind_Speed
34 37 39 35 39 35 29 25 24 21 24 28 23 19 15 16 18 19 22 17 15 14 15 17 20 28 30 27 26 19 16 16 18 18 20 23 23 24 19 9 5 5 6 4 7
40 35 37 35 38 35 28 25 26 25 26 24 19 14 14 15 12 14 13 13 10 12 13 17 17 28 28 27 25 19 18 20 17 17 17 23 23 15 13 9 4 7 5 3 1
39 35 34 35 37 33 28 26 26 27 23 19 14 11 11 12 13 11 8 10 8 13 10 13 20 26 23 22 22 21 20 18 15 16 12 9 26 7 5 3 3 3 8 8 4
39 34 34 35 35 33 29 27 26 19 18 15 12 11 14 14 13 7 8 8 9 11 12 14 20 22 19 17 17 19 16 19 17 14 15 10 13 8 8 7 6 5 9 8 5
38 35 35 32 35 32 27 25 23 18 18 13 14 14 16 13 11 8 9 11 13 15 15 13 18 20 18 17 20 18 17 12 9 4 5 17 8 3 8 8 8 7 5 6 4
39 34 34 32 32 28 24 25 20 22 15 13 15 16 14 9 9 8 11 13 14 11 16 18 21 24 24 22 19 19 16 13 7 12 12 7 4 4 10 9 10 6 5 5 4
39 33 31 32 29 23 23 19 22 20 13 12 13 13 12 9 9 9 7 6 8 15 21 27 34 30 27 24 21 18 12 6 3 5 9 4 2 8 11 7 6 3 3 7 7
38 33 29 29 28 21 20 21 20 14 11 10 11 11 9 10 11 9 8 12 13 17 26 22 27 28 26 25 20 18 14 9 5 5 10 6 4 10 7 5 2 2 4 5 6
36 32 28 24 23 19 19 22 14 10 10 9 12 10 13 11 12 13 14 15 18 19 30 28 27 30 29 24 20 14 6 5 5 10 13 10 9 10 7 6 4 6 6 7 9
34 28 23 22 19 18 18 18 10 10 8 11 12 11 12 12 14 15 22 19 21 28 28 22 24 15 12 10 9 5 7 6 5 9 12 12 10 9 7 7 8 9 9 10 13
33 26 20 20 19 19 17 13 10 9 11 13 14 13 13 14 15 18 22 23 17 21 28 25 19 13 14 18 13 9 13 10 8 9 12 12 11 8 7 8 11 11 11 13 13
32 25 18 19 19 16 13 11 8 9 12 15 18 15 16 19 20 17 23 23 17 21 21 20 20 18 15 12 8 7 15 11 10 12 13 12 10 7 9 10 10 10 13 15 14
31 24 18 19 17 13 9 11 12 14 17 18 20 16 18 21 23 23 27 28 24 16 20 11 10 17 18 12 7 8 16 10 4 5 7 11 10 11 9 9 8 9 10 12 13
31 23 17 18 15 13 11 13 15 16 17 17 18 16 19 20 24 27 28 20 25 16 24 17 9 10 10 11 13 11 19 15 10 9 6 8 10 12 11 9 10 13 14 14 15
30 23 17 17 15 15 16 16 18 17 18 17 16 16 19 20 21 27 30 25 26 21 17 14 9 7 12 17 14 15 13 17 13 15 15 13 15 19 15 12 13 16 17 17 15
31 23 19 17 17 15 16 15 16 18 19 18 19 19 18 18 18 21 26 28 24 23 22 20 16 14 18 17 15 17 12 15 17 19 20 22 20 18 15 15 18 19 18 16 15
34 25 22 20 19 17 17 18 20 20 18 20 19 18 17 17 19 20 22 23 27 25 23 23 23 20 15 11 14 14 13 15 17 18 18 17 21 17 16 17 20 19 17 15 15
36 29 25 24 22 21 21 22 22 22 22 21 20 19 16 16 17 17 17 18 19 22 20 20 19 17 12 14 17 20 16 18 19 17 16 16 17 15 15 17 17 16 13 11 10
39 32 27 27 26 24 25 24 24 23 23 21 20 19 17 16 16 16 15 15 15 16 18 17 18 17 15 16 17 17 18 17 19 18 17 13 10 13 13 13 11 8 8 9 11
39 34 30 32 29 31 29 28 29 26 23 20 19 18 15 14 13 14 14 14 15 15 15 15 17 17 18 19 20 20 18 18 16 13 11 5 5 6 6 6 8 10 11 13 15
45 39 36 38 35 36 34 35 30 26 23 21 19 17 15 13 12 12 13 14 15 15 15 16 18 18 20 19 18 18 15 13 13 10 7 6 7 9 11 12 12 14 16 18 20
48 43 42 40 41 40 40 38 31 27 25 22 19 16 14 14 15 16 17 17 17 18 18 18 19 18 19 19 17 15 14 13 13 11 10 11 10 13 13 15 17 19 20 23 25
50 47 47 44 46 44 43 39 33 30 26 21 17 15 16 18 20 22 22 22 20 19 20 20 21 20 20 17 15 15 14 14 15 14 12 13 13 16 17 19 21 23 25 28 30
54 49 50 47 50 47 44 40 36 32 26 19 14 13 14 14 16 17 18 18 18 18 18 18 16 16 16 18 18 18 18 18 17 16 16 13 20 22 24 24 26 29 31 33 35
57 53 45 52 54 51 47 41 37 32 27 20 12 9 8 10 12 14 14 15 17 17 18 17 15 16 17 19 21 20 21 21 21 21 22 21 23 26 32 31 33 35 38 39 42
59 54 51 54 55 53 49 44 38 33 29 20 12 7 5 5 7 8 10 12 14 14 17 17 16 17 18 19 22 23 23 22 24 25 27 30 28 34 36 38 38 40 42 44 46
59 55 54 57 58 55 49 45 40 35 28 21 14 8 4 2 1 4 6 8 10 15 16 18 17 18 19 21 24 26 21 25 28 29 32 36 37 39 42 44 46 47 48 49 50

GFSSW_500_spd_018.txt.gz
Wind_Speed
33 33 31 32 29 29 30 33 36 36 37 37 34 33 28 25 18 16 19 18 19 17 12 9 9 13 18 17 18 29 25 18 2 15 34 35 35 18 26 24 29 33 35 34 19
34 34 31 33 32 31 31 32 35 36 37 35 34 28 26 19 16 19 18 19 18 12 12 10 9 11 19 20 19 25 16 10 23 30 31 23 25 20 25 29 23 22 4 6 16
35 34 31 32 33 31 31 32 34 34 36 34 29 28 21 16 17 18 17 15 11 6 9 6 8 9 12 21 20 23 20 6 28 23 34 11 16 22 16 18 13 15 9 14 8
35 33 30 31 33 30 32 31 32 32 34 32 30 27 17 15 21 17 13 9 5 4 6 6 10 9 12 21 19 21 20 4 9 3 4 3 19 5 12 11 16 23 17 14 11
36 31 30 30 34 30 31 30 30 31 31 30 31 23 14 16 20 17 14 9 9 7 7 6 9 11 16 19 17 20 16 21 19 18 9 14 10 5 8 5 12 12 13 10 9
36 32 30 31 33 31 30 27 28 31 30 30 26 17 14 17 19 15 11 10 9 8 9 8 14 17 12 12 12 18 13 18 22 19 13 17 11 8 7 6 9 9 13 7 5
36 32 30 31 31 30 29 23 27 28 28 29 20 13 14 19 18 13 10 10 11 11 10 9 15 16 17 16 15 20 21 15 18 13 14 8 10 8 4 2 4 5 5 4 3
35 32 28 29 30 28 27 20 25 27 27 28 16 14 15 16 11 11 9 9 13 1 8 11 11 18 14 12 16 16 17 16 8 11 7 10 5 1 9 4 2 4 4 5 4
35 32 26 27 28 28 25 19 23 25 24 24 16 14 13 13 11 8 9 4 3 2 7 12 14 15 16 15 19 17 9 9 5 11 7 8 8 4 6 5 2 5 2 1 1
35 31 28 27 26 26 21 19 22 23 23 20 15 14 12 10 11 6 10 2 5 5 9 16 23 21 19 19 9 8 10 6 2 2 7 3 12 6 8 8 1 7 4 2 0
36 33 30 27 27 25 18 19 22 20 18 17 14 14 10 11 10 7 9 2 9 11 14 27 25 23 20 9 14 11 8 6 9 6 10 9 13 10 11 7 7 6 9 3 1
37 35 32 29 29 25 18 20 19 17 15 13 16 13 8 10 8 7 10 8 12 13 9 24 23 11 11 12 7 3 2 12 15 11 11 12 14 9 6 6 5 8 4 7 6
39 38 35 34 31 28 19 21 19 18 14 16 15 14 12 11 8 8 8 7 8 13 6 18 19 14 11 12 10 4 9 14 9 5 9 16 14 17 7 8 7 5 8 9 9
39 38 38 35 33 28 23 21 18 18 18 20 18 17 15 13 12 12 13 10 5 13 10 13 17 19 10 8 5 12 14 14 12 3 3 10 10 15 24 9 10 10 10 13 18
44 41 40 35 35 32 23 22 19 18 21 23 18 17 17 13 11 20 19 16 14 13 6 10 19 20 15 15 15 8 18 12 5 13 17 23 16 22 22 15 14 13 14 19 23
46 43 41 37 40 32 26 23 21 21 23 23 22 9 12 12 17 16 22 25 26 12 5 12 15 8 17 6 7 8 4 5 11 11 17 11 12 22 19 24 19 19 17 21 27
46 43 42 43 44 35 30 25 24 24 19 22 18 13 10 12 17 22 21 28 23 16 12 13 7 9 8 9 9 12 6 3 12 15 8 6 20 17 21 16 22 15 15 22 30
46 44 42 45 45 36 33 30 26 19 23 15 14 12 13 11 15 19 19 14 19 18 11 18 12 12 16 12 16 3 15 11 17 19 10 16 13 11 19 25 30 33 32 23 27
47 45 42 47 45 38 35 34 24 17 18 16 14 16 14 15 13 15 17 17 20 15 21 25 23 20 11 13 18 11 12 16 18 15 10 14 14 14 19 22 22 31 25 21 19
48 45 47 50 47 43 39 33 22 24 17 20 19 18 16 17 21 18 17 16 14 18 25 25 15 4 11 13 12 13 15 12 16 18 16 8 2 15 22 14 15 16 12 13 15
49 48 53 53 51 47 41 30 24 28 25 27 23 19 18 20 18 16 14 17 28 21 25 20 11 13 13 13 13 14 16 16 18 19 16 11 10 15 21 15 13 16 17 18 20
51 51 56 57 55 49 42 31 30 31 26 24 26 19 23 17 17 17 19 16 18 20 22 23 22 22 11 18 13 18 14 15 20 18 18 14 14 19 16 17 18 19 22 25 27
52 58 57 59 56 50 42 34 36 33 30 27 25 26 26 27 23 23 22 27 19 21 21 23 17 17 16 17 13 14 17 17 21 16 15 17 13 19 18 21 22 23 24 29 31
60 64 59 56 55 50 43 39 40 35 34 31 28 27 27 26 24 22 23 22 18 21 20 22 19 21 20 13 16 15 19 18 19 18 16 18 16 19 24 28 27 26 28 33 36
70 63 60 56 56 54 47 44 42 41 41 36 32 30 26 23 22 22 25 23 23 23 25 25 24 24 23 19 23 24 19 19 21 19 21 16 20 17 20 31 39 38 39 35 40
70 62 60 58 54 53 50 47 45 43 40 36 34 30 25 24 23 24 25 21 21 21 22 21 23 23 20 20 22 22 21 20 21 20 21 20 24 24 34 38 39 40 43 46 45
69 65 64 65 56 54 51 47 49 43 41 35 32 29 26 27 24 24 19 15 24 20 21 21 21 21 21 20 21 19 16 20 19 21 23 27 26 30 36 42 40 39 45 49 48

GFSSW_500_spd_021.txt.gz
Wind_Speed
32 30 30 31 30 28 27 30 32 34 35 38 40 41 37 36 32 19 21 22 19 19 17 12 9 9 11 15 18 27 29 20 21 9 15 20 26 26 30 16 22 24 30 29 25
34 32 31 31 29 28 27 29 32 32 34 36 39 38 37 32 23 17 26 22 16 17 10 11 11 9 15 16 14 19 20 16 15 13 18 21 23 29 32 29 20 16 20 26 26
35 33 32 32 28 27 27 29 32 32 32 34 37 35 36 27 18 18 21 17 14 9 3 8 10 10 15 21 16 21 18 14 4 15 20 16 24 18 15 28 15 14 8 10 11
36 33 34 33 28 28 27 30 30 31 30 33 34 34 33 21 18 18 18 16 11 8 5 4 4 8 8 21 19 25 16 4 8 5 17 13 6 12 11 14 9 6 14 9 11
37 35 34 33 28 28 27 30 29 29 28 31 32 33 27 18 19 20 17 14 10 7 5 6 7 7 10 21 20 15 10 7 15 16 14 4 3 6 6 6 3 5 2 6 6
37 36 35 32 29 28 27 29 28 28 28 29 30 32 20 18 20 20 14 13 11 6 6 9 13 17 21 19 12 9 16 5 7 22 16 11 5 10 4 10 9 3 5 8 11
37 36 34 31 28 28 27 27 27 27 26 27 28 29 16 19 18 16 13 10 11 8 6 12 14 18 26 22 15 18 21 7 8 17 10 15 11 6 8 10 8 6 5 6 5
37 34 34 31 27 26 26 27 26 25 23 24 27 24 15 17 18 16 11 9 11 4 9 12 10 14 19 15 13 15 13 10 12 14 5 2 6 8 9 5 3 4 4 8 6
37 37 34 28 26 25 26 26 24 24 22 22 25 20 14 14 14 12 10 8 8 1 6 12 11 12 12 7 15 17 17 15 10 14 3 5 5 5 6 3 13 9 2 2 4
38 38 33 28 25 25 26 25 25 21 20 21 23 16 12 11 14 12 11 10 4 2 4 8 12 14 14 12 12 12 12 17 8 5 7 1 4 6 8 10 7 7 5 4 4
39 38 33 28 25 25 27 25 24 19 19 19 20 13 12 10 12 13 7 2 1 2 5 11 13 13 10 18 13 12 6 3 6 1 5 9 3 10 9 8 7 3 1 2 8
41 38 34 29 28 27 28 27 21 22 18 17 17 10 9 11 12 9 3 2 3 6 7 13 17 11 14 15 14 12 8 4 9 11 4 9 12 2 4 8 9 7 5 2 2
40 37 35 33 31 29 29 30 25 20 18 17 16 11 11 13 16 10 3 6 5 7 9 7 14 9 18 15 14 4 5 16 10 10 9 15 14 9 5 6 12 10 4 2 3
40 39 36 35 33 32 31 29 27 22 21 17 16 14 13 14 15 12 10 10 10 13 4 6 19 11 15 14 9 3 9 14 10 6 5 7 11 21 23 15 9 17 12 12 5
43 42 39 38 36 32 32 30 26 25 24 19 16 14 16 13 17 12 11 13 11 10 6 4 10 19 17 13 11 3 10 9 8 5 8 15 16 23 25 16 14 12 13 19 18
48 45 42 39 37 35 36 32 30 27 25 20 19 14 16 14 17 17 13 14 15 15 1 9 14 19 11 10 13 5 1 11 15 17 17 11 16 12 12 19 13 16 17 19 22
54 45 43 42 38 36 36 35 33 31 22 22 20 17 16 13 17 21 17 22 24 15 7 13 19 9 5 2 2 11 12 14 13 17 15 18 20 6 8 11 13 17 12 17 22
51 51 46 40 40 37 37 37 37 28 23 24 23 20 15 14 15 18 22 20 21 20 19 15 16 14 11 5 8 9 13 16 15 15 17 21 16 12 8 9 13 14 13 15 16
53 50 48 42 41 41 41 37 34 27 20 21 23 22 14 15 9 13 18 15 16 21 22 22 22 21 20 19 19 13 13 14 18 19 12 7 11 15 13 14 19 16 14 10 8
58 52 46 47 45 46 42 37 35 26 25 22 24 18 15 15 16 11 14 14 16 19 21 20 23 23 27 18 10 12 14 17 18 19 13 7 11 12 12 13 16 16 8 9 11
61 56 49 51 49 48 44 35 32 28 30 30 23 16 17 14 14 14 10 10 16 17 23 18 20 20 6 4 11 16 17 18 18 19 16 8 14 13 14 18 20 19 17 16 16
61 59 54 54 54 49 41 36 35 34 35 31 27 23 19 23 26 15 17 18 18 20 25 15 22 19 17 8 10 17 13 15 17 15 20 12 11 18 17 20 20 21 24 22 23
63 59 59 59 53 49 47 42 38 37 40 36 28 28 26 24 22 15 23 24 19 20 23 19 21 18 17 19 17 16 16 19 20 16 14 13 10 16 18 20 23 22 24 26 28
69 65 63 59 48 48 48 42 40 41 40 34 28 29 32 30 30 24 27 26 24 23 24 21 22 21 21 18 19 19 14 18 20 21 15 12 12 15 19 25 27 26 23 24 32
76 66 60 51 51 51 52 45 44 46 42 35 34 33 34 37 27 20 31 31 22 19 22 25 25 24 24 20 24 23 16 18 19 20 18 11 16 14 22 25 31 35 34 35 37
77 66 56 47 48 52 51 49 48 48 42 39 40 37 35 32 33 28 26 24 22 22 27 29 29 29 26 25 26 25 23 24 20 17 18 16 18 18 24 29 33 36 38 39 43
76 65 59 50 51 53 49 45 47 46 42 39 40 38 36 34 33 31 30 27 26 26 26 25 24 24 23 23 24 23 13 21 18 19 20 20 22 24 29 32 33 36 38 40 44

GFSSW_500_spd_024.txt.gz
Wind_Speed
33 32 31 29 26 26 27 28 28 26 29 32 35 38 39 38 35 22 20 24 20 17 18 14 14 11 8 13 21 24 19 22 20 31 18 17 14 13 15 18 26 19 21 25 27
36 35 34 33 28 27 28 26 28 27 30 32 34 36 38 37 26 19 21 21 21 18 13 8 10 9 11 16 16 12 20 23 26 28 19 13 10 11 16 19 23 21 21 21 21
39 36 36 34 31 28 28 25 27 26 28 31 33 34 35 35 22 18 19 19 17 12 12 3 4 7 13 15 9 9 20 25 24 21 17 14 12 18 12 13 11 20 19 21 20
42 38 37 35 33 29 27 25 26 25 27 29 32 32 32 29 20 21 20 17 15 9 9 4 3 6 16 12 12 13 22 21 18 15 12 15 18 13 10 8 5 14 10 15 12
44 41 38 36 34 31 27 25 25 25 26 28 29 31 30 20 22 19 20 13 13 7 5 3 7 11 18 21 20 20 19 10 15 15 5 2 9 4 8 5 10 10 4 8 14
45 43 39 37 34 30 27 25 25 24 24 27 27 30 29 16 20 22 15 10 11 7 5 6 8 12 18 24 18 19 17 7 8 10 7 10 6 5 6 8 12 8 7 7 4
46 44 41 37 35 30 27 24 23 22 24 25 25 27 26 15 17 18 14 8 9 11 7 6 5 11 19 23 18 20 11 6 6 1 3 9 7 4 8 11 8 6 4 6 6
47 45 42 39 35 30 28 25 22 19 23 23 23 25 20 13 13 14 13 11 13 10 4 10 2 9 16 23 16 13 11 15 2 3 3 9 6 5 6 4 7 4 4 8 7
46 45 43 41 36 29 28 25 22 20 22 21 21 22 16 12 9 13 15 14 10 1 2 8 11 10 15 14 13 12 17 6 2 5 8 9 5 6 7 8 3 3 2 6 4
47 44 43 41 36 31 27 26 21 23 21 21 19 20 17 9 8 14 14 8 3 5 9 11 13 17 14 8 14 15 14 7 8 5 2 2 4 8 6 6 7 7 5 2 6
53 46 43 39 39 30 27 26 23 22 20 19 18 16 14 8 6 12 11 9 3 5 3 7 14 17 13 13 13 16 21 17 15 10 3 4 2 4 6 4 4 5 4 5 2
55 53 44 41 39 33 30 26 25 22 20 20 18 14 13 7 9 12 9 9 3 5 6 8 9 16 12 17 13 10 11 8 12 8 7 8 9 2 3 2 6 4 4 7 6
53 54 45 48 37 36 30 29 23 26 22 21 20 14 15 9 11 15 9 6 9 6 5 1 5 10 12 20 17 14 16 11 8 5 2 11 11 6 5 3 2 3 3 4 7
51 50 52 50 39 32 30 26 27 29 25 21 21 17 15 14 13 16 11 11 12 10 7 2 7 8 12 18 15 11 13 14 11 11 12 9 15 7 7 8 8 5 3 4 5
51 45 44 44 32 34 31 31 30 29 29 21 21 16 17 12 18 12 13 14 18 12 9 5 10 13 18 18 11 3 8 13 11 13 14 9 11 13 15 17 14 12 10 3 2
51 43 41 34 34 38 35 33 32 30 28 21 21 16 19 15 18 17 14 17 20 10 3 9 9 22 20 18 12 8 5 11 12 15 18 16 19 16 15 4 4 7 10 11 10
48 44 41 42 36 38 33 34 35 36 25 22 22 20 20 16 18 18 17 23 22 15 7 8 14 20 16 13 10 14 9 13 16 21 23 21 20 10 12 10 4 5 13 7 7
50 48 42 43 41 41 37 37 39 33 28 25 24 24 20 17 17 19 20 25 27 22 15 9 17 25 18 19 15 16 14 17 21 22 19 14 23 14 6 6 8 5 11 8 8
55 55 50 49 44 45 41 44 39 32 25 23 27 30 23 18 16 17 18 21 25 22 21 17 18 21 13 17 19 14 11 15 22 23 18 16 14 14 9 8 6 4 4 4 2
61 57 53 51 55 49 46 44 42 30 27 27 30 29 22 17 14 17 20 20 21 23 25 24 23 20 19 19 23 14 18 16 18 21 17 14 16 16 15 11 9 6 5 6 7
66 62 56 58 56 56 52 47 40 30 31 30 32 31 22 20 16 16 15 17 20 24 26 26 25 20 22 9 20 22 19 18 17 20 17 15 16 17 16 17 17 12 10 11 12
68 66 63 64 62 53 53 45 39 33 35 34 36 32 26 21 21 20 17 17 20 24 27 17 20 16 9 10 11 19 15 18 22 21 22 19 15 16 20 22 22 18 14 14 15
71 68 69 68 64 53 49 43 41 39 39 38 38 32 27 26 25 22 19 19 20 23 24 19 20 22 23 19 18 15 17 20 24 23 22 18 12 15 18 23 26 24 20 17 19
79 77 70 72 59 55 50 44 41 41 42 42 40 34 30 29 28 24 27 23 23 24 20 20 23 21 16 14 20 21 21 22 24 24 22 15 14 15 19 24 26 25 24 20 20
87 81 71 67 64 58 55 50 48 48 45 46 42 36 32 32 35 31 27 27 27 26 23 22 22 22 22 21 22 25 24 24 26 22 23 15 20 16 22 23 25 26 27 25 25
89 80 72 58 56 57 55 51 53 46 47 46 39 35 33 36 35 36 32 31 28 30 29 26 26 26 26 25 27 30 31 23 22 24 24 18 18 21 26 26 25 26 29 30 32
88 79 71 62 58 58 54 51 51 49 50 47 40 37 36 37 38 33 27 27 26 29 29 28 29 30 32 32 33 34 25 26 24 28 26 23 20 22 25 26 27 28 31 34 37

GFSSW_500_spd_027.txt.gz
Wind_Speed
40 39 37 35 31 31 30 30 29 27 27 26 26 30 36 40 40 40 28 20 23 21 21 19 13 14 14 12 13 15 21 19 20 20 22 10 20 23 19 16 17 19 22 20 19
42 42 40 37 34 32 32 31 30 27 25 26 25 29 35 38 38 32 25 21 20 20 19 13 5 7 10 10 12 18 23 19 19 19 17 11 14 16 14 14 18 20 21 19 18
44 43 42 40 36 34 33 32 30 27 25 24 24 29 34 36 37 27 23 20 16 17 16 12 5 6 3 6 10 16 24 24 22 17 15 20 14 16 15 18 17 17 18 22 19
46 45 45 43 39 35 35 32 30 28 24 24 25 29 32 35 34 27 22 17 14 14 11 9 10 4 10 14 15 15 21 27 20 17 16 16 19 17 17 15 13 14 11 16 22
50 49 48 45 40 36 36 33 30 27 23 23 25 29 30 33 28 22 18 15 12 12 10 8 13 8 16 13 12 13 11 21 13 14 15 8 18 16 17 8 14 10 6 13 23
53 50 49 46 42 38 37 35 30 26 22 23 24 28 28 31 27 18 15 13 12 10 11 8 10 4 11 15 9 9 10 10 15 20 6 1 2 8 6 2 4 8 7 6 14
52 52 50 47 44 41 38 35 31 25 22 22 24 27 27 28 24 14 14 14 13 13 7 6 2 4 7 18 15 11 20 9 5 12 1 3 3 6 2 8 9 9 10 5 12
56 55 53 49 46 41 38 35 33 26 23 23 24 26 24 26 21 12 15 16 16 12 5 10 5 3 6 14 15 18 15 6 1 3 4 8 13 9 5 3 9 9 8 6 10
60 59 55 51 46 41 38 37 34 27 25 24 24 23 24 23 20 13 15 16 10 9 3 9 7 7 6 13 13 20 15 4 4 6 9 8 12 13 10 3 5 9 3 5 7
63 62 60 53 46 42 39 37 35 30 26 24 24 21 22 22 17 12 13 15 11 7 1 5 9 11 11 12 16 14 12 13 8 9 7 8 8 11 9 9 10 6 6 6 7
62 58 55 58 50 43 41 40 39 33 27 24 22 21 22 21 14 11 11 13 9 4 6 4 9 13 16 15 18 16 16 13 13 12 10 11 5 9 7 5 6 6 10 10 7
63 57 50 51 56 50 43 45 39 32 26 27 22 21 22 21 14 13 11 10 10 5 3 4 8 16 18 12 13 12 13 16 13 4 3 6 5 3 5 7 5 4 6 7 6
63 58 53 48 52 56 51 47 37 36 31 29 22 21 22 21 17 17 14 8 6 6 7 5 8 13 14 9 14 16 18 18 13 5 2 1 2 5 8 6 3 2 5 3 5
60 55 51 47 51 49 47 47 37 37 35 26 24 23 19 21 18 20 16 9 11 7 10 7 11 11 9 14 17 14 13 14 13 10 8 4 3 9 10 7 2 5 5 1 4
56 53 48 47 40 43 42 40 39 38 36 29 27 24 20 19 22 15 15 11 14 14 12 11 11 11 8 23 17 14 15 13 12 13 10 10 8 12 11 8 6 7 3 7 13
54 47 48 43 37 38 39 40 41 41 39 29 27 23 20 20 21 19 20 15 19 20 17 10 16 12 17 21 16 10 12 15 17 14 15 17 16 12 9 6 8 10 11 6 10
57 49 48 40 38 37 38 46 44 45 32 32 24 22 22 22 24 19 20 18 17 20 17 18 13 13 18 20 19 14 14 13 19 19 17 20 21 16 17 15 9 9 10 8 9
58 55 51 44 41 41 41 44 47 41 34 30 26 27 22 24 22 21 21 20 20 25 22 17 12 16 19 18 17 22 18 19 19 20 22 22 13 7 18 9 16 12 7 8 10
62 58 51 46 45 44 45 46 43 42 32 32 30 32 27 26 24 25 21 20 20 27 23 19 13 20 23 21 19 17 18 19 22 22 24 20 15 12 8 14 11 12 7 8 8
66 61 54 50 50 50 49 42 47 36 34 34 34 33 29 28 29 23 19 19 20 22 27 23 19 19 27 18 18 17 20 24 24 22 22 17 17 14 13 18 17 17 12 10 8
72 66 59 55 58 57 49 41 48 37 36 37 38 36 31 29 25 21 15 16 22 20 24 32 29 25 27 24 18 18 26 26 25 27 21 18 17 15 16 16 18 18 15 13 12
75 72 65 65 65 56 50 47 49 40 39 39 39 37 32 29 26 22 19 17 25 25 28 29 32 31 25 19 27 26 14 26 27 23 22 21 15 15 18 18 20 19 18 15 14
79 75 74 72 69 53 49 50 50 45 46 44 39 39 35 31 29 23 23 22 24 26 26 24 28 28 23 22 20 20 14 19 23 25 25 23 16 15 22 24 24 21 15 15 16
85 85 79 79 63 58 52 51 51 48 46 47 45 44 37 32 30 24 25 27 24 24 22 22 23 24 21 18 17 23 24 24 26 26 25 26 20 24 23 24 25 24 19 16 17
92 88 77 74 66 59 57 52 49 52 51 49 47 45 38 33 33 27 30 30 28 26 26 25 25 24 23 22 21 21 23 24 23 24 25 23 24 22 25 27 26 25 21 21 21
94 87 83 69 65 62 59 53 49 50 55 52 48 45 40 36 32 26 28 30 29 27 27 25 24 23 25 25 25 26 27 28 24 26 29 30 26 22 24 24 25 26 26 25 25
94 87 82 72 69 68 57 51 49 49 48 45 42 44 40 35 30 32 33 34 29 27 26 27 27 24 24 26 30 31 29 29 31 33 32 35 29 28 27 26 25 26 28 29 30

GFSSW_500_spd_030.txt.gz
Wind_Speed
44 43 41 39 38 37 37 35 34 32 33 31 29 30 30 32 36 42 45 40 32 26 25 25 17 10 9 9 9 6 16 15 16 16 16 15 7 10 16 15 19 25 25 32 27
44 43 42 40 39 39 38 36 34 34 33 31 28 28 29 32 36 40 41 36 30 22 24 22 14 8 8 7 4 14 16 14 14 10 10 14 3 6 11 17 13 20 23 26 26
44 43 42 41 41 39 40 38 35 35 33 32 27 28 28 32 35 40 39 31 25 18 22 20 13 11 7 3 6 20 18 17 12 12 9 7 13 10 14 18 19 21 25 24 24
45 45 44 39 42 41 42 39 36 35 34 32 27 28 27 32 34 38 36 25 22 17 19 18 15 17 7 8 11 18 20 14 8 11 10 9 16 15 13 17 21 25 25 22 25
47 46 45 44 44 42 45 41 37 35 35 32 27 27 27 31 34 35 33 23 22 19 19 13 11 11 7 6 12 9 13 15 13 10 8 9 12 14 18 21 21 18 20 16 16
52 49 46 45 46 45 43 41 37 36 35 31 28 27 27 30 32 33 30 22 24 20 19 9 6 6 9 8 5 5 6 7 11 11 12 10 9 11 12 19 10 7 4 12 15
52 50 48 47 47 44 45 42 38 36 36 32 29 27 27 29 30 31 28 22 23 20 16 8 5 0 5 7 8 7 7 0 4 8 14 11 4 4 7 13 13 17 16 17 22
55 54 52 50 48 46 45 45 40 38 35 31 29 25 29 27 29 28 27 21 24 18 14 10 7 4 3 3 8 10 12 7 4 6 10 3 9 10 9 10 13 11 15 15 16
56 56 55 52 52 49 48 47 43 38 37 32 29 25 29 26 27 26 24 18 22 18 11 11 8 5 5 5 10 15 12 9 6 2 12 9 8 11 12 9 9 12 12 12 15
61 57 55 54 50 46 49 51 46 40 39 32 29 27 27 26 27 23 22 16 20 16 6 7 8 6 8 10 12 13 18 10 7 7 16 12 8 9 11 9 6 7 10 9 10
60 61 58 53 54 49 44 43 43 42 41 34 31 29 27 26 27 21 20 18 21 17 5 3 3 5 12 14 14 15 16 12 13 8 10 13 10 8 8 7 6 5 11 6 6
60 59 57 57 52 49 46 45 39 43 41 37 35 31 29 26 25 21 19 17 19 13 4 5 2 6 12 9 9 14 11 9 11 11 5 10 12 11 9 11 9 5 5 10 8
62 59 55 56 57 49 46 42 38 45 47 39 38 32 30 26 24 21 18 18 16 11 7 8 6 7 13 5 5 12 11 13 13 10 7 5 8 11 12 12 8 6 6 4 6
64 60 54 53 54 50 44 40 40 46 49 40 41 32 32 26 23 22 17 17 14 12 10 8 7 9 13 11 12 13 16 16 17 13 7 5 6 9 15 15 5 9 9 6 8
56 57 58 53 49 47 44 40 43 45 41 36 43 38 30 24 23 20 18 14 15 15 12 12 9 12 11 11 15 17 19 17 16 15 9 8 7 7 13 10 7 11 11 14 15
60 57 55 54 49 45 45 39 39 42 42 34 40 36 30 26 26 26 18 13 19 19 17 17 14 14 14 9 15 16 17 17 16 16 14 10 7 7 7 8 7 11 12 14 16
64 59 54 51 39 47 44 39 41 39 35 35 36 35 31 26 25 27 19 12 17 18 21 19 16 16 15 12 20 18 12 16 19 19 17 16 14 6 13 16 13 13 15 14 15
66 62 56 50 41 47 45 44 44 38 39 35 37 30 35 26 28 27 21 14 16 18 25 26 23 17 16 19 23 24 23 18 18 18 19 21 17 8 10 12 7 14 13 12 11
71 67 61 53 47 49 48 48 42 38 38 43 40 40 37 30 28 27 22 16 17 18 25 26 24 19 18 22 22 21 20 19 20 19 23 23 20 13 13 11 16 9 11 13 16
76 71 64 57 54 54 54 47 43 38 40 49 41 39 35 28 30 29 23 18 16 18 24 25 23 20 23 26 25 19 18 20 22 24 25 24 22 15 16 13 13 15 16 17 16
82 78 68 65 63 64 56 48 44 40 43 47 46 43 35 33 31 29 23 19 15 21 26 29 27 21 23 27 25 20 21 22 24 31 29 21 19 14 15 16 17 20 21 19 17
86 81 73 71 74 66 53 48 47 41 47 50 45 43 37 33 31 29 22 18 18 21 27 29 32 29 24 24 29 25 24 25 25 25 29 24 13 15 16 17 19 21 19 20 20
88 82 81 78 78 63 53 51 50 45 48 49 46 46 40 36 34 29 23 20 18 22 26 26 28 30 30 30 26 30 24 22 30 22 22 20 11 15 17 18 22 25 23 19 21
90 91 90 83 68 64 60 54 50 47 50 51 45 47 43 38 34 28 23 22 19 23 25 27 25 24 25 20 24 28 27 29 30 28 22 21 17 17 22 25 27 26 23 21 17
93 95 88 82 76 63 61 56 54 51 53 53 49 47 44 40 35 29 27 21 22 25 26 29 27 22 21 23 27 28 28 30 29 28 26 21 25 20 23 25 27 27 23 22 21
94 94 89 79 69 71 68 58 56 50 51 59 57 47 45 41 34 29 26 22 22 28 30 28 26 24 23 25 27 27 25 26 28 28 27 26 26 22 25 24 22 23 25 24 25
87 92 90 81 79 77 62 58 57 51 52 57 50 40 46 38 33 33 32 31 28 32 30 30 31 30 26 25 26 30 24 27 27 27 28 29 27 28 29 27 28 28 29 27 27

GFSSW_500_spd_033.txt.gz
Wind_Speed
39 39 40 39 38 37 36 34 35 35 33 31 34 32 32 31 31 33 37 41 42 36 32 28 27 20 13 8 4 2 11 10 12 13 12 9 7 8 11 13 17 24 26 25 27
40 39 39 39 38 37 36 34 34 35 34 32 33 33 32 31 30 32 37 40 40 34 30 27 22 19 12 8 1 11 12 11 12 9 6 2 9 7 8 11 18 11 14 23 26
42 39 39 38 38 37 37 34 32 34 35 33 33 34 31 30 29 33 37 39 38 31 28 25 18 18 8 7 3 14 11 10 11 6 2 1 7 9 11 9 15 17 16 17 21
45 43 42 39 40 37 37 35 35 35 36 36 32 34 31 29 29 32 37 37 36 29 28 24 16 15 6 2 4 11 10 10 8 2 4 5 7 13 14 11 12 21 21 25 26
45 44 44 43 41 39 37 35 37 34 35 35 32 33 31 28 28 31 36 34 32 27 27 21 15 12 8 4 2 5 13 11 9 5 3 6 9 12 15 16 20 24 22 21 20
48 47 45 44 45 43 43 38 40 35 35 33 32 32 30 27 27 31 35 32 30 25 25 19 14 11 4 5 5 4 4 7 6 5 9 8 13 16 16 11 17 24 21 16 18
50 49 49 48 44 43 42 40 37 38 35 30 30 31 30 28 23 31 34 30 27 23 23 18 14 9 5 9 8 8 6 7 8 9 10 3 11 10 4 8 9 13 15 15 23
52 51 50 49 48 45 44 44 41 37 36 33 31 31 29 29 22 30 31 28 25 22 22 15 12 8 5 11 12 10 8 1 7 9 9 8 8 10 9 11 14 15 21 18 14
57 54 53 49 49 46 46 43 41 38 35 36 34 34 30 29 24 30 30 26 23 22 22 14 11 8 6 13 16 12 9 6 4 2 12 8 12 14 12 11 9 12 11 16 15
61 59 55 53 49 47 45 42 39 33 33 35 38 34 31 29 26 29 29 24 21 21 20 13 7 8 7 14 16 11 12 7 1 3 8 11 9 9 9 11 12 12 14 12 12
62 60 59 55 52 50 47 45 39 37 32 32 31 34 32 28 28 28 28 23 20 19 16 12 8 6 8 14 16 10 7 11 8 5 15 12 11 9 6 7 11 11 13 12 11
60 60 60 58 56 54 49 46 42 40 35 33 32 30 31 31 29 29 29 23 20 19 14 12 8 6 5 6 7 11 7 8 10 8 10 10 8 6 8 7 8 7 8 9 10
61 61 59 58 57 54 52 47 44 41 38 30 31 30 33 32 31 29 29 24 19 18 12 11 9 7 6 3 2 12 13 11 12 7 8 11 10 8 11 9 7 6 5 3 5
63 62 59 58 57 53 53 48 43 45 41 32 33 30 37 35 32 30 28 23 17 16 10 10 11 8 7 5 5 7 14 13 12 12 10 8 11 12 13 11 7 3 5 6 7
66 65 61 57 54 51 51 47 43 41 38 34 34 33 38 38 27 26 27 21 16 17 10 13 12 8 10 9 7 14 12 14 15 14 11 7 4 7 15 13 8 10 9 9 13
68 66 64 59 51 48 48 44 44 42 42 34 33 32 37 36 33 33 29 23 18 17 11 14 12 9 12 11 10 17 14 15 16 15 14 11 7 5 11 14 11 12 15 17 19
71 67 65 59 51 48 48 44 47 46 42 38 34 30 34 38 36 37 29 25 18 16 9 15 16 16 16 14 14 16 15 17 20 21 17 13 10 2 10 16 15 15 17 21 23
76 72 67 61 56 51 52 48 52 48 43 44 35 36 35 40 38 35 30 28 17 14 15 17 20 18 21 18 16 18 19 18 15 14 14 17 14 10 15 13 13 18 15 18 18
79 78 73 65 61 54 56 56 46 46 46 40 40 35 38 39 39 36 32 23 17 16 15 17 21 24 22 21 22 22 24 22 20 21 19 17 17 13 16 14 10 11 15 19 17
83 81 76 71 65 60 60 52 45 47 43 40 44 41 42 36 41 37 30 23 16 15 17 21 22 25 27 26 26 26 25 22 22 21 21 20 17 13 14 16 14 16 17 14 16
81 83 79 76 72 70 66 49 49 51 44 45 44 49 45 40 33 32 26 21 19 18 21 22 24 26 27 28 28 30 26 24 23 21 20 23 20 14 15 18 16 19 19 18 19
86 85 81 82 83 76 64 51 53 53 43 47 42 49 43 40 34 33 30 22 19 18 21 23 26 29 25 23 26 31 29 26 21 18 24 21 14 15 14 17 19 20 23 23 23
64 86 87 84 85 77 60 60 58 53 44 49 43 50 47 42 38 34 31 25 25 21 20 24 27 29 32 30 28 23 27 26 23 28 29 25 15 12 15 16 19 19 21 20 21
58 78 86 87 81 71 70 66 60 57 47 49 47 50 53 48 41 36 30 27 26 21 24 26 27 28 24 23 26 28 25 29 30 31 31 27 21 19 19 20 19 22 24 20 20
65 67 83 91 87 78 72 65 65 60 49 51 51 54 50 42 41 37 29 28 25 22 23 26 22 22 19 23 28 27 31 30 29 28 31 26 22 16 20 22 20 23 25 22 22
69 55 72 89 80 78 79 72 66 60 51 52 53 51 48 42 41 37 32 30 28 26 26 26 23 22 21 23 27 29 28 27 27 28 26 24 22 20 24 24 24 23 24 22 21
65 49 56 87 86 85 78 70 67 62 55 52 49 47 42 35 37 35 35 35 32 32 29 29 26 24 24 23 28 28 25 25 24 24 26 27 25 26 26 26 28 28 27 26 26

GFSSW_500_spd_036.txt.gz
Wind_Speed
40 38 38 36 35 34 33 32 31 31 30 30 30 30 30 31 31 30 30 34 38 39 40 34 35 31 23 11 6 2 4 7 11 13 14 10 6 10 11 14 22 24 28 26 26
40 39 38 36 35 34 34 31 31 30 29 27 29 29 30 31 31 30 30 32 35 38 37 33 33 28 20 8 5 3 6 7 9 5 4 2 6 10 11 14 13 17 19 23 25
41 40 39 37 37 36 37 33 32 30 28 27 29 29 30 31 31 29 28 31 33 36 33 30 29 25 18 7 1 6 8 8 6 5 2 2 6 12 13 6 8 14 17 14 15
44 42 40 39 38 36 36 34 33 31 29 28 28 27 28 30 28 27 27 30 32 34 30 28 26 20 18 4 0 5 7 6 3 4 3 5 9 6 16 15 13 16 20 23 26
44 43 44 41 39 38 37 36 33 31 30 33 29 26 30 28 27 25 26 29 30 32 27 27 24 16 14 2 3 2 8 8 7 3 4 7 9 9 13 16 19 18 21 22 23
48 45 43 44 42 40 38 37 36 34 30 32 29 29 26 25 26 24 23 27 29 29 26 26 24 14 13 3 4 2 5 9 8 8 7 10 13 13 15 19 18 17 15 19 21
48 49 48 45 44 44 40 38 36 35 34 33 31 28 27 25 25 24 22 27 27 27 24 25 23 13 10 6 7 8 6 6 7 10 11 11 9 8 4 1 5 3 5 20 19
53 49 49 50 46 44 43 40 39 36 37 37 32 31 29 27 25 24 23 26 26 26 23 23 21 12 7 8 11 10 7 7 14 13 7 5 4 2 5 6 12 12 19 19 23
55 53 51 51 49 45 44 41 40 37 38 33 30 32 33 30 27 24 24 26 23 23 21 22 19 10 6 6 11 12 5 2 7 3 10 10 8 4 2 3 3 10 15 15 14
58 57 55 54 53 51 48 44 40 39 36 32 28 28 28 32 30 27 24 25 24 20 19 19 15 10 6 5 9 12 6 2 5 4 7 9 9 8 3 4 3 5 7 9 12
53 56 57 56 55 54 52 48 45 39 37 34 31 30 27 27 30 27 25 25 23 20 17 16 12 12 9 9 15 19 10 8 8 5 7 10 6 5 6 6 7 4 6 9 10
58 56 54 54 53 53 51 52 46 45 37 35 36 30 31 29 29 26 25 24 21 18 17 15 11 10 3 6 13 20 13 7 9 5 7 8 9 7 7 4 5 9 5 7 9
61 60 58 57 55 52 51 50 47 48 47 33 35 30 31 33 29 26 26 24 21 15 16 14 11 8 6 8 11 20 15 11 9 6 11 10 11 8 9 5 4 10 8 5 6
65 63 62 61 60 56 52 51 47 47 48 36 35 35 32 31 30 29 28 27 21 16 15 12 10 5 10 7 6 9 19 16 14 10 7 7 6 13 11 10 5 4 8 7 8
70 66 65 64 62 59 54 51 49 45 45 39 34 36 33 34 25 29 32 29 22 19 15 12 11 5 9 11 7 10 13 19 17 12 11 8 7 16 13 13 10 10 10 10 9
72 71 69 68 65 61 58 54 50 45 48 39 34 32 30 32 29 34 32 27 25 22 17 12 10 8 11 12 9 7 12 12 12 12 14 11 9 9 10 17 16 12 14 13 13
66 68 71 71 67 63 61 56 51 52 49 41 37 35 30 29 30 36 37 31 27 22 16 14 13 15 14 15 12 8 11 11 11 14 12 12 12 8 9 15 20 17 19 18 20
71 76 75 70 71 68 64 60 60 53 44 42 39 40 37 32 33 37 39 36 31 24 22 16 19 19 17 17 17 15 16 16 16 13 11 11 10 9 14 14 17 20 29 22 20
72 78 79 75 74 73 71 69 62 51 45 40 43 43 39 37 36 38 40 37 29 26 23 19 21 19 24 23 22 19 21 20 20 19 17 17 15 12 13 17 14 15 16 22 20
52 65 78 76 74 75 76 75 59 50 44 46 45 44 42 40 40 39 43 38 34 28 27 22 23 22 26 26 24 24 25 24 26 25 23 19 17 10 17 17 15 16 19 20 22
62 56 54 76 78 81 83 71 55 56 52 51 48 46 43 41 42 43 43 37 32 30 28 24 24 24 24 28 27 25 27 29 28 27 23 21 16 12 13 21 20 19 20 23 23
62 57 51 63 84 85 82 65 62 62 58 55 50 49 48 44 43 45 45 33 32 31 30 22 26 30 25 27 27 29 30 32 32 28 23 24 14 19 17 20 22 23 21 21 24
60 61 64 60 78 85 77 69 70 68 64 58 50 48 47 50 48 47 45 35 34 34 32 27 28 30 29 28 30 29 28 28 32 30 27 27 17 17 15 18 19 22 22 22 22
64 66 69 64 61 77 76 75 74 72 66 59 49 48 49 49 48 52 41 38 38 38 33 31 30 28 27 24 25 27 24 23 26 31 29 31 25 21 24 22 20 21 22 23 22
66 68 63 61 58 60 77 77 74 77 69 64 54 52 50 45 50 55 51 38 38 36 35 36 33 28 24 24 31 30 31 30 32 29 31 30 28 21 23 23 22 21 21 23 23
67 62 56 57 61 54 75 81 81 76 72 62 56 52 47 47 49 43 42 42 37 34 35 37 32 28 23 23 27 29 26 32 33 33 32 28 29 21 21 24 24 23 24 25 24
66 61 57 55 59 52 71 76 78 77 72 64 55 47 47 42 42 41 49 39 37 36 36 38 33 28 24 22 25 28 24 23 25 24 24 27 24 25 26 27 26 26 28 30 30

GFSSW_500_spd_039.txt.gz
Wind_Speed
38 37 36 37 37 35 34 34 32 32 29 31 29 27 26 25 24 27 27 29 30 30 32 35 39 36 30 21 12 5 11 3 5 10 9 11 7 9 13 16 21 24 26 25 23
40 38 36 38 37 35 34 34 32 30 29 31 29 27 26 26 24 25 27 27 28 29 30 32 36 33 26 18 11 4 3 7 16 10 9 5 9 14 15 16 20 18 24 26 27
41 40 37 38 39 38 35 34 33 30 30 29 29 29 29 27 27 25 26 25 27 27 29 29 32 30 24 15 9 1 6 15 4 6 6 7 9 13 17 17 16 13 18 20 20
43 41 39 38 38 39 38 36 33 31 30 29 28 29 29 29 27 25 24 24 25 24 26 26 28 28 22 13 7 5 7 7 8 10 12 10 10 14 12 18 16 15 15 19 19
44 42 41 39 37 38 37 37 35 35 32 31 29 28 32 26 26 24 23 22 24 23 23 23 25 25 17 14 9 7 7 9 10 9 9 12 13 14 15 17 18 20 18 23 26
45 43 43 42 40 39 36 36 37 36 33 32 31 29 32 28 24 22 20 21 24 22 21 21 20 21 15 13 8 9 5 6 10 11 12 11 11 12 16 21 20 21 17 16 26
50 46 45 45 45 42 39 38 38 36 34 34 34 31 33 32 27 23 20 20 22 20 19 20 20 18 16 12 7 7 3 6 5 4 12 15 12 10 14 14 13 9 13 17 19
56 52 48 48 47 45 42 41 39 37 35 34 34 33 30 32 30 26 23 21 22 21 17 16 19 16 11 9 4 5 1 8 16 11 9 14 11 13 12 10 9 1 8 13 16
52 53 51 52 49 47 46 45 41 39 36 34 35 33 25 25 27 30 28 24 21 21 16 15 15 13 10 6 2 6 8 7 11 4 7 13 5 14 17 11 10 8 10 21 24
48 48 48 50 51 48 47 45 46 42 39 35 35 34 27 26 25 27 31 27 23 21 16 15 12 9 7 5 5 12 9 9 14 3 5 2 6 14 20 11 4 3 7 7 9
50 49 46 46 47 49 49 48 46 47 44 40 34 36 29 28 29 27 26 29 21 22 16 14 13 8 5 12 14 12 18 8 7 6 8 3 3 11 19 13 7 1 2 2 4
56 54 52 49 47 47 45 47 49 48 44 41 38 34 34 31 31 31 28 25 21 22 16 15 11 10 11 14 16 18 12 11 15 14 8 3 6 8 18 10 6 4 2 2 3
63 61 59 56 52 51 50 47 46 47 46 40 38 34 34 34 31 29 27 27 23 24 19 16 12 10 9 10 12 15 12 11 17 12 8 8 5 13 17 13 7 4 6 4 4
67 66 64 62 58 57 54 52 49 49 48 40 37 37 38 34 37 29 24 28 31 23 20 15 14 11 8 10 8 9 13 26 16 12 11 6 13 13 15 18 11 8 8 8 6
73 71 67 65 65 59 59 53 52 52 50 47 39 35 38 38 30 31 25 30 29 25 23 15 15 12 9 11 13 12 18 18 19 11 15 6 5 11 10 20 15 12 10 9 8
74 74 70 68 64 64 61 58 55 53 58 47 41 35 36 35 35 31 33 31 29 31 26 20 16 15 11 19 16 15 14 11 15 10 14 9 10 12 11 11 10 19 12 9 9
65 66 68 63 64 67 65 64 59 64 56 54 47 37 32 34 33 35 33 34 33 29 22 21 16 16 18 18 19 16 12 6 10 14 10 13 15 12 15 7 18 20 14 19 20
56 60 63 61 67 70 70 69 69 66 59 58 51 39 35 35 35 33 33 36 36 33 25 25 20 19 17 19 16 17 13 14 13 14 15 15 16 9 18 19 13 18 22 24 30
47 43 53 63 69 74 78 76 75 64 59 56 49 42 36 39 38 35 34 36 36 32 33 26 22 22 22 22 25 17 21 16 25 22 20 13 13 15 16 19 19 20 21 23 22
47 47 41 46 67 71 81 83 69 63 58 59 53 45 42 43 42 41 39 38 39 35 30 30 23 29 24 26 28 27 19 24 27 20 19 15 16 16 11 18 20 19 20 22 19
48 49 47 49 51 60 79 82 67 65 60 59 52 50 48 42 42 42 39 41 41 40 41 32 30 29 31 25 28 30 28 25 21 20 19 16 14 13 23 18 23 19 18 23 23
54 52 49 57 60 56 62 72 66 65 66 65 59 55 55 50 46 43 41 42 43 41 44 36 34 34 30 24 24 24 26 25 27 23 27 31 25 21 19 19 21 20 24 22 24
64 60 56 60 62 57 47 48 68 73 68 65 62 60 53 49 47 46 43 43 42 46 44 36 41 35 29 26 28 32 27 26 26 28 33 27 23 18 20 19 19 19 22 21 21
70 69 65 64 56 57 53 35 52 74 72 69 67 59 54 42 56 47 48 44 47 45 37 39 42 37 33 25 21 25 29 28 30 32 31 33 26 19 18 21 24 22 28 25 23
76 75 68 64 60 54 56 48 50 68 74 71 71 69 59 53 52 53 47 39 39 40 43 47 44 40 35 31 24 21 22 26 29 29 29 23 25 23 24 26 24 28 33 25 25
77 72 67 60 56 57 53 54 48 59 71 75 72 68 50 43 37 38 45 51 43 47 47 48 46 40 35 34 31 31 33 30 29 28 32 29 27 25 24 31 30 30 30 29 28
74 70 67 62 60 62 58 50 49 50 66 71 71 67 60 41 36 48 36 49 51 51 50 51 47 44 42 35 31 41 33 30 28 28 28 29 25 23 26 28 29 29 31 29 31

GFSSW_500_spd_042.txt.gz
Wind_Speed
36 34 34 33 33 32 33 33 33 33 34 32 30 30 29 28 27 24 24 24 25 26 28 28 29 32 34 26 9 4 10 11 6 10 23 21 11 17 15 14 23 20 23 18 18
39 38 36 36 34 34 33 33 32 31 32 32 32 31 29 27 29 25 26 26 24 24 26 26 27 30 31 23 9 2 9 5 19 25 26 24 17 15 13 15 21 14 22 18 21
41 40 38 37 35 34 34 33 32 31 31 32 33 31 31 27 31 23 28 25 23 22 23 24 26 28 29 23 8 1 5 16 18 24 17 11 12 16 12 16 22 7 9 20 22
41 41 41 39 36 36 35 34 31 32 30 31 31 29 31 29 30 22 25 20 20 20 20 22 22 24 27 19 15 11 9 18 19 23 13 11 14 16 18 16 18 17 15 17 17
46 44 42 41 39 38 36 35 32 33 30 30 32 33 35 29 29 25 23 20 18 19 20 20 20 22 23 11 14 10 11 15 17 13 12 12 14 17 12 18 22 21 22 22 19
48 47 45 42 39 40 38 36 35 33 30 32 33 32 35 29 29 24 25 21 19 20 19 19 18 21 21 17 8 12 7 8 8 12 12 13 15 17 11 13 18 20 24 29 24
47 48 49 47 43 40 41 39 37 36 33 34 34 32 33 29 27 27 25 25 20 20 19 18 16 18 21 19 6 4 4 6 7 18 18 18 25 7 15 20 21 22 27 19 18
48 48 48 48 49 47 43 41 40 37 36 34 34 32 26 31 29 27 26 25 23 21 20 17 16 16 18 18 5 4 4 10 17 18 21 15 17 8 14 24 23 18 17 15 8
49 49 47 47 47 47 48 45 41 40 37 36 35 32 26 29 28 23 20 24 26 24 22 18 16 16 17 16 4 5 9 16 17 16 13 11 20 26 16 20 23 15 16 20 11
45 44 45 44 44 45 46 47 45 41 41 41 38 33 32 28 28 24 22 23 22 23 22 19 15 15 15 15 3 7 14 14 19 24 17 13 21 17 18 23 15 12 15 16 16
46 45 44 43 42 42 42 43 45 45 41 39 43 35 33 31 27 29 24 24 21 19 20 20 17 14 14 13 10 14 13 4 22 20 18 5 24 22 21 20 16 9 6 6 5
49 50 48 46 44 44 43 43 44 41 41 40 43 35 36 31 30 30 29 23 22 17 22 23 17 15 13 12 10 22 17 9 16 19 23 14 2 22 20 19 17 14 6 5 4
54 54 54 52 51 50 48 46 45 43 46 34 38 39 31 37 30 31 29 26 22 23 23 22 20 15 11 12 12 16 24 14 21 18 14 11 3 8 22 21 23 16 11 6 6
60 60 59 57 57 56 54 52 50 47 47 39 34 38 34 34 34 31 29 27 28 24 23 23 19 16 14 12 11 10 11 17 20 13 18 12 10 14 24 22 18 16 10 11 9
65 66 64 61 60 58 60 58 50 51 49 42 40 43 32 37 31 31 30 30 29 24 28 17 20 18 16 12 11 11 18 21 16 21 13 13 12 9 12 17 22 14 11 9 7
68 69 67 64 61 60 61 60 54 53 55 47 48 40 34 34 32 32 37 33 29 28 30 25 23 19 16 16 14 14 18 17 19 18 20 12 14 17 15 17 17 21 11 10 8
59 63 66 65 61 62 64 63 58 61 57 53 53 49 37 35 33 35 36 37 35 33 31 26 29 20 18 19 17 17 14 13 13 11 11 7 15 13 24 4 3 17 20 19 12
39 47 54 59 59 62 66 66 69 60 61 57 55 53 44 40 33 32 36 35 36 36 31 27 28 24 20 19 19 18 16 15 21 20 19 26 18 13 16 19 15 14 14 21 24
43 38 38 42 51 65 66 72 68 66 65 57 57 55 51 39 35 36 36 33 35 35 36 33 29 21 25 21 24 20 22 9 23 21 17 4 8 10 16 21 21 21 21 20 23
39 43 42 39 41 48 63 73 66 65 62 58 53 57 48 38 38 38 39 37 35 36 35 35 29 26 28 23 28 29 18 23 29 23 19 16 16 16 25 13 24 20 22 21 21
40 39 37 45 50 50 49 51 57 66 65 64 65 53 50 35 39 40 41 39 37 37 37 38 34 25 26 35 27 30 32 28 29 26 28 24 17 26 21 21 10 23 24 26 19
46 44 39 45 48 48 43 29 27 59 64 63 60 56 43 37 35 33 42 44 36 38 39 41 39 38 31 34 31 29 28 32 31 28 26 27 21 20 17 18 19 20 19 22 16
54 52 50 52 48 44 36 30 35 37 59 64 65 62 57 48 45 44 30 41 37 36 40 40 44 40 41 28 36 28 28 30 35 30 35 33 23 28 28 25 24 26 24 24 20
64 64 61 59 52 46 43 37 35 40 40 54 60 66 66 56 40 50 46 30 37 46 38 44 47 46 47 41 26 24 27 28 35 35 29 38 31 30 22 23 28 21 28 31 27
65 67 62 62 51 47 50 41 38 42 44 45 59 65 61 55 47 47 50 48 44 51 46 47 53 46 47 36 35 29 26 23 29 25 34 36 36 30 27 24 29 11 24 35 34
69 66 63 61 58 56 50 46 43 41 46 49 51 59 63 62 50 46 51 32 48 39 47 45 51 48 47 42 42 36 31 27 25 28 33 31 29 23 21 31 33 37 29 27 28
68 62 64 64 64 65 58 47 43 46 49 45 41 51 63 59 56 58 30 37 42 49 41 47 49 52 54 47 44 47 43 35 28 26 30 30 29 30 31 28 30 37 38 31 30

GFSSW_500_spd_045.txt.gz
Wind_Speed
37 37 36 33 33 32 31 28 29 30 30 29 29 30 29 30 30 29 26 26 27 28 25 23 21 21 21 26 25 12 4 0 4 10 24 30 23 14 22 22 14 12 18 18 15
40 38 38 37 36 34 32 30 30 29 30 28 28 28 29 30 31 30 26 26 27 28 23 20 18 20 20 23 21 11 8 5 3 17 27 33 35 29 20 21 15 14 14 17 17
41 41 41 42 40 37 34 31 31 30 30 29 28 27 30 29 29 25 27 25 28 22 18 18 16 19 21 21 16 9 10 12 9 22 26 24 33 12 17 18 12 13 13 15 16
44 44 43 41 39 37 35 33 33 32 29 30 28 27 31 26 28 24 23 23 23 18 18 17 15 18 21 24 24 8 10 14 15 19 24 19 21 21 17 12 13 18 18 17 20
46 46 45 44 42 39 35 34 34 33 30 31 31 27 28 25 28 23 26 23 21 20 18 17 15 15 19 22 25 10 9 8 8 9 12 15 20 26 24 14 19 16 16 20 24
50 47 46 44 43 41 38 35 36 35 33 32 32 29 24 22 29 23 24 21 19 21 19 17 16 15 16 19 22 12 8 2 2 8 14 16 21 19 17 14 19 24 26 20 15
63 51 45 45 44 41 41 39 37 36 34 35 35 33 23 22 29 19 23 23 22 22 21 18 18 15 17 18 20 11 6 4 5 9 15 14 10 14 17 17 23 24 26 26 9
56 57 56 49 44 42 40 41 41 37 35 36 37 35 21 30 28 22 22 23 22 22 21 21 18 15 16 17 17 9 8 8 10 12 15 23 19 20 13 23 27 23 24 22 9
53 51 51 49 46 43 40 40 41 41 40 39 38 36 25 28 26 24 20 23 19 19 21 22 19 15 14 16 16 11 8 6 11 11 18 24 16 16 22 21 25 20 22 21 23
37 39 40 44 46 43 40 40 42 40 44 42 42 38 34 28 27 23 23 23 19 18 15 20 19 14 12 15 13 13 14 5 12 10 19 21 16 13 16 18 20 20 18 16 17
35 35 37 39 37 36 39 41 43 44 45 38 44 40 35 33 29 27 25 25 21 20 17 22 18 11 12 14 16 12 8 6 7 16 17 23 19 11 7 13 20 20 7 6 8
39 41 40 40 36 38 38 36 39 46 43 37 40 37 36 34 30 30 29 27 25 19 26 20 12 15 14 14 15 12 11 11 5 10 19 19 15 19 10 12 15 20 15 8 7
47 44 44 43 42 42 42 39 40 41 42 33 33 38 30 43 28 31 31 29 26 26 25 22 14 20 17 17 13 11 10 15 17 19 25 15 8 19 11 14 9 17 8 9 8
48 48 46 46 46 46 45 43 44 42 41 35 32 36 32 33 35 27 30 30 30 26 24 25 20 22 19 14 13 10 14 19 28 27 25 19 11 18 17 15 7 7 8 5 2
52 52 50 49 49 48 48 47 46 45 45 38 38 40 34 35 28 26 30 32 31 23 29 17 20 21 19 12 15 10 13 16 22 25 19 17 17 8 11 19 15 5 10 4 4
56 57 56 53 49 50 50 50 49 48 48 45 44 39 33 31 31 28 34 32 31 33 34 27 25 26 19 18 18 16 14 20 21 24 20 12 19 9 22 20 16 23 12 10 4
57 58 61 58 50 52 52 53 53 54 51 49 49 48 41 35 30 30 29 33 31 32 31 29 28 25 24 24 21 20 17 16 19 20 6 20 22 16 15 23 14 16 12 9 10
50 52 58 58 53 54 54 56 59 55 53 55 52 53 51 43 40 32 32 32 34 31 33 33 30 27 22 25 21 23 19 18 17 17 16 18 17 13 11 11 18 18 16 11 15
44 46 47 43 46 47 53 59 56 58 56 53 55 55 55 47 41 38 38 33 30 28 34 34 30 24 25 24 23 20 21 17 23 23 22 19 20 18 12 20 22 20 20 22 20
41 43 41 42 42 41 47 56 56 56 55 60 60 56 38 43 38 39 38 36 35 32 32 33 33 30 28 26 27 26 22 26 26 26 19 13 13 19 19 21 25 21 19 18 18
42 40 37 42 48 48 38 26 30 47 54 55 55 53 63 49 40 35 38 36 36 36 29 33 36 35 35 36 32 28 32 31 26 30 26 25 17 18 22 24 28 26 27 15 13
44 38 37 39 41 40 26 21 20 24 32 50 54 61 51 57 37 39 43 45 32 36 35 32 38 41 36 37 32 32 32 31 35 28 31 32 24 29 23 26 28 21 25 19 16
44 39 40 41 36 29 22 21 26 30 32 32 42 53 53 50 54 52 44 46 41 27 35 31 40 44 41 36 42 38 36 30 33 37 36 38 24 20 29 23 26 20 20 28 22
49 46 44 42 37 33 31 28 26 29 33 30 33 39 59 53 49 49 46 45 45 45 42 35 40 45 45 40 37 40 33 33 33 41 37 42 34 31 28 17 21 27 26 31 35
55 51 48 42 35 40 39 35 30 29 32 35 32 31 40 60 54 51 48 42 42 43 45 44 44 45 46 40 44 38 32 35 30 32 38 32 33 27 32 33 31 36 34 32 32
57 54 52 48 48 45 45 39 35 31 36 38 30 21 27 60 63 51 55 45 39 41 47 49 47 48 49 46 45 48 48 31 34 31 28 34 32 27 27 28 26 27 32 33 27
59 55 57 55 53 50 39 36 36 42 40 41 32 30 29 27 53 66 65 57 45 39 42 50 48 49 48 45 43 52 50 48 41 38 29 34 32 28 27 30 32 30 36 34 35

GFSSW_500_spd_048.txt.gz
Wind_Speed
50 47 46 43 40 38 36 34 34 31 30 28 26 28 28 27 27 26 26 27 28 26 27 27 19 18 15 18 22 24 16 18 16 16 14 18 22 23 21 20 24 10 13 18 11
50 47 45 43 41 39 38 35 35 33 30 28 27 27 28 24 24 25 24 27 27 27 24 21 17 14 14 18 21 20 17 18 15 19 18 21 21 25 23 23 24 11 17 16 15
50 47 45 45 41 41 40 39 36 35 33 30 27 27 29 24 22 22 24 24 24 23 23 17 17 13 12 17 20 23 18 16 13 17 18 18 17 20 20 22 15 15 18 18 19
54 49 45 45 43 42 42 43 41 38 35 32 30 28 29 22 22 23 23 22 24 23 19 17 15 13 10 14 18 20 18 11 6 10 13 15 17 16 13 12 13 18 18 20 21
57 57 53 48 45 43 42 41 40 38 36 33 33 30 29 20 23 19 23 22 23 23 19 17 14 13 13 15 19 22 14 5 2 4 7 13 15 20 15 9 14 21 26 29 28
65 55 51 51 50 46 44 44 43 39 37 35 35 33 28 19 29 22 20 22 20 22 21 18 16 12 13 15 18 20 8 3 4 9 9 11 18 21 19 20 20 23 27 29 12
57 59 59 56 54 51 48 46 45 42 39 37 37 35 27 25 30 20 22 22 20 22 21 22 19 13 12 14 17 17 7 8 5 9 11 13 15 17 17 23 22 21 20 18 7
59 58 61 60 57 58 51 45 45 44 41 41 37 36 24 33 31 22 23 24 22 22 22 21 19 17 15 14 16 15 10 8 6 7 8 12 11 12 17 19 21 16 19 16 11
57 56 61 60 59 56 53 48 48 44 43 44 40 35 25 32 31 27 21 22 23 23 22 18 16 17 16 14 15 16 12 13 14 11 5 9 9 13 11 14 19 15 15 15 21
44 46 53 60 58 56 54 54 58 47 45 43 42 40 31 33 31 28 25 25 24 23 20 18 16 15 16 14 16 14 12 14 17 14 6 10 9 11 8 8 15 17 9 8 16
21 24 28 33 32 39 44 42 49 51 47 43 44 39 34 37 34 32 30 27 26 20 18 23 13 9 20 18 17 15 14 16 19 13 12 9 6 8 1 8 10 14 8 6 5
29 30 25 27 23 28 27 31 43 49 47 42 43 37 32 37 36 34 34 32 29 21 25 25 11 18 23 20 19 16 14 15 19 14 13 11 7 8 1 5 10 11 5 4 7
35 32 30 28 33 29 33 32 36 47 44 32 36 41 29 44 31 34 36 34 32 30 26 25 14 26 23 23 21 16 16 13 14 20 23 21 11 16 8 2 3 5 4 3 5
37 38 36 35 34 37 35 35 35 34 40 28 32 38 36 35 38 28 34 34 35 31 28 30 24 27 26 22 21 19 18 13 19 21 26 20 19 14 12 8 2 1 6 4 4
43 41 40 41 42 42 39 38 35 35 40 31 34 36 36 36 27 25 29 37 35 28 34 23 24 26 27 20 25 21 19 14 16 22 21 13 23 14 18 6 4 4 6 3 2
50 47 45 42 44 43 40 40 40 39 43 33 32 33 32 33 30 30 34 32 32 35 38 32 29 32 28 26 27 22 18 19 18 19 18 13 23 14 19 12 6 6 2 3 2
54 54 52 45 45 45 43 42 43 42 41 40 41 37 35 30 28 27 32 35 32 33 34 30 32 31 31 30 27 26 21 23 22 21 13 17 22 9 18 18 12 5 5 2 2
54 55 56 47 49 48 45 45 45 44 42 47 43 45 41 39 34 33 33 34 31 30 31 33 32 30 27 26 26 27 25 24 23 22 18 22 19 7 20 18 16 9 6 7 6
53 54 54 43 49 50 52 51 47 45 48 50 51 51 49 43 40 42 41 37 34 29 30 32 32 28 30 27 28 27 31 22 29 25 21 21 20 19 20 20 19 15 8 8 8
50 50 44 45 48 49 56 52 51 48 46 50 46 51 51 46 43 43 42 39 39 35 30 28 32 29 32 31 34 31 24 29 32 26 24 20 27 18 25 23 18 18 11 13 11
44 46 39 43 45 51 53 50 42 38 40 46 46 48 50 44 48 46 44 46 41 37 35 31 32 27 35 41 37 35 34 33 35 33 29 21 23 20 22 13 20 20 17 24 16
37 42 41 42 43 44 44 39 33 29 33 37 48 52 54 47 45 46 39 46 48 47 45 37 30 33 35 38 39 38 36 36 40 36 29 30 23 25 21 26 26 24 24 25 18
39 38 40 40 39 35 34 34 35 34 29 26 27 41 50 52 48 49 45 44 48 50 49 44 42 39 37 41 42 44 42 40 38 39 37 37 28 25 27 23 26 27 33 26 23
41 40 40 37 33 34 36 35 34 33 33 32 26 23 30 51 55 50 47 45 47 44 51 48 51 49 45 38 42 44 42 40 40 41 39 38 29 31 33 25 22 28 32 37 32
44 40 37 33 34 36 34 30 28 25 27 28 25 21 24 24 49 57 49 48 44 46 42 40 46 51 51 44 44 44 42 39 42 41 43 36 35 28 33 33 33 32 37 39 33
41 42 40 38 37 35 36 31 31 32 29 26 23 22 22 18 29 57 61 60 52 42 44 43 35 47 54 52 48 48 46 45 45 44 44 43 39 30 32 32 32 30 36 38 37
42 43 43 42 41 39 31 30 35 38 36 31 30 28 25 23 28 32 55 55 55 48 59 50 43 50 52 49 49 54 50 49 46 46 46 46 38 24 31 33 36 36 38 39 37

GFSSW_500_spd_054.txt.gz
Wind_Speed
59 62 62 60 58 55 53 52 49 50 49 47 45 40 38 37 35 35 31 31 31 27 27 27 25 24 24 25 16 17 21 23 23 16 16 14 15 14 9 10 11 10 15 15 18
59 59 59 59 61 56 53 52 48 47 48 46 47 43 39 38 36 35 32 30 30 27 26 26 23 23 23 19 15 16 20 22 22 14 10 10 15 11 9 10 7 9 14 16 17
56 57 57 56 57 57 55 52 51 47 47 47 47 46 41 38 35 34 33 30 30 27 26 24 21 20 23 18 16 14 19 18 22 12 8 7 10 7 7 10 13 14 18 21 22
57 57 56 56 57 57 53 54 51 50 49 48 47 47 43 40 33 33 34 31 28 26 27 25 20 20 22 19 16 14 18 17 19 12 7 8 8 9 6 7 11 15 20 25 24
52 55 58 58 58 58 58 56 53 51 50 49 47 48 44 39 31 36 35 31 31 27 28 27 22 22 21 19 18 15 18 16 19 14 8 13 12 11 6 11 11 12 19 22 21
45 51 51 55 58 59 58 54 55 55 52 51 47 47 45 38 35 36 35 30 31 29 27 30 27 23 21 19 21 18 17 17 17 16 13 17 13 8 8 11 11 13 18 19 15
34 41 43 44 45 52 56 52 52 52 56 51 52 50 43 37 37 36 36 33 33 31 29 31 28 24 20 21 24 21 18 19 17 14 17 19 10 8 8 10 10 11 14 19 11
32 37 38 39 36 44 46 50 50 47 52 59 56 51 45 40 35 36 39 35 35 33 33 32 29 25 20 22 26 24 21 22 19 14 17 20 12 6 6 8 9 9 9 11 8
32 32 33 35 33 38 42 46 44 46 46 56 56 52 46 42 40 37 40 36 38 36 35 33 29 28 22 21 27 25 24 26 21 17 16 20 18 13 5 7 8 9 6 7 7
32 32 32 32 31 24 29 39 43 39 47 47 44 45 45 43 43 40 40 38 39 38 38 32 30 28 22 20 20 28 29 27 21 21 17 18 18 19 12 9 9 11 6 3 5
34 34 32 31 29 28 25 30 36 40 39 45 48 53 48 43 44 42 43 40 40 39 35 34 31 20 18 21 26 34 29 24 22 25 20 19 19 23 20 12 10 12 9 6 6
36 33 32 31 31 28 25 23 30 37 42 46 48 44 48 47 47 46 45 43 43 40 37 37 24 21 25 24 23 26 27 23 23 25 25 21 18 17 22 12 9 12 9 9 8
38 36 31 30 33 33 28 22 20 31 41 37 46 45 49 52 47 49 47 46 43 41 40 35 27 28 28 27 25 22 20 23 23 28 27 25 18 20 20 12 10 8 8 9 8
41 39 37 31 31 34 32 29 26 20 29 20 34 41 42 49 48 46 47 46 47 43 39 40 35 33 32 30 28 19 22 27 26 28 26 30 17 21 18 14 12 8 6 7 8
45 43 41 37 32 33 32 34 31 22 30 18 28 27 38 42 44 42 44 44 46 44 44 41 34 36 35 27 31 14 29 29 30 28 28 25 25 10 18 13 15 12 10 7 9
49 48 45 42 36 37 33 35 35 32 33 22 22 25 27 39 41 39 39 38 40 42 47 44 39 41 34 32 36 27 34 33 33 29 28 21 30 14 14 15 18 15 13 12 11
53 52 49 44 40 37 38 38 40 40 33 30 27 21 21 27 34 34 36 42 37 41 45 41 41 41 39 39 39 31 34 35 35 30 26 23 33 17 13 14 18 19 16 11 11
57 57 52 46 44 42 42 42 42 44 41 41 32 26 27 23 31 31 38 42 41 39 37 38 39 39 37 36 33 32 34 36 33 35 30 29 33 21 15 15 14 20 19 14 13
60 60 54 48 47 46 47 48 47 48 46 43 42 41 29 32 26 29 31 38 39 39 39 37 36 37 37 33 35 35 38 30 35 36 36 32 30 23 19 17 10 16 22 16 13
62 62 59 55 53 51 52 51 52 52 52 46 43 42 39 33 34 31 34 35 36 42 40 38 36 35 37 37 39 40 37 37 39 40 40 36 29 22 23 17 16 14 19 18 17
66 66 60 58 56 57 55 55 56 54 54 47 43 40 38 39 39 38 38 39 38 39 39 40 42 38 40 40 39 38 40 40 39 41 41 38 29 21 21 22 19 18 22 18 19
56 59 53 52 56 59 56 56 57 51 55 48 45 42 41 42 41 39 42 44 42 40 41 40 41 39 43 42 37 39 41 43 44 42 41 39 35 23 18 17 19 24 19 25 21
47 46 44 48 53 54 54 52 51 47 47 46 42 44 44 42 44 47 47 48 46 46 45 44 46 44 39 41 44 44 45 44 44 44 43 42 40 22 24 23 20 20 19 21 27
44 44 44 46 47 46 46 44 43 40 39 39 37 41 47 49 48 48 48 50 49 47 47 47 48 47 45 42 45 45 45 46 46 46 46 43 41 28 25 24 25 28 27 25 26
45 43 42 43 41 40 39 35 34 32 32 31 31 39 44 51 56 52 50 53 51 48 49 50 49 50 49 45 47 47 48 47 48 48 46 44 44 35 32 32 30 31 35 32 31
43 41 38 37 35 31 33 29 27 29 28 28 29 34 39 40 42 51 53 48 47 49 45 48 45 45 48 49 46 48 49 48 49 51 50 49 46 41 34 33 36 30 29 34 31
36 33 32 31 30 34 29 24 23 26 27 27 30 32 36 36 33 34 48 56 49 50 50 47 47 47 47 45 47 49 50 50 53 52 53 53 51 46 42 37 35 39 36 35 34

GFSSW_500_spd_060.txt.gz
Wind_Speed
42 40 39 37 38 39 40 40 44 47 50 53 53 56 58 54 47 46 41 42 41 37 35 35 32 29 29 23 20 21 23 20 18 17 18 18 17 18 17 16 17 20 22 18 20
43 41 40 40 40 40 42 43 47 49 52 53 51 49 52 51 46 46 40 39 40 36 35 31 31 30 28 24 20 19 20 20 19 18 17 17 17 18 14 13 15 15 17 20 24
43 42 41 42 41 45 46 47 50 52 54 55 49 47 48 49 46 47 41 36 37 36 35 33 30 29 27 25 19 18 18 21 21 19 18 16 16 17 15 12 14 16 19 21 26
43 44 43 44 45 47 49 48 49 49 50 50 46 46 48 47 49 46 43 37 35 35 33 32 30 28 27 25 21 18 18 21 21 20 17 16 14 17 20 18 16 16 19 24 25
43 46 45 46 45 45 42 42 43 44 48 47 45 45 48 47 48 47 43 40 35 35 34 33 29 30 29 27 23 17 17 21 22 22 16 17 14 14 20 19 17 17 23 23 24
44 45 46 44 42 40 39 40 42 46 47 51 44 45 48 50 51 56 42 42 38 37 35 33 31 33 30 27 23 19 19 22 23 24 17 17 15 15 19 15 17 18 19 20 22
44 45 41 40 39 39 41 41 42 42 43 45 45 40 41 49 49 53 46 45 41 38 37 36 35 32 30 29 26 21 20 23 24 25 20 18 14 16 15 15 16 18 20 20 21
43 42 39 38 37 40 41 42 40 41 42 43 44 41 40 46 49 49 46 43 43 41 38 37 36 33 30 29 26 23 22 21 23 27 23 17 14 17 15 15 16 17 17 20 19
42 42 40 38 39 39 40 39 39 40 39 39 41 36 37 38 46 46 46 44 47 44 41 40 37 33 31 30 27 25 20 19 25 27 25 16 13 20 14 16 17 18 18 18 21
43 42 41 39 39 39 39 39 38 37 37 36 36 28 33 36 41 45 45 42 49 48 45 41 38 34 32 31 22 22 19 22 27 26 23 18 12 21 14 14 18 20 19 18 21
45 44 42 41 40 40 38 36 38 34 34 32 34 27 30 33 37 43 41 40 40 47 47 38 39 37 26 28 26 24 27 25 27 27 21 17 13 16 17 13 17 16 14 17 20
48 46 43 41 41 39 38 35 35 33 24 38 31 29 22 29 34 41 42 40 40 44 40 43 42 31 31 33 30 28 30 26 25 24 25 20 16 14 18 15 16 13 14 17 19
49 48 43 41 40 40 38 37 36 32 25 26 29 33 26 25 33 40 34 36 44 48 46 44 36 34 34 35 32 28 29 24 22 23 26 21 19 16 16 13 16 16 15 17 17
50 48 44 41 40 39 38 38 37 33 28 27 26 21 25 20 14 26 27 32 45 50 46 44 40 37 38 37 31 32 28 28 25 25 25 22 20 10 12 14 16 19 16 18 16
50 48 45 42 41 40 41 39 38 36 32 26 24 20 20 20 16 21 23 32 46 48 46 42 42 39 36 31 33 26 35 30 27 28 29 23 20 11 12 16 16 18 19 21 17
51 49 46 44 43 42 40 40 38 37 34 28 24 23 23 21 17 13 20 27 33 42 45 41 42 42 42 36 35 36 38 33 31 32 30 24 18 13 9 15 17 19 21 19 16
51 50 46 46 45 44 43 40 40 37 33 30 25 24 22 24 17 16 17 18 28 36 41 40 43 42 42 41 39 39 38 35 36 41 29 31 17 17 13 13 17 17 17 17 18
52 49 48 48 46 46 45 42 41 40 33 30 26 27 24 21 22 16 17 21 20 31 37 36 40 42 46 41 36 34 34 35 40 40 30 36 27 18 14 13 16 20 18 17 19
52 50 48 47 48 47 46 45 42 41 37 32 28 26 29 27 22 22 18 20 22 21 37 37 35 38 46 44 39 39 45 40 40 41 37 39 34 17 18 15 12 15 18 17 20
53 50 48 50 48 49 48 46 43 41 42 37 32 29 28 29 28 26 25 23 23 22 31 34 34 32 32 41 43 43 45 42 43 43 42 38 34 20 17 17 12 15 17 22 20
51 51 49 49 51 51 50 47 45 42 44 41 37 33 30 31 30 33 32 27 26 23 25 28 29 33 31 35 33 39 42 42 44 43 40 34 31 23 21 18 14 16 17 18 21
48 47 48 50 51 51 50 47 47 42 44 45 41 38 33 33 35 32 34 36 30 27 24 24 28 28 31 31 31 33 37 39 42 41 41 39 32 31 21 16 15 18 19 19 19
49 45 47 49 50 48 47 48 48 46 42 41 43 41 37 36 38 39 35 35 33 31 28 24 30 31 30 37 37 33 34 36 39 39 44 39 38 34 27 21 19 20 22 22 21
50 47 46 48 46 47 46 45 44 42 43 44 45 42 41 39 40 41 40 36 34 35 32 32 24 30 34 37 37 32 32 32 34 36 36 37 37 35 28 28 27 28 28 26 28
48 45 45 45 44 44 44 45 43 44 41 42 43 39 39 40 40 42 41 42 41 41 38 34 34 28 32 34 36 35 34 33 35 34 36 36 37 35 32 27 29 28 28 31 33
47 45 45 43 41 41 43 42 42 36 36 35 32 32 34 38 41 48 46 46 48 44 42 44 37 34 32 30 32 34 32 29 30 31 35 36 37 39 35 33 32 33 31 32 36
43 42 41 39 38 39 39 32 30 28 31 29 26 28 27 32 40 45 51 51 50 48 46 42 40 39 35 35 36 36 31 31 33 31 32 34 37 40 39 38 36 34 37 37 35

GFSSW_500_spd_063.txt.gz
Wind_Speed
43 43 42 42 41 42 42 41 42 42 41 43 42 44 44 45 46 47 46 51 49 47 45 45 42 35 36 36 29 27 26 20 17 22 18 27 26 26 20 20 21 18 15 14 19
45 45 43 44 44 44 43 42 44 42 42 42 44 46 48 47 47 43 49 45 46 46 43 41 40 36 36 35 32 28 26 19 19 24 22 25 27 25 21 20 21 13 15 16 20
47 47 46 43 44 44 44 45 43 42 43 45 45 46 47 48 45 49 45 44 46 45 44 40 40 37 34 32 29 28 24 19 25 22 23 22 26 26 20 20 24 18 17 19 23
48 48 45 43 44 44 45 45 43 44 45 44 44 46 49 44 47 49 45 45 45 46 44 38 38 35 33 31 29 32 26 24 24 25 23 21 24 24 20 20 22 21 18 21 24
47 44 43 43 43 44 45 45 46 48 46 42 44 44 45 44 44 44 48 47 45 51 41 40 38 35 35 32 32 31 29 24 26 25 23 22 21 21 20 19 18 16 15 19 19
46 43 40 42 44 43 46 47 48 46 44 42 41 43 47 46 43 42 46 48 48 50 44 42 39 37 36 36 34 32 31 25 25 25 25 22 20 21 20 18 17 14 13 18 19
44 43 42 42 43 43 45 48 48 46 44 41 40 45 48 47 45 42 43 50 49 47 47 45 43 41 39 36 33 32 31 27 25 25 24 24 18 21 21 18 17 14 13 15 16
42 43 44 43 42 43 44 46 45 46 44 40 42 45 45 45 48 41 42 51 46 39 46 44 44 43 42 39 34 33 32 26 23 24 24 24 16 20 23 18 16 14 14 15 15
44 44 43 44 43 42 43 43 45 44 42 40 42 45 44 41 42 37 38 46 44 45 52 48 46 44 41 37 34 32 28 25 23 24 23 21 18 21 22 18 18 16 14 14 17
44 45 43 44 44 42 42 44 43 44 41 40 42 43 40 39 43 34 36 38 42 45 53 49 47 45 43 41 34 30 28 22 22 21 25 22 18 21 26 18 19 17 15 14 16
45 44 44 44 45 44 44 43 45 44 38 39 41 37 40 35 39 30 29 34 38 41 39 51 51 48 43 39 32 32 21 19 24 20 28 20 19 18 22 18 21 18 17 14 15
47 46 45 45 45 45 45 44 43 43 36 37 38 36 35 36 30 29 27 34 40 37 42 56 53 50 46 40 37 34 28 28 27 25 25 21 22 21 23 20 20 21 19 16 14
49 48 49 49 47 47 46 44 42 41 38 37 37 34 34 29 25 29 22 30 36 35 41 46 50 49 48 43 39 32 29 28 28 22 25 23 24 22 22 23 21 19 19 19 11
51 51 50 51 47 47 45 43 40 39 38 38 35 36 30 27 26 27 18 26 34 35 36 42 49 50 46 43 40 33 29 29 34 28 26 19 22 21 20 22 22 21 17 18 12
52 52 51 50 48 46 44 41 39 39 36 37 33 32 29 26 26 26 25 19 26 34 40 41 46 46 45 43 39 32 33 36 36 27 28 28 23 14 16 19 22 22 19 18 13
53 51 51 49 47 47 44 42 40 39 41 35 33 31 29 24 24 25 22 17 26 31 37 46 47 51 45 42 40 34 38 39 35 26 33 26 24 15 11 16 19 23 19 19 11
53 51 49 48 46 45 44 43 41 39 38 36 31 29 28 25 26 21 22 21 19 27 36 43 51 49 44 42 41 40 38 34 31 31 31 26 23 20 15 20 20 20 19 17 12
53 50 49 47 46 44 44 44 44 42 37 34 31 29 27 24 25 23 21 21 23 14 22 35 47 48 46 48 44 40 39 37 30 28 29 27 29 17 19 19 22 21 20 18 11
53 51 48 46 45 46 45 47 42 40 37 34 33 29 29 25 25 25 23 22 22 17 16 22 30 35 43 44 46 41 42 35 30 22 30 26 26 23 26 18 17 19 22 20 16
55 52 48 47 46 47 47 46 41 39 37 36 34 32 27 29 25 25 28 27 23 22 17 13 25 30 35 39 44 43 35 37 37 35 31 24 14 14 24 20 18 20 21 23 18
53 51 50 50 51 51 50 44 41 41 39 37 37 34 31 30 28 27 28 33 26 23 22 16 14 26 32 37 36 40 44 42 39 43 32 29 25 25 28 23 19 20 24 25 22
56 51 48 50 51 50 48 43 42 41 39 39 37 36 33 33 31 29 31 33 28 25 23 22 18 19 16 23 29 32 40 40 37 29 37 36 25 22 26 29 24 19 20 24 24
57 53 50 48 47 46 44 43 42 40 40 39 38 38 36 33 33 33 33 33 29 31 28 30 22 15 18 22 30 35 27 29 35 40 26 29 33 25 21 30 26 26 26 25 25
53 52 50 50 44 41 40 41 40 39 40 39 37 36 36 34 36 36 34 34 28 28 28 31 28 22 25 25 16 30 25 32 33 34 35 36 29 25 27 34 34 29 24 24 24
51 48 46 46 43 41 39 38 38 38 39 38 38 36 34 34 34 35 38 38 34 34 33 30 26 26 23 24 32 23 30 33 31 27 30 28 27 31 35 36 27 28 31 31 31
46 43 43 43 41 39 38 37 35 35 36 36 37 36 36 38 37 36 40 43 41 41 39 32 28 27 28 24 23 25 25 24 24 22 21 20 23 18 33 29 27 27 27 32 35
41 41 43 43 40 39 37 34 33 34 34 34 36 37 36 32 38 40 40 44 47 46 46 40 36 30 33 27 27 25 24 25 24 25 22 20 20 31 31 30 29 30 30 30 30

GFSSW_500_spd_066.txt.gz
Wind_Speed
42 40 41 43 42 43 47 46 45 44 44 43 44 47 47 46 46 48 45 46 45 46 46 47 50 45 45 43 40 34 36 31 24 23 11 33 35 27 28 22 26 25 19 22 19
48 47 49 50 51 46 46 48 48 46 44 44 46 46 44 44 45 44 43 45 45 44 46 45 45 45 46 43 41 37 34 28 23 23 21 26 34 27 26 23 25 24 20 20 24
47 49 52 54 55 56 52 47 48 46 44 44 46 46 44 43 46 42 44 45 47 45 46 46 43 45 48 45 41 37 33 27 25 20 33 30 26 29 26 20 24 23 18 30 19
51 53 53 52 53 50 48 47 46 47 45 45 46 47 45 46 44 43 45 45 42 47 46 44 42 45 46 46 40 39 32 30 26 33 33 27 29 27 25 21 24 21 15 22 20
53 53 51 49 49 46 44 44 42 41 44 45 45 46 48 47 47 44 44 41 44 45 46 44 44 44 44 42 39 37 32 32 29 33 32 27 28 26 23 21 25 19 17 17 17
51 51 49 45 42 41 41 41 40 41 42 44 45 47 49 44 46 49 45 42 44 43 44 47 45 47 44 42 41 37 34 34 30 33 32 28 27 28 20 21 21 17 19 18 15
50 48 46 42 39 39 38 40 39 40 41 43 46 48 47 46 48 46 46 43 46 44 42 49 46 48 48 42 41 41 38 42 34 31 29 29 28 23 21 22 20 18 18 17 14
49 46 43 41 39 38 39 39 39 41 42 43 46 50 45 45 44 44 44 43 49 43 40 47 45 43 45 46 45 46 42 38 29 31 27 30 20 20 22 23 18 18 19 17 13
45 43 43 42 39 39 37 39 39 39 42 45 46 46 46 45 43 41 42 43 48 36 34 44 46 38 53 46 46 44 41 36 30 28 25 31 20 19 21 23 21 19 21 18 16
44 43 44 42 42 39 39 40 41 41 41 42 46 46 42 41 41 40 40 39 45 31 30 38 42 39 46 46 47 39 36 30 26 20 21 25 25 18 23 25 21 19 20 21 16
48 45 44 44 44 42 39 40 44 43 39 42 44 42 40 44 38 39 37 34 39 30 28 38 42 50 48 48 45 43 40 36 19 15 19 28 26 22 21 23 23 21 17 19 19
47 48 48 45 44 43 42 41 41 43 41 42 39 39 38 39 36 39 32 32 37 31 28 39 43 37 52 49 45 40 37 32 23 16 28 28 29 21 23 23 19 24 21 17 17
47 48 47 46 44 43 43 43 43 42 43 39 39 36 37 36 36 36 27 31 37 29 29 37 36 42 53 52 49 44 43 38 31 27 17 30 27 22 22 25 24 21 24 21 18
48 47 47 47 47 46 45 45 44 43 43 43 37 35 33 36 32 30 25 29 32 26 27 36 32 41 47 53 50 50 47 39 34 31 29 19 22 16 18 21 24 22 26 19 20
50 49 50 48 48 47 47 46 45 42 38 43 38 34 31 33 31 30 24 25 25 31 31 33 36 38 48 52 53 53 46 43 38 35 34 31 26 20 18 16 17 22 23 21 15
51 49 50 49 48 47 47 45 43 39 39 40 38 33 33 34 31 28 24 25 20 27 22 32 28 32 43 46 54 48 47 44 40 40 40 28 29 23 12 7 14 21 28 20 20
59 55 50 48 48 44 46 42 41 39 38 39 36 31 30 31 29 28 23 24 23 20 26 26 33 36 35 45 51 51 46 41 41 42 37 25 28 22 18 9 19 23 20 18 20
61 57 52 49 47 45 43 42 43 38 36 40 36 32 31 30 28 26 25 24 22 17 23 20 27 33 34 36 42 48 43 45 32 31 25 25 30 20 15 18 29 29 20 19 21
61 58 54 49 45 46 44 43 40 36 38 43 31 32 31 32 26 26 25 25 22 19 17 21 16 26 37 37 43 42 42 36 21 24 27 28 21 13 20 19 14 20 21 22 24
51 53 52 49 48 48 46 42 40 40 42 36 31 32 31 30 27 24 21 26 24 20 19 15 16 21 28 39 41 45 34 38 36 32 28 25 22 22 19 22 19 24 23 25 22
49 49 47 50 49 51 48 42 41 43 41 35 33 35 34 33 30 26 27 24 24 23 19 16 18 15 19 28 30 38 39 38 40 38 26 27 25 19 23 21 22 24 27 23 26
50 49 47 48 51 50 46 43 44 43 42 37 36 37 35 35 32 28 26 32 26 24 20 19 19 17 15 14 26 30 32 36 34 30 38 38 28 25 26 29 31 23 23 29 30
41 45 47 45 49 48 44 45 46 43 41 40 38 37 36 35 33 30 28 35 25 26 23 24 22 17 19 22 20 23 32 37 34 36 33 37 35 32 38 36 34 37 35 35 35
40 38 45 42 41 40 42 42 42 41 40 40 38 37 36 35 33 32 32 34 26 27 27 24 23 24 17 17 12 20 26 26 35 34 31 31 29 26 36 34 39 38 32 33 33
41 32 25 30 40 41 40 37 37 37 38 38 37 36 34 34 34 34 34 35 30 29 28 26 28 22 19 20 21 16 16 26 25 31 39 36 34 31 23 32 36 34 34 35 38
37 27 36 25 27 32 39 37 35 33 33 33 32 32 32 33 34 34 37 36 34 34 30 29 34 26 21 23 22 28 14 21 29 27 27 25 29 39 29 25 30 32 31 35 36
29 30 33 39 37 30 23 32 34 33 31 29 28 31 32 34 35 36 34 35 35 35 37 37 35 32 26 26 25 21 29 22 19 17 23 21 16 22 24 24 32 30 27 30 31

GFSSW_500_spd_069.txt.gz
Wind_Speed
45 48 48 47 44 43 43 43 43 43 43 42 44 46 45 44 43 42 46 46 45 45 43 42 43 45 46 45 45 44 50 52 40 30 17 17 15 28 34 34 30 27 27 20 20
43 46 52 54 56 48 48 55 53 54 54 50 45 45 46 44 43 43 43 42 41 40 43 44 47 48 47 45 46 48 50 46 36 29 28 14 17 29 37 30 27 28 24 13 14
51 46 50 49 44 50 52 53 49 52 52 52 51 56 47 44 42 41 42 41 42 43 46 45 47 47 49 45 43 43 48 41 38 29 36 29 24 27 36 30 23 25 24 19 18
50 47 45 46 48 48 52 52 50 50 52 50 49 49 51 49 46 42 43 42 42 42 43 46 46 48 45 43 37 45 44 42 39 31 39 34 38 36 41 33 24 24 21 22 22
51 50 51 50 49 50 51 48 45 45 46 44 41 41 41 41 41 45 43 41 44 43 45 42 43 42 43 42 40 43 40 41 40 35 40 38 37 29 39 26 25 27 19 21 23
52 52 55 51 49 47 47 49 45 41 42 41 39 38 38 40 40 38 41 43 46 44 47 42 41 44 44 44 44 40 41 39 40 40 40 40 38 32 23 25 24 27 20 22 20
53 52 52 51 49 47 43 43 40 40 40 39 37 37 36 38 39 39 42 44 45 45 46 41 42 46 44 45 45 42 43 41 43 44 41 39 39 29 22 24 23 27 23 19 21
50 50 50 50 47 46 41 39 40 39 39 38 38 37 34 37 38 40 42 44 44 46 42 42 45 46 40 43 43 42 45 44 44 44 42 39 33 21 24 27 26 26 22 18 17
49 49 49 47 45 41 40 40 39 38 39 39 37 36 36 38 40 40 41 41 43 43 41 38 45 42 39 43 44 38 43 48 44 37 37 35 27 17 21 26 29 27 20 22 10
48 46 45 43 44 43 41 40 39 38 38 38 40 37 38 38 39 39 42 40 37 38 37 39 43 36 38 41 40 35 38 39 35 29 25 19 26 23 21 25 28 24 18 23 15
47 46 44 42 43 43 41 38 40 41 39 40 40 36 40 37 37 37 42 38 35 36 36 39 42 38 34 37 38 39 45 37 36 28 36 29 22 21 19 21 25 22 19 22 21
48 46 45 43 42 42 41 41 42 43 39 40 36 37 34 39 39 41 39 36 34 33 34 39 38 30 31 40 38 37 43 39 32 30 31 29 20 23 26 30 28 22 21 19 21
47 46 45 46 42 42 42 42 40 40 43 32 37 36 36 36 35 36 36 35 34 27 31 36 29 26 32 37 39 41 43 34 30 38 38 25 28 31 21 19 25 26 20 20 19
46 46 45 45 44 44 42 40 40 41 42 39 36 35 35 35 35 33 31 32 31 27 28 30 26 25 33 37 35 37 48 39 38 43 41 26 26 33 30 27 21 21 22 21 19
48 48 46 46 45 43 43 43 43 42 42 40 37 34 30 31 33 29 31 30 30 25 26 25 27 27 31 34 37 37 50 48 50 52 41 36 33 26 27 26 21 19 16 22 21
54 52 52 51 49 46 42 42 42 39 39 36 36 34 32 29 30 30 28 26 25 21 23 22 25 25 30 32 40 36 51 51 51 47 53 40 42 27 20 13 15 19 15 20 20
58 56 55 53 52 50 47 42 39 39 31 31 34 36 33 30 31 30 24 25 23 22 21 20 20 25 25 31 36 37 44 51 51 49 55 39 40 23 15 18 17 14 17 24 16
59 57 57 54 54 51 47 44 44 37 31 23 34 34 26 24 28 33 24 20 23 21 20 15 17 26 24 23 23 35 39 45 46 46 49 34 43 19 16 23 20 21 27 29 20
56 52 50 49 48 49 48 47 42 33 29 31 36 32 24 27 27 30 28 28 23 21 19 15 12 18 16 26 24 24 36 35 45 50 41 39 28 19 22 17 20 27 27 27 22
42 39 36 41 44 47 48 47 41 38 38 40 36 31 28 22 31 26 27 26 24 21 17 15 11 10 15 28 30 20 20 35 39 41 41 33 32 21 20 18 23 19 20 26 24
37 36 36 39 42 48 48 42 38 36 39 39 38 34 33 34 34 27 26 25 22 20 22 17 11 12 15 11 30 24 27 36 35 39 36 30 32 33 28 28 28 27 29 31 28
33 27 29 31 41 43 41 40 39 39 43 43 40 36 36 36 36 32 30 31 26 20 21 20 14 14 11 11 17 25 36 32 42 42 35 29 32 39 31 32 34 33 33 30 26
30 28 31 28 32 36 34 39 42 40 39 43 42 38 36 37 36 33 29 33 29 25 24 25 19 16 14 16 16 21 20 37 39 43 40 40 35 44 29 44 39 34 32 24 27
36 34 30 30 27 21 28 31 39 38 39 40 42 39 39 40 37 33 31 31 30 28 26 26 21 20 20 18 15 20 25 27 42 39 24 42 40 23 33 34 36 38 36 31 31
35 31 28 28 26 41 28 25 14 32 36 37 39 36 34 38 36 35 34 33 31 30 28 25 22 23 20 18 19 12 23 24 35 38 33 28 46 39 25 31 40 39 39 39 35
34 28 28 26 21 28 37 32 26 17 19 30 33 34 34 36 38 35 38 39 34 32 30 26 25 24 20 17 22 16 17 19 35 45 37 27 36 39 42 32 39 44 48 47 38
29 25 28 21 33 21 18 28 28 26 19 20 24 31 32 34 37 36 36 35 30 29 30 29 26 26 23 22 20 20 18 18 22 20 23 28 31 40 31 26 30 40 43 43 43

GFSSW_500_spd_072.txt.gz
Wind_Speed
50 47 44 46 48 52 51 52 49 42 43 44 49 50 44 44 41 37 40 43 44 44 43 45 44 44 41 42 43 45 45 45 46 38 25 32 41 45 25 25 27 33 29 25 23
55 52 51 48 46 42 45 49 57 56 45 48 50 45 54 50 49 48 45 41 43 43 44 43 41 40 41 43 46 47 45 46 38 36 27 39 48 48 42 23 25 28 24 24 23
52 53 54 51 50 50 48 48 45 51 50 51 52 46 47 51 52 48 47 44 41 39 38 41 45 46 42 44 47 45 44 45 42 32 32 41 41 51 49 32 27 28 22 24 24
55 53 55 55 53 50 48 48 44 47 48 51 53 49 47 47 47 48 42 43 43 40 40 40 41 42 41 43 46 47 48 44 33 30 36 42 40 48 50 39 29 27 20 19 20
52 51 53 53 54 53 53 52 51 50 50 51 46 45 44 43 45 43 39 36 41 45 42 43 40 43 41 44 48 50 46 42 34 32 37 41 50 51 46 39 30 30 20 20 18
53 52 52 52 49 49 51 52 54 52 51 48 45 44 41 40 40 38 39 37 38 40 41 41 43 42 44 46 46 45 45 41 40 33 37 43 47 55 48 39 34 32 22 21 20
56 57 52 50 51 48 48 48 49 48 47 46 42 41 40 40 38 36 36 36 37 36 37 40 42 43 44 45 45 46 43 40 40 34 36 39 46 50 45 39 34 33 29 24 22
56 54 51 50 50 47 47 46 45 44 43 41 40 39 38 39 38 35 33 32 32 36 37 41 42 43 45 47 44 45 43 40 35 35 34 43 46 47 47 38 30 31 30 27 22
50 51 48 47 47 46 46 44 43 43 40 38 38 39 37 38 36 35 35 33 33 32 35 39 42 44 45 44 42 47 41 41 35 35 39 46 46 43 41 39 34 33 31 28 23
44 44 44 43 43 42 42 40 42 41 39 38 37 37 37 36 36 35 34 35 33 34 35 38 42 43 42 39 43 39 39 37 36 30 42 37 40 32 37 41 34 31 31 28 27
40 39 39 41 41 41 41 40 41 42 40 39 39 36 36 36 33 33 34 32 33 34 35 37 38 39 41 40 41 36 35 36 34 29 32 30 34 35 42 40 32 33 23 25 24
41 41 41 42 41 41 40 40 38 42 38 40 38 37 34 39 30 33 32 32 33 33 34 35 32 38 40 39 37 33 31 33 31 31 36 30 38 38 39 41 30 29 25 27 23
39 40 38 40 40 42 39 36 37 38 41 31 39 37 34 34 33 33 30 31 30 31 31 30 30 35 38 39 32 34 34 31 33 37 36 33 40 38 39 36 30 27 22 22 26
38 39 39 39 39 39 38 35 36 37 38 37 32 35 33 32 32 32 31 30 30 27 29 30 29 31 35 34 29 34 33 37 32 37 40 44 44 38 41 38 28 24 25 24 21
42 41 43 42 42 42 42 38 36 35 38 33 30 28 30 31 30 30 30 30 30 28 27 29 28 30 28 27 29 25 33 32 31 40 46 46 42 36 39 38 26 22 22 23 21
45 45 45 45 45 44 43 42 39 37 36 34 29 24 25 27 30 30 29 29 31 27 26 27 24 27 25 26 27 24 36 30 30 41 52 46 47 31 37 31 22 23 27 27 22
48 49 50 49 49 46 45 44 43 41 32 30 30 30 30 31 32 28 28 27 26 27 23 24 26 23 23 25 21 28 33 32 32 39 52 44 47 35 19 14 18 24 29 31 26
49 49 49 48 49 49 45 45 48 42 36 34 35 35 32 25 24 25 26 27 29 28 22 21 26 20 23 23 18 24 26 33 34 34 49 43 52 38 28 21 24 30 22 24 28
48 48 45 48 47 46 44 48 47 38 38 34 34 37 35 22 26 29 29 27 29 25 20 21 23 19 18 16 13 15 18 25 30 28 41 42 44 40 37 29 29 27 28 28 26
47 47 45 41 37 37 39 42 40 37 34 35 37 39 37 31 31 30 33 32 27 24 23 25 19 20 16 10 8 17 17 20 24 31 34 35 37 36 31 35 30 34 31 30 27
48 44 37 34 32 33 35 31 28 34 36 40 39 41 35 33 36 34 33 31 26 22 22 23 18 21 15 6 5 17 22 19 21 30 32 31 30 30 27 25 29 31 32 28 25
45 32 32 29 25 22 19 25 31 35 35 38 46 45 41 38 35 36 35 28 24 21 19 22 19 17 17 13 6 10 23 23 19 30 29 31 30 30 34 37 40 42 33 30 25
32 29 31 26 27 26 23 20 30 33 33 42 39 47 49 42 40 39 37 34 30 26 24 22 19 17 18 19 13 10 18 31 25 30 34 31 33 30 37 41 40 40 40 37 28
28 28 29 29 29 28 24 21 24 30 32 37 45 45 44 40 48 43 39 38 33 30 29 28 25 22 20 21 18 13 18 29 35 35 39 37 46 18 41 43 42 43 44 40 31
29 27 28 29 27 26 24 19 18 19 21 31 37 43 44 41 43 44 44 37 36 34 32 30 27 26 25 22 26 18 16 22 33 33 40 40 46 35 23 40 51 49 38 38 33
30 29 30 28 27 25 24 24 27 22 16 19 26 35 39 39 38 40 40 37 36 35 31 29 27 28 26 23 24 28 22 17 21 29 36 39 45 42 33 25 32 47 48 41 36
21 22 26 25 24 21 22 29 33 31 20 11 18 27 29 33 32 35 34 36 35 32 31 28 28 28 26 25 24 24 19 16 13 24 29 43 33 28 47 37 31 28 34 37 47

GFSSW_500_spd_075.txt.gz
Wind_Speed
52 51 51 50 52 53 50 50 47 48 47 53 54 51 47 50 53 52 52 45 41 38 40 40 42 44 45 45 42 43 42 37 38 36 31 21 32 41 45 47 49 52 45 37 35
58 56 52 53 53 56 53 51 53 48 45 46 50 50 52 47 45 49 45 49 48 45 43 43 43 42 42 40 41 38 37 41 41 41 37 29 35 45 46 50 53 55 48 41 31
60 61 56 56 55 55 54 53 54 53 52 48 49 46 47 50 52 50 48 46 46 45 44 43 45 43 39 36 41 43 44 41 40 39 41 35 37 45 52 53 54 52 48 47 28
62 60 61 60 58 57 56 56 57 59 54 50 48 46 44 46 47 49 47 44 44 46 46 44 44 42 41 40 37 43 41 40 42 43 43 38 33 47 52 53 53 49 52 52 26
60 59 58 60 59 58 53 55 58 60 59 54 51 49 48 47 46 50 42 41 41 42 43 42 41 43 42 42 41 44 39 43 46 47 44 37 39 45 52 51 49 50 54 49 26
58 60 60 60 58 56 54 54 57 58 57 54 54 53 50 47 50 47 46 41 40 40 39 38 39 40 39 40 40 39 41 44 47 48 43 40 38 41 49 50 51 53 53 49 28
61 59 58 57 54 53 56 56 56 56 52 47 47 49 49 47 47 45 45 42 39 41 40 39 39 38 38 35 37 39 42 44 46 44 45 38 42 40 39 50 50 53 50 43 29
56 55 56 56 52 52 54 53 52 51 48 46 43 44 43 45 44 45 42 40 41 40 39 40 38 34 34 35 37 41 43 41 42 45 41 44 40 34 37 42 49 52 47 38 33
47 47 46 46 47 47 45 46 49 46 43 43 39 40 39 40 40 40 41 41 40 38 35 36 36 32 32 34 38 39 41 43 47 42 41 45 39 32 38 43 45 47 44 36 35
46 44 45 47 45 43 41 41 43 43 41 40 36 36 36 36 38 40 41 40 39 37 35 34 36 31 31 36 38 42 42 46 44 39 43 44 43 37 34 39 39 38 43 40 41
41 42 42 41 39 37 35 36 38 39 37 38 36 37 36 37 38 39 39 38 39 38 34 34 33 28 35 35 37 42 43 42 40 38 37 42 43 38 33 38 36 37 37 46 43
40 43 42 43 40 38 35 33 34 37 33 36 36 34 33 36 35 36 38 38 37 35 35 31 27 33 32 35 36 39 39 36 38 38 34 43 40 36 35 38 34 39 36 39 35
35 35 34 36 36 36 34 33 32 31 34 23 36 33 32 34 32 32 36 36 35 34 31 31 29 30 31 32 35 38 38 34 33 36 37 37 34 33 36 36 34 34 35 34 39
32 32 32 34 34 34 35 35 34 34 35 29 28 34 32 29 33 35 33 34 34 30 30 30 27 30 32 29 35 38 38 35 37 33 37 35 34 34 35 35 35 37 39 36 35
32 33 34 36 36 35 35 36 36 35 38 31 28 26 28 31 32 34 34 33 32 30 30 28 28 30 30 27 32 33 30 32 33 34 37 33 37 31 36 35 33 33 30 39 32
34 37 39 41 42 42 40 40 39 38 38 32 28 26 24 28 32 34 34 33 32 30 31 30 32 30 31 27 26 27 29 28 27 31 35 30 37 26 39 33 35 35 33 32 24
38 40 43 45 45 44 42 40 40 40 37 38 37 36 34 30 31 31 32 31 31 31 30 31 29 28 28 28 25 27 25 23 28 31 33 23 32 24 32 30 32 34 35 27 26
40 44 47 47 47 46 44 43 43 42 41 42 39 36 31 35 34 33 33 34 33 33 30 28 27 27 27 29 24 24 25 23 31 36 33 23 33 31 27 32 28 32 34 31 29
47 50 50 48 45 42 41 42 38 35 36 37 33 37 36 38 37 36 36 34 35 35 30 26 25 26 28 26 23 19 18 19 27 31 30 27 27 32 31 34 30 32 32 32 32
50 49 43 40 42 40 40 35 33 33 31 35 36 34 38 39 38 36 35 36 36 34 31 25 26 27 26 25 22 17 16 17 22 25 24 21 15 25 33 40 33 26 27 26 26
46 41 41 43 43 38 32 27 29 32 33 35 40 44 36 41 40 38 38 37 36 33 30 28 27 27 23 24 22 15 14 17 19 19 20 14 15 22 30 40 37 30 32 28 27
39 43 44 47 37 28 25 26 24 27 36 36 42 49 30 40 37 38 37 30 25 31 30 28 26 26 23 25 21 16 15 19 20 16 14 19 15 20 21 31 38 39 38 34 33
41 47 44 33 26 26 25 25 26 27 29 36 41 50 51 21 38 34 40 41 26 31 32 30 28 24 25 25 20 18 15 17 24 23 13 20 19 25 20 28 30 40 39 36 34
44 38 30 25 26 26 27 27 28 27 25 35 38 47 47 32 31 34 38 43 41 34 28 27 26 22 21 22 22 21 18 15 21 28 22 24 28 23 26 27 34 37 45 39 33
41 26 26 27 27 28 29 28 25 24 24 30 35 43 48 41 28 37 31 23 41 35 35 33 28 27 23 23 24 24 21 20 20 22 34 25 32 34 27 27 36 44 41 40 37
27 26 27 29 30 30 30 27 24 23 22 23 31 39 50 47 38 35 32 34 36 36 38 35 31 29 27 27 28 27 25 25 29 26 30 32 40 42 37 19 19 33 46 46 46
25 25 23 20 23 25 25 27 25 24 25 22 23 34 42 43 36 31 35 32 40 42 37 35 31 29 26 28 28 23 22 31 27 24 25 37 34 41 41 24 27 25 33 47 47

GFSSW_500_spd_078.txt.gz
Wind_Speed
49 50 49 51 50 53 54 54 52 52 54 54 53 50 47 46 50 50 47 45 47 46 43 44 43 41 38 37 37 40 42 39 35 28 27 24 31 31 37 38 40 44 45 47 48
55 55 55 55 54 57 59 56 56 55 55 56 52 53 51 46 45 50 49 49 47 44 39 42 43 44 43 39 40 39 39 35 29 30 31 36 33 33 36 37 40 46 48 50 50
56 53 54 58 58 61 60 62 59 58 56 55 55 53 53 52 52 49 48 45 48 48 47 46 43 44 42 42 42 38 38 31 33 35 38 37 31 30 37 41 45 48 49 52 53
55 53 54 57 59 62 65 64 60 58 57 56 58 56 56 56 54 50 47 42 42 45 47 48 45 42 41 42 39 43 37 34 35 37 40 38 37 36 37 40 46 47 52 55 51
55 54 58 59 60 62 65 62 62 57 57 56 53 56 60 58 52 55 48 45 43 42 45 44 43 46 47 41 40 42 39 37 38 39 40 39 39 35 41 38 48 48 52 51 48
54 57 57 60 60 64 66 63 59 60 56 54 51 52 54 57 56 56 54 47 42 41 44 42 43 45 45 41 37 37 41 38 39 40 36 39 38 47 38 36 42 51 52 47 46
55 56 58 56 56 59 62 59 58 58 55 51 49 52 53 54 58 51 47 44 42 40 40 41 42 43 43 39 39 38 39 39 36 34 37 34 43 45 32 35 43 50 48 48 46
57 56 58 59 57 55 54 56 56 56 53 47 47 46 49 50 49 47 43 42 39 37 38 41 41 42 40 39 38 38 38 36 33 36 35 39 45 35 32 36 43 49 48 48 45
57 59 57 57 56 52 50 48 46 44 44 45 44 43 42 49 47 40 37 38 38 39 40 41 40 39 39 37 37 39 39 36 35 35 37 45 47 38 34 44 44 41 46 47 40
57 56 56 52 47 46 44 47 47 43 41 42 42 40 39 41 42 40 37 37 38 39 39 39 39 39 37 34 37 38 36 35 35 35 40 46 46 38 38 46 41 41 43 45 38
53 50 48 48 43 41 40 41 42 41 37 34 34 35 37 39 41 38 37 36 38 38 37 39 40 37 34 37 38 34 34 34 34 35 45 45 43 40 46 41 43 40 39 40 35
44 42 42 41 40 39 41 40 43 40 33 32 28 29 31 37 35 34 34 35 36 36 35 38 37 36 37 36 34 34 34 34 35 36 46 43 40 44 47 38 44 41 37 34 31
39 37 37 37 35 35 36 37 36 34 36 25 28 29 30 35 35 28 34 35 36 34 34 37 34 32 34 33 33 33 33 32 36 39 37 43 44 45 40 37 42 38 36 35 33
34 33 33 33 32 31 31 34 35 33 36 35 31 33 33 30 30 31 34 34 32 35 37 37 33 32 32 31 32 32 30 32 37 38 38 43 48 36 34 37 40 37 40 35 32
29 31 30 30 31 32 36 36 36 36 38 35 35 29 32 32 30 30 32 33 31 34 35 35 33 33 31 30 31 29 30 31 37 31 37 42 42 30 29 30 30 35 36 31 30
31 31 31 32 33 35 37 38 38 38 39 36 37 31 29 31 32 31 32 32 31 33 33 34 33 31 30 31 30 31 29 29 32 29 37 32 31 22 18 24 31 33 34 32 30
33 32 34 35 38 41 43 45 45 46 43 41 36 36 33 32 33 32 33 32 33 34 33 33 34 32 31 30 30 27 25 28 30 27 29 23 25 25 24 25 34 38 36 32 31
36 36 38 40 42 45 48 51 51 47 43 39 37 37 37 36 36 36 36 35 35 32 32 33 33 32 31 31 28 24 25 24 26 26 26 20 24 20 18 29 36 40 36 33 31
39 40 43 44 47 50 49 43 39 40 39 37 34 38 41 39 41 41 40 38 36 36 36 34 32 32 32 30 28 22 22 23 22 25 26 22 23 27 17 32 40 38 36 38 35
41 43 46 47 47 45 40 38 42 42 41 40 37 39 43 41 40 42 43 42 40 38 39 36 32 32 30 28 24 22 21 21 21 24 24 19 21 25 20 34 37 35 31 34 30
43 45 45 45 42 39 39 43 46 45 42 37 37 38 44 38 31 41 42 43 43 41 41 37 34 32 28 26 24 22 22 21 19 21 20 18 15 17 21 39 41 35 30 34 34
45 46 43 41 39 41 45 46 42 34 32 30 30 35 43 40 28 36 39 38 37 40 40 36 32 31 25 29 26 23 21 22 19 19 14 15 13 16 16 26 37 32 31 31 31
44 43 40 42 44 44 42 34 28 28 28 24 21 27 35 44 26 25 29 33 35 29 33 31 34 30 27 27 29 23 21 19 19 22 20 17 12 18 10 13 29 36 32 30 29
43 43 45 47 45 36 27 26 26 27 26 25 24 23 29 45 49 35 22 35 34 34 27 33 32 29 27 26 28 25 23 20 14 18 20 20 17 24 20 18 15 32 42 41 37
43 47 50 44 33 27 24 24 25 26 27 26 24 24 27 39 43 35 27 27 38 39 35 20 29 30 25 21 23 26 24 24 21 20 25 19 23 29 28 20 17 20 22 32 40
48 49 37 27 24 26 25 25 27 27 24 26 26 23 24 33 47 28 23 23 22 43 45 45 37 29 26 25 24 23 22 24 26 27 25 24 26 31 35 27 16 28 27 26 36
47 30 24 24 22 20 21 21 21 23 24 23 24 20 22 32 40 43 28 26 18 23 17 25 37 33 29 26 24 23 24 25 25 27 26 28 27 35 34 33 23 19 16 34 35

GFSSW_500_spd_081.txt.gz
Wind_Speed
33 34 36 37 39 41 41 43 46 50 54 54 53 50 52 52 51 47 47 44 49 45 44 45 42 42 41 45 42 39 41 37 34 34 31 28 37 35 34 34 34 33 33 38 37
38 38 39 39 44 43 39 43 47 51 50 54 56 52 51 51 53 50 48 47 44 47 47 51 54 43 41 40 39 44 42 37 34 33 33 34 35 34 33 33 34 36 35 36 35
44 42 43 44 43 39 42 46 45 47 52 55 57 56 50 49 50 50 50 48 49 47 49 45 45 47 48 42 40 41 45 37 35 34 36 37 35 34 36 36 36 38 34 33 35
46 48 48 49 46 42 43 44 45 47 47 53 59 61 55 48 48 50 51 48 48 48 48 46 44 44 49 45 40 41 38 37 38 36 36 35 36 35 34 37 35 32 31 31 34
54 53 54 54 47 45 45 45 47 48 51 50 56 60 57 52 46 49 50 49 49 49 47 46 44 43 44 43 41 42 40 39 38 36 37 37 36 32 41 33 30 32 29 32 35
59 59 60 55 48 47 48 46 46 50 51 54 58 58 54 50 52 48 47 50 49 50 49 46 46 44 43 41 40 38 39 38 39 37 37 38 35 42 32 30 30 29 32 34 34
63 64 64 54 53 52 51 50 49 51 52 53 56 55 49 48 50 48 48 49 48 49 48 45 44 42 42 40 41 38 37 38 38 36 35 36 38 37 34 28 29 29 33 37 37
64 61 55 51 54 55 55 51 51 52 51 52 52 47 43 44 47 46 46 49 52 50 50 47 44 42 40 40 37 36 37 36 36 36 35 33 36 36 36 39 35 34 35 36 39
60 51 47 49 50 53 52 51 51 50 49 47 46 44 40 40 42 43 44 47 49 46 43 44 45 41 39 37 36 37 35 36 39 35 33 32 37 34 34 36 33 37 35 35 37
49 50 50 52 55 52 50 49 47 45 43 41 40 38 37 35 38 40 40 43 45 46 40 37 41 43 37 36 36 36 39 38 35 32 32 33 37 36 35 36 40 35 36 36 37
51 53 52 54 54 50 42 40 39 39 39 39 38 37 36 36 33 36 37 40 40 47 36 40 41 35 35 37 39 37 37 37 35 35 34 34 35 37 41 37 41 37 37 37 39
51 51 50 51 44 40 36 35 35 36 31 33 37 35 32 35 31 32 36 39 36 37 43 42 42 37 37 36 38 36 36 35 36 35 36 34 35 39 37 38 42 40 40 38 41
47 44 46 40 37 36 35 34 31 29 28 28 29 33 36 35 30 29 33 33 34 34 29 31 33 34 36 36 36 35 35 34 35 33 33 36 39 34 34 37 42 41 38 36 43
43 41 40 38 34 32 30 30 30 29 33 32 35 32 34 38 36 34 34 31 33 32 33 36 32 35 37 35 34 34 33 33 32 32 32 33 35 32 33 38 43 37 35 36 43
40 39 36 33 32 31 30 29 30 31 34 34 33 30 25 28 33 35 34 36 31 30 30 32 37 36 35 30 35 32 31 31 31 30 32 28 31 33 31 36 30 32 30 35 39
35 33 32 30 30 30 31 32 35 36 39 39 38 37 34 32 32 33 33 33 36 31 30 34 33 30 28 31 33 33 32 30 30 30 29 26 31 25 24 22 27 26 30 37 36
30 30 31 31 32 34 35 37 42 40 43 44 42 42 41 35 35 34 35 32 37 35 31 29 28 30 32 31 30 31 30 30 31 30 26 26 27 16 13 18 13 20 27 35 36
30 31 33 34 34 37 40 43 45 47 48 49 44 40 41 39 39 37 37 35 34 36 34 33 31 33 32 30 30 29 31 28 29 29 23 24 19 14 11 17 24 26 29 31 35
31 32 34 35 37 39 42 44 46 46 48 44 39 37 34 39 39 40 40 35 33 36 34 34 34 34 33 31 30 29 28 28 28 27 24 20 19 18 17 16 19 29 34 33 35
32 34 35 36 38 40 42 45 44 43 41 38 36 39 36 35 40 39 40 40 35 36 36 35 34 33 32 31 29 28 27 26 26 24 24 17 16 17 17 19 14 31 36 37 35
34 35 36 38 40 41 42 41 40 41 41 42 42 40 35 35 38 40 39 39 38 35 36 36 35 32 31 29 28 26 24 24 23 22 22 16 16 14 17 21 23 27 39 41 36
35 37 38 40 41 40 39 42 43 43 42 37 31 28 26 30 32 36 39 30 36 36 34 35 35 31 27 30 28 23 21 21 20 21 20 18 12 14 14 18 21 29 40 41 40
37 40 40 41 41 42 45 46 41 34 27 21 21 21 20 17 24 30 27 25 33 36 32 32 35 28 30 30 30 24 21 21 21 21 21 21 14 13 16 10 11 27 37 41 38
40 42 43 43 45 48 46 35 26 22 21 19 20 20 20 20 19 28 40 23 24 35 32 33 27 30 28 30 27 23 22 23 21 20 20 20 22 18 19 15 11 24 37 38 36
41 43 43 47 47 38 23 18 20 22 21 20 23 22 20 17 18 26 43 24 17 31 31 23 33 35 31 29 27 24 22 25 23 26 24 18 16 23 23 28 14 15 29 37 34
42 42 46 45 29 22 21 21 23 23 21 24 23 22 20 20 19 31 45 22 20 25 28 34 30 22 27 28 24 21 21 23 25 28 24 25 17 27 24 28 15 20 21 34 36
41 44 41 30 25 22 20 17 18 19 19 21 23 21 19 21 19 27 39 34 20 15 22 31 23 32 24 19 20 24 21 22 21 23 24 23 25 24 24 26 20 18 23 26 40

GFSSW_500_spd_084.txt.gz
Wind_Speed
34 34 33 34 36 38 38 37 38 38 36 40 42 46 48 48 44 40 42 47 50 49 46 47 46 44 45 44 41 42 43 39 38 39 35 34 35 40 42 43 44 42 41 36 34
37 37 39 39 38 37 38 41 41 40 38 41 41 42 44 46 47 45 39 41 49 50 51 48 50 52 50 49 49 50 48 46 45 39 39 38 37 42 42 42 42 40 35 32 32
45 46 46 43 42 42 43 45 46 44 41 40 41 43 43 44 44 45 43 39 43 49 48 49 51 49 49 51 52 54 55 44 42 40 42 39 37 38 42 41 36 35 35 32 30
47 47 48 48 48 49 47 49 51 44 43 41 43 43 45 48 46 47 46 42 40 44 50 50 51 49 50 48 50 49 49 48 48 44 43 40 38 40 40 37 35 34 35 31 27
50 51 52 52 54 54 53 53 52 49 48 45 45 47 47 48 49 49 50 46 41 42 47 49 51 52 50 50 49 47 48 45 45 42 39 40 40 37 43 39 34 34 34 31 26
55 54 54 54 55 57 57 57 55 54 51 46 47 49 48 48 50 48 50 49 44 40 46 49 50 52 54 52 47 48 46 45 42 40 40 40 39 43 39 38 37 35 33 31 29
56 54 55 56 57 57 60 60 54 52 50 49 50 52 47 49 46 47 45 46 44 43 43 47 52 53 54 53 51 49 47 45 42 39 39 39 40 42 39 38 36 32 32 31 30
60 57 58 60 57 58 56 52 49 50 52 53 52 52 48 45 42 39 40 40 41 44 46 47 50 52 49 51 50 47 47 44 41 40 39 40 39 39 37 35 34 32 32 31 31
59 58 59 57 56 52 48 46 48 49 51 50 49 51 48 43 41 39 38 39 40 42 45 46 48 52 52 51 49 46 45 43 40 40 40 42 39 39 33 34 33 32 30 26 26
58 58 54 50 47 46 46 47 48 50 48 50 50 48 45 42 37 35 36 37 39 41 43 44 46 49 51 46 41 42 40 45 41 40 39 39 38 38 33 34 33 30 25 25 30
52 50 50 46 46 46 46 45 46 43 41 43 44 37 37 36 35 34 36 36 37 39 38 37 41 44 38 43 40 41 42 40 38 39 38 38 38 38 36 31 31 27 26 29 32
47 46 42 43 41 42 40 42 40 38 32 35 33 33 31 33 31 33 34 34 37 36 36 36 38 37 39 37 38 40 33 35 36 38 38 37 37 37 35 30 28 30 31 33 34
39 41 39 39 39 39 37 36 35 33 33 31 30 30 31 32 32 31 33 34 35 34 32 34 36 40 38 36 36 37 36 35 38 34 36 39 36 36 30 29 29 31 33 35 34
39 38 37 38 37 36 35 33 32 34 35 34 31 31 29 26 28 32 35 35 36 35 33 34 32 32 44 42 41 40 33 33 33 32 32 34 34 32 26 30 32 33 35 37 39
37 35 36 36 35 35 35 33 33 35 35 36 32 32 33 33 29 31 33 32 34 33 35 33 32 34 33 27 34 33 30 32 32 31 32 24 32 31 28 28 31 34 35 39 41
34 34 34 33 32 32 31 30 32 33 37 37 37 36 37 39 38 35 34 36 34 34 34 36 33 33 34 34 34 34 32 34 33 29 30 24 29 26 26 25 31 30 33 33 33
31 31 31 29 27 28 30 31 33 33 36 39 39 40 42 42 42 39 38 37 36 35 34 35 35 33 37 34 38 36 27 29 29 30 27 26 28 23 22 27 26 25 21 19 23
28 27 26 26 27 28 30 31 34 36 38 40 41 43 45 43 42 35 35 38 38 36 34 33 34 36 29 29 27 26 25 26 27 26 28 26 25 26 22 22 21 19 15 16 19
24 22 23 25 27 29 31 33 36 38 39 41 44 44 41 39 37 33 31 35 39 37 33 33 36 36 32 29 26 27 26 26 26 27 28 24 24 23 21 21 21 26 27 20 18
21 23 25 26 29 31 34 36 39 41 42 42 41 39 37 37 38 37 33 32 35 38 35 32 33 33 31 30 27 27 26 24 25 25 25 20 21 22 18 24 28 28 22 23 25
22 24 26 29 32 34 36 38 41 42 42 41 41 41 40 39 41 40 37 32 30 33 35 31 32 28 23 25 26 23 24 24 25 25 21 21 19 19 18 21 29 27 21 25 31
24 26 29 31 34 36 38 40 44 45 45 46 45 43 40 37 34 32 33 35 31 28 30 33 31 30 27 22 23 25 21 23 24 22 21 21 19 18 19 19 26 28 25 30 35
26 27 30 33 36 38 41 44 47 49 44 35 28 23 20 19 19 17 24 31 30 21 30 34 35 29 26 32 29 23 22 23 22 23 20 20 16 18 18 22 16 21 23 33 38
28 30 32 35 37 40 44 47 42 29 23 17 18 17 15 14 16 17 17 27 27 36 20 29 31 29 27 26 25 23 23 24 23 22 21 18 16 22 25 22 22 17 21 32 40
28 31 32 36 38 42 43 32 24 20 18 19 19 18 16 16 16 15 16 26 33 13 28 33 32 30 25 23 24 23 22 22 23 25 24 23 17 21 22 26 29 23 19 33 39
29 31 33 36 39 40 28 22 19 17 16 19 17 20 20 19 18 17 15 32 37 14 13 19 26 24 25 29 28 25 24 24 23 24 24 24 24 22 24 25 25 24 14 27 35
30 32 34 37 38 29 22 21 18 18 20 22 21 18 19 20 19 18 20 25 42 15 11 19 28 24 29 39 30 26 21 17 18 23 22 23 23 24 26 25 21 19 16 21 28

GFSSW_500_spd_087.txt.gz
Wind_Speed
38 38 38 36 34 34 34 35 37 38 41 41 43 46 44 44 45 45 41 41 40 42 42 48 52 50 49 46 46 49 52 50 43 42 42 44 39 37 41 46 45 45 44 47 45
43 42 42 42 41 41 41 38 36 37 37 42 46 47 47 48 46 46 43 42 41 40 39 42 48 50 51 52 51 52 53 49 44 45 51 47 44 44 43 43 45 46 44 44 44
44 46 46 47 45 46 45 45 45 46 45 46 46 46 47 50 50 48 46 45 44 40 38 39 45 48 50 51 53 53 55 54 52 53 53 50 49 45 47 46 46 44 46 43 42
45 47 48 47 47 48 47 48 47 48 51 50 50 47 46 49 51 49 50 50 50 49 43 44 43 46 46 50 51 55 55 55 58 57 61 55 48 47 46 45 46 45 39 42 41
49 50 50 49 48 48 49 51 51 51 51 51 49 48 54 51 53 53 52 52 51 49 48 42 41 43 48 48 52 56 55 56 57 56 57 54 50 48 51 50 45 41 40 40 40
54 54 56 55 51 50 51 51 50 54 53 52 50 50 55 52 52 52 53 53 52 50 48 41 41 43 46 49 51 55 55 57 55 56 56 54 52 51 48 45 47 44 41 39 39
57 57 55 55 57 56 53 54 55 55 52 46 49 54 54 49 53 52 50 50 51 50 43 38 39 42 46 50 53 55 54 57 54 55 52 52 52 48 46 47 47 43 41 41 39
57 55 56 57 55 55 55 55 54 50 47 49 52 54 53 53 54 54 53 48 47 46 41 40 39 42 47 51 53 53 56 58 54 55 55 52 51 49 48 46 47 44 41 41 38
54 53 51 50 51 53 56 54 50 48 49 50 51 51 53 51 49 44 42 39 38 38 37 38 41 42 46 49 51 55 55 51 53 55 54 50 51 48 49 47 42 44 42 40 36
49 46 44 45 47 49 48 47 48 48 47 47 48 49 46 43 38 39 37 36 35 35 36 37 40 43 46 48 50 48 50 49 45 43 56 48 51 48 47 45 40 42 40 37 35
51 51 51 46 44 44 45 43 43 42 44 43 44 40 40 33 32 32 32 31 32 33 33 35 37 38 38 44 46 55 51 49 46 45 45 48 55 48 46 44 40 38 39 36 35
53 52 46 42 40 39 37 38 41 42 39 37 36 32 31 30 29 29 30 30 30 29 33 36 37 34 37 40 41 40 38 43 37 39 44 44 53 50 40 43 36 36 38 37 35
47 45 43 40 37 36 38 38 38 35 34 34 31 29 29 29 31 31 31 31 30 32 33 35 35 39 31 36 39 34 34 35 42 40 38 36 40 35 42 37 33 35 35 34 36
44 42 43 39 37 37 36 35 33 32 33 33 31 30 30 31 31 31 30 30 30 32 35 39 40 40 34 36 35 40 29 34 31 34 33 31 37 34 35 31 32 33 34 34 34
43 40 39 38 36 35 34 32 32 31 28 32 27 28 29 32 34 34 33 34 35 36 35 35 39 38 41 34 38 39 38 35 34 36 35 29 33 27 24 27 34 33 34 32 32
42 40 38 34 35 33 33 32 30 28 31 29 31 33 34 35 36 38 39 39 40 39 38 37 36 38 35 36 37 33 34 34 30 30 36 25 31 19 17 29 27 33 32 34 34
39 34 35 33 31 31 30 30 29 27 29 33 33 33 35 40 37 42 41 42 41 42 38 39 38 39 35 35 37 35 31 29 26 30 32 22 26 19 26 22 27 30 28 28 30
35 30 31 29 26 27 27 26 27 29 29 32 33 36 38 41 40 44 43 42 39 37 39 30 25 31 35 33 32 29 35 33 22 17 14 25 29 19 30 25 25 26 24 27 25
28 24 25 23 24 23 24 25 26 29 32 34 36 39 40 44 44 44 42 40 37 36 30 27 24 33 40 31 32 28 35 24 30 24 25 22 10 23 24 20 23 26 26 24 20
21 20 20 20 22 23 24 26 30 31 33 36 38 41 42 46 46 43 43 41 35 34 32 30 32 25 35 27 28 28 23 22 26 21 23 15 15 25 23 20 23 27 29 27 28
18 17 19 20 22 23 26 29 31 33 35 39 42 45 47 47 48 45 44 42 33 36 33 31 33 26 29 26 25 24 25 24 25 23 19 14 16 25 25 22 23 27 32 31 27
17 18 19 21 23 25 28 30 33 36 39 43 45 47 48 48 49 46 44 42 36 40 35 28 33 35 32 26 23 24 23 22 28 24 24 21 20 16 19 21 24 26 30 34 28
18 19 20 22 25 27 29 32 35 39 41 41 39 34 31 28 27 26 26 29 36 36 38 31 31 31 27 27 30 19 21 21 21 23 19 20 19 14 22 23 19 23 24 26 28
19 21 22 23 25 28 31 33 37 37 31 27 24 19 17 16 17 13 17 24 20 28 33 38 35 32 26 26 27 30 28 23 24 22 20 22 23 24 27 19 22 24 22 21 27
20 22 22 24 25 28 30 34 33 26 23 21 20 19 19 17 17 19 19 17 20 25 39 38 20 34 28 24 22 29 24 29 27 25 24 20 22 23 27 23 23 26 26 23 23
21 21 23 25 26 28 31 30 26 24 22 21 22 20 17 16 21 21 21 19 18 23 26 23 17 23 29 32 31 26 25 19 19 22 25 25 22 27 21 21 19 20 27 32 23
19 22 24 25 26 28 29 24 22 20 20 23 24 22 23 23 17 20 22 22 17 23 17 19 15 13 39 30 27 25 21 21 22 25 23 21 21 24 25 25 19 16 18 21 13

GFSSW_500_spd_090.txt.gz
Wind_Speed
40 39 39 39 41 40 39 38 35 35 36 36 35 36 38 38 39 44 45 46 45 45 42 41 41 42 46 48 48 49 52 51 46 42 41 41 45 50 50 42 43 44 47 48 51
41 42 42 43 43 44 45 44 44 44 44 43 42 43 43 44 45 46 44 46 48 47 45 43 41 42 44 49 52 55 55 53 48 45 46 46 52 56 49 42 41 41 44 46 48
42 42 44 46 47 47 48 48 49 48 47 46 46 45 47 48 46 49 45 46 49 51 49 48 43 41 42 42 50 53 53 52 52 52 52 53 60 55 49 46 46 45 47 50 51
46 47 46 47 47 47 46 49 49 47 44 44 46 50 52 54 52 49 48 48 49 51 53 50 49 45 44 45 47 52 54 55 54 53 54 58 61 59 54 50 50 50 49 47 49
48 49 49 49 51 51 50 51 50 48 47 49 49 48 51 50 52 52 50 51 50 50 52 52 48 46 48 46 47 50 52 53 54 54 57 59 58 62 54 53 55 55 50 49 49
53 55 57 56 53 54 55 54 54 53 51 51 51 50 52 51 50 46 48 51 51 46 48 47 47 45 48 45 44 46 51 55 57 57 59 58 56 60 55 55 53 54 52 53 50
59 61 56 55 59 57 57 57 53 52 55 53 52 54 49 48 46 47 50 51 50 50 48 46 44 44 42 44 42 46 50 51 52 56 56 56 58 61 58 55 53 56 55 53 51
60 57 57 56 56 53 50 49 51 52 54 54 54 53 47 48 50 50 49 49 51 49 49 46 43 38 39 41 44 44 46 50 48 54 56 59 57 58 56 51 52 55 55 53 51
56 56 54 52 52 49 44 44 45 47 48 50 49 47 46 47 47 47 47 47 46 45 43 44 40 37 39 42 39 45 45 48 46 52 55 56 59 59 53 52 55 55 52 51 52
49 48 47 44 45 44 44 43 44 45 47 47 47 46 44 43 42 43 41 39 40 38 36 33 34 37 38 37 38 40 43 45 49 45 32 45 54 54 55 53 55 46 46 44 46
45 46 44 44 44 41 41 40 42 42 44 45 41 40 41 40 40 38 37 32 32 31 28 31 34 35 35 39 40 38 38 43 47 47 41 45 48 47 41 50 58 41 40 44 45
50 49 48 48 45 43 39 39 39 40 38 38 38 38 37 35 35 32 31 30 29 28 29 32 34 32 36 38 39 36 41 41 43 43 48 48 50 48 42 41 45 42 41 43 43
50 49 48 47 44 41 39 39 37 36 38 36 37 36 32 30 31 31 31 31 29 30 29 31 33 36 35 34 34 36 40 37 39 39 42 44 45 36 30 29 37 46 39 41 42
49 51 46 43 42 40 40 38 35 36 35 38 38 32 31 31 32 30 30 28 29 29 31 34 32 33 36 37 39 39 39 40 39 39 40 31 43 27 20 14 11 23 38 37 42
43 43 42 40 41 41 37 35 32 33 31 39 34 25 25 28 31 33 27 32 32 33 35 33 36 36 37 36 39 40 39 36 39 41 37 30 37 34 16 16 17 35 40 41 37
42 41 40 41 41 40 36 31 31 28 29 31 30 26 27 31 33 33 37 33 36 36 39 38 36 38 39 41 38 38 38 37 37 35 40 34 32 29 17 21 35 35 26 32 34
41 38 39 40 38 32 32 28 28 25 30 32 26 28 29 30 35 32 36 37 38 40 41 38 40 38 37 41 39 39 35 33 32 27 23 13 20 18 23 29 32 22 26 29 30
39 36 37 37 33 26 25 25 24 28 29 24 27 28 30 31 35 36 37 37 33 41 43 37 35 25 31 35 34 31 30 28 26 23 22 24 20 17 30 30 28 31 29 27 27
37 35 31 26 22 21 21 22 24 24 23 24 26 30 31 36 37 38 38 40 33 45 41 37 32 34 31 35 36 23 27 20 25 25 29 22 17 25 11 29 33 35 28 30 25
34 28 21 18 16 17 19 21 23 21 24 27 28 31 33 36 40 43 43 42 42 43 38 35 42 35 26 30 25 19 22 27 26 27 26 23 24 18 21 22 24 23 27 28 26
23 21 15 15 16 17 19 20 21 23 25 27 31 35 38 41 44 47 48 43 51 49 44 42 37 30 35 25 20 19 22 20 23 20 20 14 21 26 21 29 34 27 24 25 24
21 12 14 15 17 18 18 20 22 25 27 30 33 37 39 41 43 44 45 35 40 41 41 42 38 37 34 35 16 18 21 21 24 22 23 22 22 19 4 9 17 23 22 23 23
13 16 15 16 17 19 18 21 24 26 29 33 36 36 34 32 30 26 24 24 31 36 36 37 40 34 29 36 30 20 21 24 21 27 28 23 28 28 23 17 20 20 21 21 20
18 15 16 17 18 21 21 22 26 26 31 32 30 28 26 23 22 22 19 22 20 26 24 32 34 34 32 35 37 19 22 26 28 23 25 25 20 15 13 16 12 15 18 20 20
15 15 17 17 19 20 21 24 26 29 29 28 26 25 25 23 22 24 24 23 24 21 23 27 32 41 32 29 33 31 20 28 25 23 23 25 26 25 22 20 17 18 18 22 23
17 16 18 18 20 21 22 24 27 28 25 24 23 24 26 25 27 27 26 25 25 22 21 24 26 40 34 32 33 17 27 28 32 29 28 23 20 25 23 25 22 16 16 20 24
16 16 18 20 20 21 22 24 26 25 23 23 24 25 28 30 29 26 27 24 23 19 19 19 22 33 30 40 34 10 15 28 18 11 20 23 26 22 24 23 22 19 17 16 16

GFSSW_500_spd_093.txt.gz
Wind_Speed
41 39 40 40 40 40 40 40 42 42 41 39 38 36 37 37 36 36 36 39 41 41 39 39 42 45 45 42 43 45 47 46 45 44 40 40 40 37 42 45 47 44 46 47 45
44 41 40 41 42 42 42 42 43 44 46 46 44 44 44 42 41 41 40 42 44 46 45 42 41 43 45 43 45 45 44 45 46 50 50 48 50 50 48 52 54 43 46 46 47
45 46 43 42 42 43 44 45 46 48 50 50 49 48 47 45 41 41 45 46 49 49 48 46 45 45 45 46 44 43 46 41 46 51 56 54 50 52 56 55 57 48 41 39 47
46 46 47 47 47 46 46 47 48 49 49 49 49 48 46 43 43 48 45 47 47 49 50 51 50 50 51 48 41 48 45 44 46 50 54 55 54 55 58 57 56 52 47 46 48
52 51 50 49 51 51 48 49 49 50 51 51 50 50 48 46 50 50 49 48 47 48 48 48 48 49 48 49 48 47 43 46 47 49 50 53 55 56 58 57 56 49 52 53 50
55 54 54 50 51 54 53 54 55 56 53 53 53 53 53 52 50 50 52 50 48 46 45 46 47 48 48 44 47 43 46 49 52 50 51 50 48 54 51 53 54 54 52 54 55
52 53 54 59 58 56 58 58 59 57 58 56 53 54 54 53 54 55 52 52 48 48 46 44 47 48 46 46 42 45 47 45 48 45 46 52 53 49 47 53 58 57 55 57 55
50 47 54 54 56 56 54 55 55 53 53 52 47 49 48 49 50 52 50 48 48 48 45 43 43 45 43 45 43 42 44 44 42 43 45 49 52 47 50 55 55 56 59 59 61
54 46 49 51 51 52 54 54 50 48 47 46 44 45 45 47 47 46 48 47 47 45 43 42 43 41 40 38 39 39 39 41 39 43 45 48 53 44 53 56 58 58 63 63 63
61 64 53 43 38 38 43 45 42 41 41 42 41 41 42 43 43 44 45 42 41 42 40 38 39 39 32 30 33 35 40 41 38 42 48 51 54 47 50 54 57 62 59 52 53
66 63 61 58 53 57 47 43 43 40 40 42 41 41 41 43 41 39 38 39 38 40 34 33 35 30 28 31 32 37 39 39 40 40 45 46 49 45 45 46 50 45 54 47 51
65 56 57 59 55 56 54 52 48 40 38 39 39 38 37 37 37 35 35 36 35 33 32 31 32 26 30 31 33 34 37 37 38 40 43 40 42 41 43 46 46 36 42 46 48
63 58 49 55 51 54 46 44 45 44 37 36 37 37 35 33 33 35 33 32 31 30 30 31 26 29 30 31 33 31 36 38 40 42 42 43 42 39 38 40 42 41 43 37 40
59 55 51 54 54 51 49 46 42 39 37 35 37 34 33 32 33 32 34 32 30 28 28 30 28 31 32 33 33 30 33 36 40 43 43 41 46 36 34 30 25 21 19 26 34
55 55 55 54 47 46 42 39 39 38 34 33 31 29 28 26 28 28 27 28 29 30 31 31 32 31 31 29 33 39 40 39 40 41 43 40 41 33 22 19 25 26 31 26 27
40 40 45 44 43 42 41 39 36 32 30 31 30 25 25 25 25 29 30 29 32 32 33 33 34 34 33 33 35 36 39 42 41 39 42 26 30 28 19 17 31 32 29 28 20
40 40 43 43 46 42 39 38 32 26 27 31 28 22 25 25 27 31 31 33 35 33 36 35 33 32 31 33 33 32 35 37 39 39 38 24 25 9 13 20 27 28 29 22 17
43 43 43 40 40 37 36 34 25 27 32 22 18 23 23 24 27 30 32 33 33 39 40 41 37 29 33 33 30 31 31 31 33 29 27 23 24 18 19 17 12 22 32 24 23
45 42 38 39 34 32 31 27 26 22 18 17 20 22 22 28 29 31 32 34 39 41 42 45 44 36 31 33 31 29 32 19 33 27 26 22 20 24 26 18 13 25 26 22 24
39 36 35 33 30 26 23 23 19 17 18 19 20 23 24 28 31 35 35 39 43 47 49 49 49 39 31 33 32 32 26 25 29 27 31 18 17 28 28 24 11 23 25 30 24
34 32 29 25 23 20 19 17 17 15 18 20 22 24 26 28 31 35 39 43 47 49 50 52 54 49 37 36 30 28 36 25 25 29 29 17 13 21 21 17 14 24 23 22 24
30 26 25 24 18 18 14 13 16 16 18 20 23 26 28 32 34 36 37 41 40 37 37 37 44 46 42 35 34 40 32 24 25 21 23 21 21 20 11 13 1 9 14 25 19
26 24 18 16 16 13 14 14 17 19 20 21 24 27 30 32 33 33 34 35 29 29 28 24 31 35 24 31 36 38 41 36 25 23 21 23 20 15 19 13 8 15 13 19 16
20 18 17 15 14 13 15 17 17 18 21 22 26 29 31 30 30 31 29 32 33 31 25 19 21 24 22 22 38 43 45 31 25 30 20 22 25 31 12 19 10 10 10 14 13
20 17 17 12 14 14 14 15 18 19 20 24 27 28 28 28 28 28 29 30 30 27 25 23 22 24 24 33 31 41 40 35 31 26 27 34 23 27 14 13 17 12 9 13 16
19 18 14 14 14 13 15 17 19 19 22 27 27 26 27 28 28 27 27 28 28 25 25 26 26 24 21 31 36 35 36 37 16 27 23 27 29 15 23 25 20 21 17 15 16
20 15 14 14 14 13 17 16 18 21 25 26 27 28 28 29 29 29 32 29 27 23 22 25 23 23 15 30 27 26 27 28 3 25 28 24 28 23 14 18 16 15 15 17 16

GFSSW_500_spd_096.txt.gz
Wind_Speed
47 45 45 44 41 42 41 41 40 40 39 40 42 43 42 40 38 37 35 36 38 38 37 40 40 42 38 37 38 41 43 43 40 39 37 35 40 42 43 43 42 44 48 50 48
46 45 44 44 43 42 42 41 42 43 42 42 43 44 45 44 44 43 41 43 41 40 40 42 44 45 43 38 41 41 41 40 40 43 42 40 44 43 45 45 46 49 51 54 55
46 44 44 44 43 42 42 44 42 43 44 45 45 46 47 47 48 48 48 44 42 42 43 44 46 48 47 47 43 43 45 41 42 43 44 44 46 44 50 52 51 52 54 54 52
47 47 46 47 46 46 44 45 46 46 47 47 47 48 51 49 47 51 47 45 45 47 47 48 47 47 49 49 43 47 45 44 42 44 44 46 46 48 49 51 51 54 53 53 51
51 48 48 50 50 51 51 51 51 49 50 51 50 50 50 49 49 52 48 48 48 49 50 50 50 48 48 49 47 51 43 44 46 45 45 45 44 41 47 49 52 52 53 56 51
56 53 56 51 51 52 53 53 55 52 53 53 52 52 51 53 53 51 52 52 52 53 53 52 53 54 52 49 49 44 44 42 44 44 43 44 39 42 45 41 44 46 48 51 52
57 59 57 57 55 48 46 48 51 56 55 55 55 55 57 59 58 54 52 53 54 55 55 57 56 56 56 51 50 47 46 45 41 39 40 44 46 48 44 42 50 52 54 54 52
59 59 60 61 55 53 51 49 49 50 53 53 53 53 52 54 53 54 49 47 52 52 50 51 52 53 51 47 45 47 48 43 40 41 41 45 42 41 45 51 51 50 52 53 53
63 62 62 62 60 53 54 47 42 44 44 44 48 48 45 48 47 46 47 48 48 47 46 44 47 47 42 40 43 42 42 41 41 39 42 47 37 41 45 47 47 47 47 48 50
63 66 60 63 63 61 59 55 56 49 32 34 37 38 40 41 44 45 45 46 45 44 41 40 43 41 33 36 38 38 41 40 33 33 39 40 40 36 40 45 46 49 50 51 53
65 71 65 63 64 62 61 60 58 47 50 52 45 36 36 40 43 44 44 43 43 40 36 38 39 30 32 35 35 37 35 31 28 35 41 38 42 32 38 43 45 47 50 47 45
67 68 66 62 62 56 57 56 53 55 47 48 52 47 43 45 42 42 39 39 38 35 36 34 33 28 33 34 35 34 31 30 28 33 42 41 39 35 38 41 41 41 41 43 43
66 66 66 59 59 51 52 48 44 44 44 46 44 42 41 40 42 38 38 37 36 35 34 34 28 31 33 34 33 30 34 33 33 37 39 43 37 35 35 38 38 39 40 40 41
62 62 63 60 59 58 54 47 44 44 48 46 47 45 41 38 37 36 35 35 34 34 35 34 30 32 33 32 32 30 35 35 35 37 39 40 48 33 34 37 35 36 37 39 39
58 53 58 59 59 53 50 45 48 50 44 42 44 41 38 36 34 32 33 33 33 32 31 30 31 34 33 30 34 31 36 36 37 38 42 35 49 39 38 28 30 34 34 32 29
52 55 54 53 47 44 48 45 44 44 41 38 37 34 32 27 26 27 29 31 31 29 30 31 34 36 33 33 36 35 37 38 38 40 42 31 39 39 23 28 28 30 25 28 27
48 49 50 48 41 44 47 47 45 40 38 38 38 30 28 28 29 31 32 32 29 30 31 31 32 34 37 35 36 37 37 37 37 32 36 28 36 28 24 28 24 34 31 32 25
46 50 49 43 39 41 46 46 43 39 37 35 27 25 27 32 30 28 29 30 28 31 32 32 31 34 35 37 39 33 33 34 34 31 28 25 26 21 26 29 30 31 28 29 34
36 40 38 40 43 41 43 39 39 34 28 25 27 29 27 26 25 24 27 30 32 33 36 37 35 38 38 37 38 35 33 30 29 29 32 24 23 25 28 29 31 34 22 28 24
40 45 47 41 42 39 39 35 30 24 19 21 23 24 22 22 24 24 27 31 33 35 37 39 40 41 41 39 35 38 33 30 28 32 34 29 25 27 25 26 21 26 7 29 18
39 41 43 41 40 35 30 24 18 16 21 21 17 21 21 23 25 27 31 33 35 36 37 41 44 46 44 42 40 38 33 34 34 35 33 32 29 29 29 16 14 12 21 18 21
33 36 33 35 31 31 25 15 19 20 20 16 17 20 22 24 25 28 31 34 35 35 37 37 38 42 38 33 36 43 44 39 30 37 36 31 28 22 20 12 9 20 5 18 16
33 34 33 31 25 22 17 18 15 17 18 19 21 22 23 25 26 28 30 32 34 34 31 28 33 36 29 26 30 46 49 47 41 29 37 35 28 23 13 14 13 13 4 6 20
34 34 28 23 21 17 17 15 13 16 16 19 21 22 23 24 27 28 29 32 31 31 29 31 30 29 28 21 22 23 48 51 48 45 34 31 25 24 23 19 8 10 9 9 12
25 25 22 16 16 16 15 14 16 15 17 18 20 21 23 25 27 28 28 29 30 29 30 32 30 28 24 20 23 30 42 45 48 36 29 19 31 23 19 22 22 7 3 3 11
27 22 20 16 15 14 15 15 14 16 18 18 20 23 26 27 27 26 29 30 29 31 33 33 29 26 20 21 28 36 41 36 38 37 18 22 30 28 20 24 23 15 14 12 11
24 22 21 15 13 13 13 13 15 15 17 19 22 24 26 28 30 32 32 29 28 31 31 30 22 22 14 24 23 31 25 27 33 33 15 17 30 27 29 24 18 19 11 10 11

GFSSW_500_spd_099.txt.gz
Wind_Speed
49 47 49 49 46 44 46 45 43 44 43 41 42 40 39 38 39 42 40 39 41 39 37 37 39 40 38 38 40 41 40 39 33 31 32 32 37 41 42 40 41 42 43 45 47
49 48 48 48 46 45 45 45 45 44 45 44 42 42 43 39 39 43 43 43 44 43 42 43 44 44 41 40 44 45 47 43 40 37 37 36 38 41 42 42 44 44 44 45 46
47 46 48 49 44 46 44 44 47 47 47 48 46 42 44 42 41 43 45 45 45 48 49 48 46 46 45 45 45 47 48 46 44 42 42 42 42 41 44 44 42 45 47 48 49
48 47 47 50 48 47 45 45 48 50 49 49 49 48 47 45 45 48 46 47 47 48 50 51 49 48 49 52 49 49 44 44 45 45 46 45 41 43 43 42 45 48 51 51 52
53 51 49 50 51 49 50 50 50 50 51 51 51 51 51 50 49 53 48 49 49 49 50 51 50 52 53 52 51 50 48 46 46 47 45 43 43 40 42 44 43 45 49 52 53
58 58 55 50 54 53 52 52 54 53 49 47 51 52 53 51 53 52 53 52 52 52 54 54 56 55 54 55 55 53 54 53 51 51 47 45 42 45 43 40 43 44 46 47 50
66 62 61 58 55 55 56 56 56 54 52 53 48 47 44 51 53 51 53 55 56 57 58 58 58 57 57 55 55 55 55 56 52 48 52 50 53 51 46 45 45 49 49 48 51
69 69 69 65 60 57 58 59 58 56 52 53 47 46 46 51 48 49 51 51 53 54 53 54 55 55 55 55 54 55 56 52 47 47 47 51 51 49 45 47 49 47 46 48 49
78 71 67 65 71 63 60 61 59 58 59 50 49 48 40 42 39 44 46 47 48 50 48 49 51 52 51 47 49 50 50 50 49 44 48 49 48 48 43 43 46 45 44 44 44
80 74 68 68 69 70 59 56 57 63 61 60 53 51 49 43 37 39 42 42 42 44 46 46 50 51 41 41 47 46 49 50 46 41 42 43 42 43 40 42 43 43 42 41 41
79 72 71 69 69 67 64 59 60 61 59 60 59 54 51 47 48 41 36 35 41 45 45 48 50 40 40 44 46 45 43 41 37 39 41 41 42 41 37 40 40 39 40 42 44
79 75 72 69 68 66 65 67 64 63 61 58 57 56 52 47 45 49 52 48 47 45 47 45 41 33 41 40 39 39 35 34 35 37 43 42 40 37 37 36 38 41 43 47 49
75 75 72 70 67 65 65 64 61 56 56 52 54 52 47 51 46 49 49 49 46 45 45 46 35 38 37 37 38 34 37 35 38 38 41 42 42 39 34 36 42 46 49 51 50
65 59 61 57 59 56 55 56 52 52 53 53 48 47 47 46 47 47 47 47 46 44 43 40 36 34 35 35 34 36 36 38 38 41 41 41 46 36 36 41 47 51 53 49 48
51 58 55 54 52 49 50 53 49 48 51 51 51 48 46 44 46 45 45 43 43 42 40 37 35 35 35 34 36 35 40 39 41 42 42 34 51 37 39 44 49 44 45 44 46
47 47 49 51 48 46 43 34 40 47 49 46 46 43 44 42 42 43 41 41 41 37 35 32 33 32 32 34 36 36 38 39 39 39 41 30 44 42 38 40 41 35 35 38 40
42 45 42 34 41 48 50 43 43 44 44 45 42 40 37 36 37 39 38 36 34 32 30 32 32 35 36 35 36 37 38 38 39 41 41 34 44 44 37 37 36 36 35 35 35
41 40 41 42 37 37 42 42 45 45 47 45 42 40 36 36 37 36 36 34 32 30 32 32 34 34 35 37 36 35 37 38 43 43 39 36 42 35 35 33 32 33 34 36 34
35 34 43 35 38 42 42 45 46 48 51 46 41 36 35 34 35 33 31 30 30 30 31 31 31 33 34 37 39 40 40 39 43 43 43 41 35 34 31 32 27 26 27 35 36
35 36 42 38 47 44 44 46 48 41 39 38 34 31 30 29 29 26 27 30 29 28 29 30 32 34 37 39 41 42 45 41 42 40 40 36 33 34 30 27 27 25 22 23 27
36 44 48 48 48 44 42 44 42 37 30 29 30 28 25 24 23 25 27 28 29 30 31 32 35 36 40 41 44 44 48 49 49 38 37 35 33 29 24 24 29 26 12 16 19
35 37 37 37 41 40 40 34 26 26 29 26 21 21 20 20 22 25 26 27 29 30 32 34 37 38 41 43 46 44 42 44 52 49 38 37 33 23 21 19 16 17 11 14 14
33 31 32 37 37 35 31 26 24 20 19 20 20 19 20 21 23 25 27 29 31 32 34 36 39 40 41 42 40 40 39 41 48 55 43 36 20 32 24 23 13 11 16 12 13
29 30 34 32 32 29 22 22 20 20 18 19 18 19 20 22 25 27 28 31 31 33 35 36 37 38 38 35 35 33 35 38 42 53 50 50 29 28 26 18 24 12 14 9 8
25 30 31 32 26 24 18 17 17 15 17 19 19 21 23 24 25 26 29 31 31 33 35 37 36 35 32 32 33 33 33 32 40 40 56 46 38 23 18 25 20 13 5 4 5
30 31 26 26 23 17 16 12 11 16 17 18 20 20 21 23 26 29 30 30 31 33 36 37 36 34 32 31 30 35 32 29 40 38 52 47 37 18 19 19 13 12 15 9 6
32 30 24 19 20 16 13 14 16 17 17 16 18 20 23 26 28 29 30 31 34 33 31 32 34 33 28 23 29 30 24 22 28 32 39 34 30 19 17 24 22 17 13 3 7

GFSSW_500_spd_102.txt.gz
Wind_Speed
36 38 40 40 43 47 47 48 47 46 44 45 44 43 44 41 38 39 37 35 39 38 38 37 37 39 38 36 38 39 42 41 36 34 33 34 36 35 39 37 38 38 37 37 39
38 40 39 40 42 42 44 46 46 46 44 42 45 43 44 43 40 40 40 39 38 39 40 40 40 41 43 42 42 43 45 43 43 41 42 38 40 38 40 41 38 38 39 39 40
41 41 42 42 41 42 43 45 47 45 44 43 42 44 45 45 44 41 43 41 40 41 41 43 43 43 45 48 48 48 48 45 46 45 44 42 38 41 41 40 39 40 42 42 41
45 46 47 47 46 45 46 46 45 46 45 46 46 45 44 46 47 48 46 44 44 44 45 45 45 47 47 48 48 51 49 47 49 50 46 45 40 38 38 38 38 38 40 45 45
51 51 52 52 51 51 49 51 49 47 46 48 49 47 47 44 44 51 50 49 49 51 50 50 52 53 50 49 50 51 50 51 51 50 49 47 47 45 42 39 37 39 41 43 48
57 59 58 59 58 56 57 54 53 52 49 51 50 49 50 47 47 43 45 44 50 53 53 55 55 55 55 53 51 52 53 54 54 54 53 53 52 54 49 41 45 43 43 45 48
62 61 64 64 65 65 63 63 60 58 54 52 52 52 52 44 52 45 45 46 48 49 50 50 51 53 56 58 57 56 56 55 55 54 56 55 56 54 52 50 44 45 46 47 50
69 70 71 73 71 71 70 71 68 65 58 54 55 54 51 51 53 50 47 43 47 49 52 51 52 52 54 54 54 54 55 54 53 54 54 58 57 52 53 52 50 46 46 47 48
75 76 79 76 77 72 73 71 72 67 64 61 58 56 55 54 52 53 48 44 43 43 45 48 49 50 51 48 50 52 50 52 54 52 52 54 54 52 50 47 47 48 47 47 47
80 81 79 76 73 73 73 70 73 67 66 61 61 60 58 57 56 56 53 50 50 43 42 43 45 47 44 43 47 49 52 52 50 48 49 48 50 52 51 49 47 45 45 45 46
87 88 80 76 73 74 73 68 75 72 67 64 59 55 57 59 59 58 57 54 51 49 42 40 42 42 41 46 48 49 49 48 46 46 49 47 49 47 45 45 41 39 41 44 49
86 83 80 77 74 74 72 70 75 72 72 65 62 59 59 60 58 59 58 55 53 51 50 50 49 45 47 48 48 49 46 42 42 42 49 46 43 41 37 36 39 40 42 48 49
82 76 75 73 70 69 69 59 68 66 67 64 63 62 62 62 58 56 55 54 51 52 52 51 50 48 48 46 47 43 43 42 43 41 42 42 41 34 35 36 37 41 48 51 51
70 67 64 62 62 61 62 66 61 63 70 62 58 60 58 57 55 50 50 50 51 50 49 49 46 45 43 41 41 42 41 40 39 40 38 37 41 34 33 36 39 45 51 53 53
54 54 54 53 52 52 54 53 52 57 58 48 49 53 51 51 49 49 48 49 48 49 48 46 45 43 40 37 38 35 35 35 37 38 37 41 41 31 39 36 41 49 52 55 56
47 49 48 47 48 52 51 51 55 45 47 48 46 46 46 46 45 48 50 48 48 48 46 42 40 38 37 36 36 34 35 36 37 39 40 40 44 33 36 40 42 46 50 52 53
45 45 40 39 43 36 46 48 42 44 45 39 34 37 41 42 41 45 47 46 45 43 42 40 36 35 33 34 34 35 36 39 40 40 37 39 44 37 37 38 40 44 50 53 52
42 41 38 36 41 43 38 36 45 48 45 38 39 39 38 41 41 41 40 42 40 36 34 33 33 34 34 33 35 37 37 38 42 42 40 40 43 40 39 38 41 44 47 48 48
37 39 37 31 32 41 45 45 38 38 42 46 43 40 44 43 38 39 41 34 31 32 33 31 31 33 33 35 35 37 37 40 42 43 44 41 42 41 41 41 40 43 43 44 37
33 28 44 37 41 37 40 41 40 41 44 46 46 43 45 42 40 36 33 32 34 33 29 30 30 32 33 36 38 40 41 41 43 43 46 43 46 47 45 41 38 38 37 37 34
37 40 35 39 37 40 42 44 42 47 51 45 44 40 30 34 34 31 32 28 27 26 24 26 31 34 33 36 38 39 42 44 44 45 48 49 49 48 40 38 37 34 33 33 32
38 35 41 40 44 41 39 46 48 49 49 40 31 25 27 28 24 25 22 22 24 25 25 29 33 34 37 38 39 40 41 44 47 48 50 51 50 44 42 39 28 25 21 25 25
37 40 42 41 41 39 38 36 42 40 34 32 28 26 23 18 18 18 20 23 25 26 30 29 32 35 39 40 40 42 46 48 48 48 48 49 46 39 38 36 32 24 20 19 20
31 33 36 34 33 29 28 32 31 28 29 25 23 17 11 15 19 21 24 25 27 29 30 34 35 35 38 41 44 44 43 43 46 46 41 43 37 34 34 23 19 15 14 13 19
33 30 31 25 22 26 27 25 27 21 16 11 14 14 16 21 23 25 25 27 29 32 35 36 35 37 40 43 44 46 44 37 43 43 43 33 35 31 39 22 16 17 18 13 7
28 29 25 23 24 25 25 22 17 15 13 13 14 16 19 22 23 25 27 29 32 34 34 36 38 40 41 41 43 43 37 39 40 39 42 38 28 30 38 30 18 15 12 11 13
22 26 24 21 26 26 20 16 11 9 10 13 17 18 20 22 24 27 30 32 34 35 37 39 39 40 39 36 39 33 26 30 30 33 36 31 14 23 32 36 17 12 18 11 5

GFSSW_500_spd_105.txt.gz
Wind_Speed
30 30 29 30 30 28 30 30 31 32 34 36 36 38 38 36 36 37 37 36 35 35 34 34 36 38 38 37 37 36 40 37 31 31 31 31 33 34 35 36 35 34 36 38 37
30 31 31 31 31 30 31 30 32 31 33 35 36 39 39 35 35 39 36 36 37 36 35 37 36 37 41 40 41 40 41 40 38 36 37 37 38 35 36 36 35 35 36 39 37
34 34 36 35 35 34 35 35 35 35 35 35 34 37 39 39 37 38 40 38 38 39 40 40 39 40 40 41 41 43 42 41 43 42 42 41 38 42 39 36 33 34 35 40 40
40 40 41 41 38 39 38 37 39 39 39 38 38 37 38 41 41 41 40 38 37 39 42 44 44 44 46 46 44 46 44 43 44 45 45 45 46 43 43 40 35 36 36 37 42
47 46 46 46 46 44 43 42 42 40 45 44 43 41 42 43 46 46 44 40 39 37 36 39 43 48 48 49 51 51 51 49 48 47 46 48 49 49 47 43 44 41 41 41 42
52 51 52 52 55 55 53 52 50 49 49 49 49 47 47 46 46 48 49 46 43 43 45 43 40 42 44 45 47 51 53 54 53 50 51 51 52 54 47 45 47 48 44 42 43
59 59 61 60 61 62 63 65 61 60 57 60 58 55 51 51 50 50 49 52 48 47 48 48 47 45 45 44 45 46 48 49 51 52 54 54 55 54 53 51 51 50 47 45 44
67 67 66 69 70 70 71 72 72 72 68 67 67 65 60 55 55 55 53 51 53 56 52 49 50 48 45 49 49 47 49 49 50 51 52 53 53 52 52 51 49 47 47 47 45
71 71 73 71 76 75 76 73 77 73 75 73 74 72 68 61 57 56 55 56 57 56 53 53 51 47 47 45 46 48 47 48 50 51 49 49 50 49 48 49 48 47 45 45 46
75 76 77 75 75 74 75 71 76 74 76 77 79 75 73 70 65 61 56 59 60 59 57 56 54 52 51 43 45 48 48 46 46 43 45 46 45 47 49 48 45 44 46 47 48
77 79 78 80 78 76 77 75 76 78 81 76 75 77 79 71 62 62 61 60 61 62 61 57 57 56 48 48 49 48 46 44 42 44 46 44 44 44 46 47 45 44 46 47 46
77 75 78 82 80 80 81 78 75 77 73 73 73 75 71 69 67 64 61 59 58 57 58 58 56 53 54 54 51 50 49 48 47 45 48 45 41 41 40 39 41 42 40 40 42
70 72 76 78 76 80 80 68 69 69 70 65 67 68 62 60 61 60 61 60 59 56 55 55 54 53 54 54 54 53 51 48 47 45 47 49 46 38 34 34 36 37 38 40 41
64 65 70 67 71 68 62 60 58 58 61 55 52 54 60 60 57 50 60 58 58 54 55 56 54 51 51 51 51 49 46 47 44 45 42 42 48 44 33 32 33 35 39 41 43
61 59 57 55 58 49 47 47 45 46 57 46 46 52 45 47 54 55 55 52 50 49 49 49 52 51 49 45 45 43 43 40 40 40 41 40 39 41 40 34 33 34 39 43 45
56 54 50 46 42 42 42 38 37 37 42 47 39 37 44 46 43 43 50 50 49 49 49 50 50 46 42 42 41 38 37 36 35 36 41 38 36 33 37 39 36 36 38 42 45
50 48 46 43 44 41 36 34 41 50 49 46 47 45 41 42 45 39 38 43 48 49 50 48 44 42 41 39 36 31 30 33 36 36 38 38 36 27 36 36 38 39 41 44 46
45 45 43 42 43 34 36 32 35 36 38 41 41 30 36 38 34 31 36 39 42 46 48 45 41 39 35 33 30 30 32 35 37 37 36 36 34 33 36 36 37 39 41 45 46
40 40 39 38 35 40 35 37 42 40 34 28 32 36 42 48 41 37 38 38 42 45 40 34 32 29 28 29 30 31 31 31 32 34 37 37 36 36 36 38 39 41 43 43 46
38 34 31 34 38 34 35 33 35 38 39 39 39 38 38 39 38 39 40 39 39 32 27 21 24 26 25 27 30 29 29 31 34 37 40 38 40 39 37 39 40 42 42 39 43
31 37 33 30 33 35 35 41 33 30 35 36 42 41 41 41 42 42 41 41 36 28 21 24 28 24 25 27 28 31 34 35 37 39 40 40 40 40 43 44 44 44 44 38 37
46 46 44 36 36 30 33 33 33 34 41 44 44 43 46 39 30 37 36 32 28 21 16 16 23 27 29 30 30 33 35 37 39 39 41 43 42 47 47 45 45 43 41 34 30
33 49 52 46 39 40 38 37 37 42 42 40 45 46 28 28 27 28 31 30 22 16 18 22 29 28 29 30 32 35 36 38 40 44 45 48 47 49 49 45 42 41 36 27 31
29 29 34 42 43 35 36 39 37 36 32 29 28 33 25 26 28 30 25 22 15 20 23 25 27 29 31 34 35 35 38 42 45 48 47 51 46 41 39 38 34 36 26 24 17
35 31 29 31 37 35 34 33 32 27 25 23 25 29 28 28 30 21 16 16 19 23 24 26 28 31 34 36 37 39 42 43 45 45 51 46 43 30 33 31 28 26 23 24 14
33 36 31 29 30 30 28 25 22 23 22 22 24 22 19 16 14 14 15 20 23 24 27 30 33 35 36 37 39 41 42 42 42 41 45 43 35 31 28 28 24 27 21 18 13
27 32 31 28 25 25 21 21 23 21 18 15 11 8 7 11 15 19 21 23 26 28 31 35 37 39 40 39 41 42 37 37 36 32 34 36 32 28 24 19 27 28 15 14 10

GFSSW_500_spd_108.txt.gz
Wind_Speed
36 35 32 30 30 28 28 24 20 21 22 23 24 23 24 25 26 26 25 26 27 28 30 30 30 32 33 34 36 37 41 40 32 31 32 29 30 32 32 32 31 32 34 34 35
35 34 31 31 30 29 27 25 24 24 23 25 25 24 24 24 27 28 27 28 26 28 32 33 33 33 34 35 37 37 41 40 38 37 35 36 36 35 34 35 33 33 35 37 37
36 34 33 32 32 32 31 29 29 28 27 26 28 28 27 27 27 29 31 32 31 29 32 35 36 38 35 36 38 40 39 39 38 39 40 39 37 40 38 38 36 37 39 40 37
41 39 38 37 37 36 37 35 34 34 32 31 31 30 30 31 32 33 30 34 36 35 34 35 36 38 38 38 39 40 42 43 44 44 45 43 42 41 42 42 42 41 40 39 39
44 43 41 40 40 44 45 42 41 40 40 39 38 37 38 39 39 40 37 35 35 37 39 40 38 39 41 39 37 36 39 43 46 47 47 47 45 45 45 43 46 44 43 41 42
45 45 46 45 49 53 49 48 49 48 48 48 46 47 47 49 47 48 48 44 41 38 40 42 45 42 45 46 43 43 42 42 43 44 48 50 50 50 45 48 47 46 47 43 43
52 53 55 53 52 54 56 55 56 57 56 56 54 55 54 56 58 59 56 56 50 47 45 45 44 46 47 49 45 44 44 46 47 46 47 49 49 49 49 48 48 47 47 45 44
57 59 60 62 60 59 61 60 62 64 63 64 64 60 62 63 63 63 64 62 57 55 53 50 49 52 49 51 51 48 46 44 47 47 51 51 48 50 46 46 44 44 44 43 44
64 64 66 65 66 65 66 68 65 65 65 66 66 66 64 67 67 64 65 64 63 58 59 59 56 55 56 55 54 53 50 50 49 48 46 47 47 46 45 44 43 41 42 43 44
68 68 70 70 70 71 72 72 71 71 71 73 67 69 67 68 71 72 72 70 66 63 63 63 62 60 60 59 54 52 57 52 52 50 47 49 48 48 45 44 41 42 42 44 43
73 72 72 69 72 71 71 71 72 73 71 68 70 70 69 72 76 78 79 78 70 66 62 63 66 66 63 61 59 61 59 56 54 50 51 49 49 47 45 43 42 42 43 42 44
76 74 69 67 67 63 66 66 65 68 73 74 71 73 73 74 78 75 75 74 71 62 63 66 64 62 66 64 64 61 60 57 56 53 52 50 48 48 46 45 44 42 43 42 42
69 65 65 65 64 67 64 66 67 67 72 68 67 69 71 72 69 68 71 68 69 64 65 63 57 58 59 57 56 56 57 56 55 54 53 53 53 50 47 45 43 41 42 42 41
64 62 65 60 62 63 63 63 61 61 61 60 62 63 61 60 60 52 56 54 50 53 52 60 55 55 54 53 52 52 52 51 51 50 48 52 50 54 46 40 37 38 40 40 42
58 60 60 54 60 58 54 57 55 43 49 51 51 46 45 37 36 38 46 55 55 53 53 51 52 53 54 51 50 48 50 49 48 47 47 45 47 43 47 38 35 36 38 41 43
55 54 55 54 51 48 47 45 41 42 46 43 33 31 32 36 36 26 34 42 43 50 50 50 54 52 51 51 48 45 43 43 43 44 46 43 41 36 43 43 38 36 35 37 40
51 50 51 52 48 43 42 42 42 47 45 39 39 38 43 41 38 42 34 34 39 40 42 45 49 48 49 49 46 39 36 34 37 41 41 41 38 33 41 39 37 34 32 35 38
49 50 47 45 43 41 41 42 47 42 37 37 35 28 28 33 36 29 28 36 48 40 37 39 44 42 44 43 37 34 32 27 23 23 24 39 38 40 38 35 35 35 37 37 38
49 46 44 44 42 41 38 40 46 38 34 33 32 30 25 23 28 36 36 37 40 31 34 39 42 48 43 41 42 39 32 34 32 35 38 36 33 33 33 33 33 36 37 38 39
47 42 42 42 41 39 41 46 36 39 34 33 36 36 40 38 38 36 34 31 31 34 36 38 35 31 35 35 36 33 30 28 32 32 30 28 30 32 32 32 34 37 38 40 42
44 44 42 44 35 37 39 44 35 35 35 35 30 33 33 32 35 36 36 35 34 32 29 27 32 33 32 30 28 25 26 27 26 28 32 33 30 35 34 36 38 39 42 45 47
43 42 40 35 42 44 37 33 35 38 37 37 36 31 33 38 40 37 38 39 34 32 38 33 34 32 27 21 21 21 23 26 31 32 32 35 35 38 38 39 42 45 47 48 49
42 42 46 43 47 44 37 31 32 38 29 32 32 37 41 37 36 36 35 32 30 26 29 30 28 23 20 21 22 25 27 29 30 32 34 34 39 41 41 43 46 50 50 50 50
41 42 59 52 50 48 38 38 31 33 35 37 37 38 33 26 27 29 23 26 28 30 30 26 21 19 22 26 23 27 29 30 32 36 36 41 40 43 47 48 50 49 51 50 45
41 44 31 31 45 41 47 43 39 35 35 38 39 35 29 25 26 33 32 27 26 26 25 20 17 20 25 27 27 30 32 33 37 38 44 41 46 44 46 46 44 45 44 38 32
43 43 36 30 30 29 36 39 38 36 35 33 30 25 21 24 26 27 30 29 24 18 15 18 21 24 27 29 32 34 34 36 39 42 47 47 47 44 43 41 39 35 30 27 27
38 39 37 35 33 29 26 31 33 33 28 24 20 20 22 23 26 24 22 18 15 17 21 24 26 29 33 31 35 38 36 38 42 44 44 42 37 40 37 33 27 26 24 26 20

GFSSW_500_spd_111.txt.gz
Wind_Speed
45 48 47 47 44 40 39 34 32 30 28 24 22 20 16 17 18 19 19 19 20 19 21 23 26 26 28 28 28 29 33 34 31 34 31 36 34 36 34 34 37 35 32 33 32
48 48 47 43 39 35 34 33 29 30 28 26 24 23 21 20 20 19 22 21 23 24 23 24 25 27 28 28 31 32 34 32 35 35 34 36 38 36 40 37 39 37 37 38 37
47 45 42 40 39 36 36 35 32 31 32 29 27 27 26 24 23 21 24 24 24 27 30 30 30 29 29 30 30 32 33 36 37 39 34 37 37 38 39 39 42 43 43 42 40
44 42 42 41 41 38 39 39 37 32 34 33 32 30 29 28 30 29 31 30 31 31 32 32 34 36 35 34 34 34 31 34 37 42 39 39 41 42 42 43 44 43 47 45 45
44 44 43 43 42 43 43 40 42 38 39 42 39 38 37 37 38 38 39 40 40 40 43 42 39 38 37 39 39 36 37 39 39 39 40 40 44 45 46 47 46 47 46 44 44
45 48 47 51 49 47 43 42 44 42 46 48 46 45 45 44 44 46 47 49 49 49 50 51 52 50 47 43 42 41 41 39 42 44 43 45 44 45 45 45 49 50 49 49 48
51 52 50 55 51 48 49 48 51 48 49 51 53 51 51 48 51 52 53 54 56 55 55 56 58 58 53 50 47 46 47 48 43 45 45 46 45 46 48 48 47 47 47 48 48
55 54 56 54 59 55 54 54 55 59 57 55 56 58 54 53 52 55 57 55 57 57 58 59 58 59 59 60 61 61 56 54 50 51 50 48 45 47 49 47 43 45 45 46 46
60 60 58 61 59 63 63 62 61 63 62 63 61 63 62 61 57 57 56 56 59 60 59 59 60 61 61 64 67 68 65 57 57 59 57 53 49 49 49 49 43 42 42 44 45
62 63 64 60 64 65 65 69 68 68 67 66 66 65 62 62 61 58 59 60 63 65 66 68 69 70 71 69 68 62 62 64 63 58 64 60 53 52 51 51 50 44 44 44 45
62 64 66 65 67 64 69 72 70 71 69 66 67 65 59 56 58 63 66 68 70 71 73 74 75 73 71 68 67 67 68 67 67 65 70 64 60 57 55 55 51 47 47 44 46
65 67 67 69 67 67 67 69 68 69 68 64 59 60 60 62 63 65 70 69 74 73 73 75 79 73 65 66 69 68 71 68 65 67 67 66 63 59 56 53 51 47 47 49 47
68 67 69 70 67 66 61 60 60 60 65 59 61 61 62 67 65 65 68 69 72 72 70 68 70 67 70 65 64 66 64 63 60 59 62 63 60 56 53 54 52 52 48 52 49
64 62 60 64 64 60 57 57 57 62 66 59 62 62 67 65 66 61 65 64 67 67 60 59 55 50 49 55 51 58 53 56 54 52 56 43 42 28 45 53 51 49 50 52 46
59 58 55 55 56 54 53 55 56 57 53 62 65 63 61 57 55 55 52 53 54 52 51 51 51 52 56 49 50 52 51 54 48 48 47 47 43 46 35 30 54 48 48 43 43
58 56 54 54 53 51 51 53 51 50 56 57 57 54 51 47 41 39 40 38 39 44 43 41 48 48 45 47 49 54 51 52 51 49 51 44 37 38 27 34 36 54 40 39 40
56 55 55 53 50 51 51 50 49 50 55 54 48 44 38 37 37 40 38 39 37 40 38 39 42 43 42 43 46 50 58 42 34 39 45 36 26 29 31 36 40 43 34 35 38
54 54 53 51 48 48 46 45 51 48 47 47 45 34 34 35 36 32 33 34 32 27 28 31 37 42 42 42 38 39 31 31 25 24 19 21 28 30 40 41 43 41 39 35 36
52 51 48 48 48 48 45 49 50 41 42 45 37 32 34 33 28 31 28 25 28 35 34 33 31 29 31 35 35 30 23 21 27 29 26 21 14 28 33 37 40 39 37 36 35
48 48 47 47 48 46 45 49 44 44 43 42 38 36 31 33 35 32 37 39 35 36 30 25 25 31 37 39 39 36 37 35 39 39 34 29 28 22 34 34 32 31 32 34 36
50 51 49 49 48 45 48 46 43 42 40 38 40 39 34 29 31 30 31 35 35 32 30 30 29 36 36 33 33 34 37 41 43 37 27 24 18 30 32 35 35 31 32 35 38
54 53 50 49 51 46 45 45 45 32 39 38 47 36 38 33 35 32 34 40 39 33 29 31 29 30 32 42 30 30 32 32 34 31 31 29 26 31 31 38 40 38 39 41 42
53 55 53 49 51 48 46 42 43 44 34 37 36 41 33 32 35 35 40 37 32 32 28 24 34 33 38 40 40 37 33 31 27 22 23 26 24 32 34 37 38 41 42 44 46
53 53 54 53 48 46 43 48 39 40 36 33 31 31 31 32 37 40 41 33 29 33 27 27 30 35 35 31 34 24 19 18 22 25 24 31 32 35 38 40 42 46 42 46 51
52 55 51 49 45 43 44 43 51 40 43 35 35 37 37 43 43 43 35 28 27 24 25 29 31 34 33 33 27 21 21 25 29 28 33 31 34 36 37 44 50 48 51 51 49
41 42 41 39 36 43 47 53 45 39 44 45 39 37 40 42 42 35 25 25 34 29 26 30 32 26 21 24 23 25 29 29 31 32 36 37 38 38 44 47 50 51 50 45 43
38 39 39 42 39 39 27 38 38 42 41 44 41 41 40 37 29 23 22 22 24 29 27 24 21 20 21 26 29 34 34 33 35 38 39 40 39 45 47 50 45 44 38 33 28

GFSSW_500_spd_114.txt.gz
Wind_Speed
46 44 43 42 41 41 45 45 46 43 39 36 33 30 24 22 23 18 16 17 15 14 16 16 18 18 20 21 25 26 30 29 23 27 27 35 41 38 38 36 38 40 37 34 38
49 47 47 45 46 44 45 44 44 39 36 36 32 32 26 24 24 21 19 18 17 16 17 18 18 20 21 23 25 26 29 26 29 30 35 31 34 37 37 41 39 41 44 39 38
53 51 51 50 48 48 45 42 39 38 36 36 33 32 29 27 25 20 19 19 20 22 22 22 22 23 23 26 27 28 28 28 31 33 35 33 33 36 37 38 41 42 43 43 44
55 55 53 52 50 47 44 42 41 39 37 36 34 32 33 30 27 29 25 29 26 28 30 32 33 35 35 33 32 34 31 30 31 34 36 35 32 35 40 40 43 43 44 44 46
53 52 50 50 47 45 43 42 42 41 39 39 38 37 37 36 32 39 35 35 36 36 38 41 41 43 44 44 43 43 40 37 37 37 36 38 38 39 38 39 41 46 48 48 50
49 48 48 48 47 46 44 44 44 44 43 45 44 42 43 40 41 43 41 40 41 41 42 46 49 50 49 49 50 50 51 49 47 41 39 45 45 42 39 40 42 43 44 45 46
47 47 48 48 49 48 50 52 52 52 51 50 48 47 47 43 44 47 48 46 48 47 49 49 51 51 51 52 54 56 56 55 52 49 50 52 53 49 49 46 42 42 39 42 44
50 53 54 56 55 52 55 53 53 56 55 53 53 54 52 50 54 51 53 52 53 56 55 53 52 49 49 51 52 56 58 58 56 57 56 58 56 56 54 56 53 45 41 41 43
59 60 59 59 58 62 60 59 57 57 59 64 60 60 59 56 57 58 57 56 55 54 52 52 51 51 54 56 57 60 61 62 58 63 61 68 64 64 63 59 57 55 49 47 46
59 59 61 60 58 61 61 63 64 63 62 64 67 68 65 65 63 62 60 61 57 54 50 51 55 56 59 61 62 64 68 68 68 61 28 45 74 72 70 65 61 59 51 50 49
62 62 62 61 59 58 62 65 61 62 67 60 63 65 66 65 65 62 64 56 54 53 56 60 60 61 65 66 69 72 74 75 74 71 56 52 59 73 74 70 68 61 61 52 49
61 61 61 61 62 64 63 62 65 71 69 64 63 58 59 60 63 55 55 56 57 59 62 67 68 69 71 70 67 68 72 75 74 71 68 64 63 71 72 74 70 59 55 58 51
61 62 63 63 62 62 61 61 66 66 69 65 64 57 53 57 53 51 57 58 62 66 67 70 67 68 70 73 67 67 60 61 59 59 61 60 57 61 70 63 55 54 54 49 51
64 63 64 65 64 62 63 61 60 62 64 59 60 57 56 57 56 57 59 59 63 65 64 69 66 64 65 68 51 50 49 41 38 42 49 47 51 46 59 46 43 44 39 54 60
64 63 61 60 59 56 53 56 57 59 58 56 58 55 57 58 55 58 58 56 55 55 56 63 58 56 52 49 44 43 45 52 53 56 51 46 52 46 41 29 40 40 50 49 47
60 61 59 57 55 53 54 55 55 54 58 57 58 57 52 51 51 49 48 52 52 48 45 48 40 40 42 38 41 44 46 43 45 48 51 51 45 43 38 32 38 49 50 40 35
61 60 59 57 54 52 54 55 53 56 56 55 54 56 52 49 45 44 39 40 40 44 46 41 39 36 36 39 42 46 42 43 45 44 44 35 33 33 33 40 45 47 40 37 32
61 61 59 57 57 54 55 57 59 55 54 47 48 46 48 42 36 37 36 35 37 36 37 32 36 28 31 30 32 36 41 41 33 31 28 25 31 26 31 35 39 42 43 40 33
62 62 58 56 56 54 55 59 60 48 49 45 40 42 39 33 31 33 37 33 27 32 29 27 32 30 28 30 29 28 26 22 24 21 26 25 21 21 28 29 34 38 40 31 43
58 57 55 55 55 55 56 59 54 47 47 41 41 33 36 34 27 32 30 31 31 30 33 32 33 31 28 27 30 27 29 29 30 30 33 26 22 29 29 25 31 37 41 45 48
57 57 55 53 53 54 57 54 46 44 42 42 39 36 33 28 23 31 33 32 31 28 30 28 32 29 28 29 31 31 35 38 34 34 34 40 38 40 37 35 32 26 33 37 35
60 59 53 52 55 57 54 49 45 42 37 40 41 37 35 32 39 39 38 37 36 33 33 39 34 32 29 34 35 35 34 34 33 32 38 45 43 38 33 30 36 44 45 33 33
60 58 56 55 58 53 50 49 45 41 37 41 38 35 35 38 42 39 36 37 36 36 41 39 35 31 30 33 35 36 34 34 37 40 39 38 40 38 33 33 38 41 43 36 31
55 56 54 55 54 53 50 48 45 38 38 41 39 30 33 35 34 41 45 37 34 41 42 40 30 30 30 26 29 34 36 33 30 37 30 35 26 26 31 36 39 40 40 37 36
54 53 51 49 49 51 49 46 43 38 42 40 47 42 38 34 34 38 35 39 41 45 41 36 31 33 31 33 40 41 42 38 36 28 28 21 28 29 34 43 46 42 41 44 45
54 54 51 47 46 53 46 41 40 45 43 46 41 31 37 39 35 37 41 42 44 42 34 30 25 25 26 32 37 42 42 33 27 24 29 32 34 33 38 43 42 44 45 48 48
53 52 52 50 49 48 39 42 45 43 43 39 38 42 40 40 46 43 40 44 39 31 24 27 29 30 31 35 35 35 28 30 29 32 35 38 40 42 38 39 45 46 48 50 50

GFSSW_500_spd_117.txt.gz
Wind_Speed
47 48 47 46 45 44 43 41 41 40 39 39 41 38 35 31 31 27 24 22 20 18 13 14 16 16 16 17 19 24 24 18 19 23 21 30 38 39 36 36 35 37 38 39 39
51 50 49 49 48 47 46 45 44 43 42 42 41 38 34 30 30 25 23 23 19 17 13 12 12 13 13 16 17 22 22 18 21 23 26 28 31 31 38 35 37 40 44 42 40
53 52 51 51 50 50 50 48 48 46 45 42 39 38 34 32 30 24 23 25 22 19 18 20 20 21 22 24 25 27 23 23 21 24 27 29 27 27 31 36 35 38 39 43 45
54 53 53 53 52 52 52 52 52 47 44 39 38 38 36 31 28 32 23 27 26 27 26 28 28 29 31 32 33 35 33 33 31 31 31 30 31 29 30 32 32 35 40 43 43
55 54 55 55 55 54 53 52 51 46 43 40 40 39 39 34 28 37 31 31 34 35 35 35 35 37 38 38 40 41 43 42 40 40 39 37 35 36 35 31 34 38 41 41 41
58 58 58 56 55 52 51 50 47 44 41 41 40 41 41 35 37 39 38 33 35 39 42 44 42 43 44 44 47 47 49 48 47 44 43 44 43 46 41 41 41 41 40 42 40
53 53 52 49 49 49 50 47 45 45 42 43 44 45 44 38 42 48 47 43 38 41 44 44 47 48 48 48 51 51 51 50 49 46 49 48 50 47 47 50 49 47 46 46 45
52 49 51 48 54 51 50 46 51 52 48 45 48 49 49 50 49 49 51 48 51 48 49 51 53 52 50 52 52 54 52 49 48 49 49 53 53 52 53 56 57 58 55 52 49
50 50 51 53 52 51 51 59 51 48 50 53 55 51 51 52 54 54 56 57 58 57 53 52 53 54 55 54 52 50 50 51 50 55 56 52 57 60 64 67 67 67 67 66 58
59 60 59 57 53 58 60 55 55 57 55 53 53 54 57 57 58 57 57 59 62 63 62 55 53 55 49 48 50 53 57 57 57 62 63 64 64 66 67 67 68 69 70 68 57
57 58 60 60 61 59 58 59 59 58 57 57 59 60 61 60 66 65 58 57 48 51 53 50 49 48 49 53 56 59 62 65 66 67 72 72 69 63 59 59 67 69 71 71 52
61 64 63 58 61 61 58 61 63 61 63 62 63 57 50 51 59 62 59 54 51 47 45 46 46 51 55 57 60 64 67 69 71 71 71 75 78 77 57 59 58 60 62 59 56
63 61 61 59 57 57 59 56 59 62 61 54 54 52 54 56 51 52 58 56 54 53 52 50 52 56 58 60 64 66 70 71 71 71 77 71 75 74 66 55 51 59 60 51 49
61 62 62 62 60 59 57 60 61 61 59 53 57 54 53 50 48 46 48 50 52 53 55 57 56 56 56 59 53 62 54 48 48 57 59 53 63 46 45 40 33 33 39 44 50
67 66 64 61 62 62 59 59 58 58 57 51 56 53 49 44 45 47 47 49 47 49 55 54 56 56 58 54 49 52 45 45 42 41 42 42 52 44 40 40 36 48 43 45 55
65 65 65 63 63 63 57 56 55 53 54 50 52 50 48 47 47 47 49 51 52 53 51 52 48 49 45 41 42 41 41 39 43 43 47 40 43 34 30 33 42 41 43 41 49
62 61 61 59 57 58 58 57 53 53 51 47 49 50 48 47 48 47 44 45 48 48 46 43 40 36 35 37 38 36 36 37 39 44 41 36 39 29 30 29 33 43 44 43 43
64 62 61 59 58 58 61 58 57 48 49 46 49 50 46 46 49 48 44 40 37 36 37 35 32 28 27 30 28 30 35 36 34 31 24 21 25 33 32 33 27 43 39 46 50
65 62 61 60 60 60 61 62 59 48 47 47 45 48 47 45 47 47 36 37 31 30 30 29 30 31 26 25 30 31 32 31 31 27 25 22 21 30 32 25 27 24 30 36 42
67 65 61 60 58 59 61 62 56 49 47 47 49 48 44 46 40 36 37 31 30 28 28 28 29 28 26 27 30 33 32 34 31 28 26 26 18 30 26 24 22 36 27 25 30
67 66 60 59 59 61 63 62 53 48 44 46 42 44 42 42 34 34 30 32 33 33 32 29 31 29 26 28 29 32 33 33 32 31 31 33 28 27 37 40 33 32 29 29 30
67 67 62 60 59 57 59 52 49 45 47 42 43 42 36 35 34 33 31 31 27 27 35 36 37 35 31 36 33 32 34 33 32 34 33 34 31 31 39 44 50 53 44 35 44
69 67 63 61 61 59 54 51 48 44 44 43 43 36 35 34 35 32 29 38 38 39 39 34 38 37 37 40 34 35 33 33 36 37 36 36 37 32 38 44 48 47 54 48 39
66 64 63 61 60 55 52 49 48 44 44 42 40 38 40 37 34 32 33 35 40 41 41 40 38 39 44 40 33 36 34 35 37 38 32 33 31 34 39 38 42 50 50 45 42
58 57 58 58 56 53 51 48 46 46 44 42 42 41 37 36 33 33 26 30 32 33 36 38 40 45 46 34 33 37 38 36 34 35 39 34 33 24 35 46 47 44 38 34 36
57 53 50 47 48 49 50 47 48 43 44 45 37 36 38 32 30 40 36 37 34 32 32 40 44 44 32 23 28 36 32 34 36 38 40 31 28 31 36 41 39 33 36 40 43
53 52 50 46 46 48 45 41 40 42 40 40 34 35 41 33 36 42 35 34 39 39 41 44 42 34 28 31 30 33 30 33 33 33 34 36 37 36 41 41 39 40 41 45 45

GFSSW_500_spd_120.txt.gz
Wind_Speed
49 48 48 48 45 45 47 44 44 42 40 40 39 37 36 38 39 38 31 28 28 24 21 19 21 17 17 19 20 19 16 15 18 22 22 30 33 36 37 37 39 37 39 41 42
53 50 49 50 49 47 47 46 46 44 43 41 42 39 41 36 36 37 32 26 26 23 19 17 17 13 13 14 16 17 11 11 16 18 18 22 29 31 35 39 36 35 36 39 43
54 53 52 51 50 49 48 48 46 46 45 44 44 42 42 38 33 35 32 29 26 25 22 21 23 20 19 20 23 24 20 24 21 24 24 20 20 24 27 32 32 35 35 38 40
56 56 54 52 53 49 51 49 49 47 47 46 45 43 43 37 31 36 30 33 28 27 29 27 27 27 26 27 29 31 30 32 30 32 32 32 31 27 31 25 27 35 35 37 39
56 55 55 55 53 52 51 50 50 49 49 48 45 42 41 34 34 36 33 32 31 30 35 34 35 37 33 32 34 36 36 39 38 36 36 37 38 41 36 28 35 37 38 38 40
57 57 56 55 55 54 52 52 52 51 48 48 44 38 37 32 36 36 36 34 36 35 40 40 39 40 41 39 39 39 43 43 42 42 44 45 46 47 38 42 40 40 43 45 47
59 57 57 56 55 56 53 49 49 47 44 44 42 40 36 36 37 38 38 38 38 39 38 45 44 43 46 46 47 48 49 46 46 45 49 50 50 46 47 49 50 48 46 47 49
61 60 61 58 56 52 52 53 51 48 49 52 44 46 40 41 44 44 46 45 44 45 46 48 50 53 53 53 52 54 52 52 50 48 49 51 49 48 48 51 54 55 54 54 55
54 60 64 60 59 52 50 47 49 49 47 47 48 48 44 46 45 47 44 47 47 48 48 50 54 58 61 59 59 58 57 55 52 50 50 50 49 50 53 58 59 62 64 67 70
51 49 49 50 44 45 49 53 54 49 50 50 50 45 45 46 47 48 45 47 51 53 56 55 54 55 55 57 63 61 61 56 52 53 54 57 52 53 59 63 66 69 71 72 73
53 48 49 49 53 55 55 58 57 54 51 52 50 48 48 49 53 52 50 53 48 46 51 55 52 48 48 49 50 52 54 53 51 58 60 63 61 60 61 63 63 65 64 60 62
57 55 55 55 54 55 55 53 56 55 51 49 51 50 52 55 53 52 49 45 44 44 45 43 44 48 48 49 50 53 55 56 55 62 66 67 66 66 65 66 61 40 51 51 52
64 61 61 60 57 57 55 59 61 60 56 49 48 50 51 50 50 48 52 50 49 46 42 42 44 44 46 50 53 54 59 59 63 66 66 67 69 69 66 59 52 35 43 62 60
61 60 60 60 60 57 56 57 58 57 56 51 53 48 48 48 48 44 43 43 47 45 43 46 39 43 47 52 51 54 52 59 63 63 65 62 63 64 55 41 39 40 42 46 57
62 61 60 59 57 54 55 55 54 51 51 50 53 53 46 40 39 38 39 40 40 42 43 43 45 49 50 48 50 54 49 50 51 46 41 52 47 46 40 39 41 39 38 46 51
64 64 61 61 58 58 57 57 55 53 53 51 54 52 49 43 42 41 43 42 40 41 42 43 47 50 49 49 45 46 43 41 39 37 39 33 42 34 39 39 36 40 42 39 39
61 59 58 59 57 58 58 55 54 56 52 50 52 55 52 46 44 42 43 41 43 42 40 41 41 43 46 45 35 31 31 35 35 36 36 38 39 39 32 35 35 36 39 38 38
62 59 56 54 55 55 56 55 56 51 48 47 50 49 46 45 47 46 44 43 40 40 41 42 40 36 34 30 29 29 28 28 33 35 33 34 32 29 29 29 31 38 33 31 49
63 61 58 58 57 58 59 61 54 46 45 44 44 48 43 45 48 46 47 45 42 34 37 35 35 33 26 23 24 26 28 32 37 38 37 34 31 32 35 30 24 18 26 22 25
64 63 59 59 58 59 60 61 53 49 48 49 48 47 43 42 47 48 45 46 44 38 36 31 31 21 21 21 19 23 27 30 35 37 41 38 35 32 34 29 30 30 26 33 28
63 62 59 59 59 61 64 61 53 50 50 50 46 47 44 44 44 44 45 43 41 36 32 33 29 24 22 27 28 30 34 35 34 38 40 40 38 37 37 36 33 37 39 40 36
61 59 57 58 60 60 59 55 52 49 46 48 49 48 45 41 42 40 41 39 32 32 35 38 37 27 29 31 32 33 34 38 39 39 40 39 40 36 34 38 40 35 41 45 42
69 66 63 64 64 61 57 54 50 47 49 47 46 43 39 40 38 41 39 36 33 32 31 24 29 32 36 34 35 37 39 42 37 43 43 39 39 35 38 37 39 42 42 43 44
72 71 69 70 69 65 59 55 51 46 49 49 43 40 39 37 37 38 36 36 35 34 34 34 33 34 38 41 44 45 44 41 38 42 36 40 36 35 38 40 41 40 44 41 41
73 71 69 71 68 65 62 56 51 47 48 48 48 43 39 38 36 38 38 37 34 35 31 29 30 33 35 37 40 46 47 34 39 36 40 35 38 36 38 43 43 42 39 39 40
70 67 66 65 61 58 58 53 49 42 47 47 45 39 40 39 39 36 37 39 36 34 32 29 33 31 33 37 43 49 41 32 30 29 35 38 38 36 41 39 38 38 38 36 35
62 58 53 51 48 51 49 51 47 47 48 44 44 42 40 37 39 37 36 36 36 38 33 32 34 37 40 40 42 44 35 28 29 32 34 36 37 38 37 37 38 39 40 41 42

GFSSW_500_spd_123.txt.gz
Wind_Speed
49 49 49 49 48 47 46 46 45 45 45 44 43 42 40 38 40 38 35 36 36 34 33 29 27 25 25 21 20 16 13 11 15 17 22 28 31 32 34 34 34 33 36 38 39
50 50 50 50 49 48 47 47 47 46 45 45 44 42 40 41 39 39 38 37 36 32 30 27 25 23 21 18 17 14 10 12 12 11 11 17 24 30 33 34 30 33 36 39 40
51 52 52 52 49 49 49 49 48 47 46 46 44 42 42 42 41 41 39 37 36 31 29 28 27 25 24 22 22 19 18 21 20 20 17 17 21 25 28 22 22 30 33 37 39
53 55 53 53 51 51 51 50 49 48 47 46 44 43 41 42 41 40 34 35 35 32 29 30 30 28 29 25 28 27 27 29 27 27 27 27 24 28 34 26 32 37 36 37 37
54 54 54 53 52 55 56 52 50 49 47 45 45 43 42 39 43 42 32 32 35 34 32 34 35 33 33 33 34 35 34 34 34 31 33 35 33 36 31 32 39 41 42 43 43
55 58 59 56 57 58 55 54 53 51 48 47 48 46 41 34 40 38 36 32 34 36 35 35 38 38 39 38 41 41 41 41 41 38 41 42 43 44 30 36 40 42 43 44 46
58 61 59 62 60 58 57 55 55 53 52 53 51 46 38 37 38 40 36 36 34 34 36 39 41 43 44 43 48 47 47 45 45 48 49 49 51 46 47 47 48 46 44 45 45
51 52 53 54 59 59 62 60 59 58 57 55 55 51 43 46 42 40 39 40 40 38 37 44 47 48 49 48 47 53 58 56 55 55 56 54 56 54 52 53 51 50 50 50 49
57 54 54 52 52 57 58 59 59 59 58 59 60 56 50 46 45 45 43 44 43 44 45 45 49 52 56 58 56 52 58 63 60 62 62 61 58 58 59 57 55 53 54 57 58
56 56 52 49 49 53 53 51 50 50 51 51 53 44 45 42 42 43 41 40 43 46 47 46 50 52 52 53 57 57 54 52 55 54 54 54 55 59 58 57 57 58 61 64 66
57 56 55 52 50 49 48 49 49 49 47 47 45 43 46 45 44 44 42 44 45 46 47 50 51 47 43 46 51 53 52 51 51 51 51 50 49 52 55 60 62 64 67 69 69
58 56 53 53 52 49 49 48 51 50 48 48 47 44 43 46 43 45 46 47 46 46 44 43 44 46 46 46 49 47 48 50 51 54 56 55 52 55 60 63 67 71 71 72 71
60 59 57 56 57 54 52 54 52 53 51 47 47 47 48 49 46 42 48 45 44 44 44 46 48 45 43 45 45 44 48 47 53 56 57 59 57 57 58 63 67 68 69 66 60
60 60 57 56 57 56 58 59 57 57 55 50 50 48 49 48 48 46 44 44 43 43 43 43 34 36 42 45 41 46 44 48 51 56 57 59 61 56 61 63 58 53 48 45 44
61 59 57 57 58 59 56 55 54 53 53 52 54 54 48 41 41 39 38 39 39 41 42 41 39 39 43 40 45 47 48 50 52 55 56 52 47 54 60 55 49 46 44 44 41
61 60 59 57 55 57 56 56 56 53 55 54 56 53 51 46 43 42 40 40 40 41 43 41 43 44 44 43 42 44 45 46 48 50 54 46 41 47 39 40 40 41 42 39 39
61 59 58 57 58 58 58 58 56 56 53 54 55 56 56 53 50 47 44 42 41 41 41 43 41 41 42 44 40 39 36 39 41 38 39 36 38 37 33 36 38 38 36 35 37
60 57 55 55 55 55 54 55 58 54 53 52 53 53 52 50 50 47 47 45 42 41 41 41 38 38 39 40 36 34 31 30 32 36 34 36 40 39 37 38 40 39 37 34 30
61 59 56 55 57 57 59 58 54 48 48 49 47 46 46 46 47 46 44 43 41 39 40 41 41 36 31 33 30 27 28 29 32 35 36 35 37 37 36 37 36 37 35 27 22
62 60 57 58 59 60 61 60 53 49 51 51 48 47 44 43 45 45 45 44 41 41 41 40 40 37 31 23 24 24 27 25 28 33 40 39 41 41 37 38 38 38 34 36 41
62 60 58 58 58 61 63 58 51 49 50 50 50 50 45 44 47 45 45 44 43 42 41 40 36 35 32 25 25 30 29 30 31 35 38 39 42 46 44 41 38 36 37 39 38
62 59 58 58 60 61 60 53 50 50 52 52 53 53 50 46 47 45 43 44 42 36 37 36 33 32 32 34 35 33 31 32 35 38 41 45 50 47 44 41 38 40 40 39 41
62 58 56 56 59 58 54 52 52 52 53 52 49 47 46 47 47 45 43 40 40 39 36 37 39 38 34 32 31 35 36 36 38 39 45 48 53 40 41 37 40 40 41 37 37
64 62 60 60 58 57 53 51 49 44 46 46 46 46 45 44 43 43 39 38 39 37 35 37 40 40 38 36 37 38 37 36 36 41 45 53 43 39 42 39 40 39 40 41 40
68 66 64 65 61 60 60 57 56 52 50 50 50 46 45 45 40 40 40 39 38 34 34 36 38 36 37 37 36 33 32 35 38 43 50 47 44 43 38 40 42 42 42 43 41
70 68 68 67 64 63 63 62 60 56 57 54 51 43 44 44 43 41 41 41 43 38 38 37 36 34 32 32 34 34 35 39 41 44 45 38 37 34 35 37 40 42 43 42 42
69 68 68 68 67 65 60 57 54 49 52 49 50 47 47 40 40 40 41 40 40 37 32 41 32 36 36 34 34 37 37 41 41 41 37 36 34 37 41 39 39 40 41 42 43

GFSSW_500_spd_129.txt.gz
Wind_Speed
49 49 49 47 46 46 44 44 45 43 43 43 42 41 40 41 42 42 40 39 37 37 36 35 35 33 33 31 31 29 23 20 20 19 20 22 22 22 19 18 23 26 27 28 30
49 49 49 48 47 47 46 46 44 43 42 42 43 41 41 40 41 41 41 38 37 36 36 35 34 33 33 29 29 26 21 19 19 17 17 18 18 18 15 17 26 25 26 26 25
48 48 47 46 46 45 45 45 43 42 42 43 41 41 41 40 39 41 39 38 37 36 35 34 35 33 33 30 27 25 22 19 19 18 16 18 20 20 18 21 25 26 30 31 29
48 48 45 43 43 46 46 43 41 38 40 40 41 41 38 38 41 42 39 38 37 36 34 36 35 34 33 31 29 28 27 25 25 25 25 26 26 26 24 27 30 32 32 34 35
50 48 47 48 48 46 44 43 41 42 45 44 43 42 42 43 44 41 38 37 37 35 35 36 34 33 33 31 32 32 29 31 30 31 32 33 32 33 33 32 35 35 35 35 36
48 46 45 43 47 47 45 44 46 47 49 47 48 48 43 44 42 37 37 35 38 39 39 38 36 35 34 32 34 35 34 35 36 37 37 38 37 39 42 41 42 43 42 43 43
48 48 50 48 48 48 45 41 39 42 45 43 41 39 38 39 38 37 39 39 39 39 39 38 37 37 35 35 35 37 39 38 40 41 43 42 44 45 47 49 50 52 55 53 53
55 55 52 50 52 49 45 43 42 45 49 47 44 39 36 39 37 35 35 36 37 38 42 40 41 40 37 38 39 41 44 42 43 44 47 51 54 54 54 56 57 59 58 63 62
59 58 52 50 51 50 46 46 48 47 44 42 45 45 42 41 37 36 35 35 37 40 43 43 43 44 40 38 43 45 49 49 49 51 50 52 57 58 58 55 55 55 53 50 53
57 57 55 51 51 51 51 52 52 52 47 45 44 43 42 39 39 41 41 41 42 42 42 40 40 41 39 45 47 45 46 49 51 51 51 51 52 53 48 49 52 51 49 49 48
67 59 58 57 57 56 54 56 56 54 49 44 42 43 41 37 38 40 41 40 40 40 39 41 42 42 43 45 45 46 46 47 49 51 49 48 47 48 50 50 48 48 49 51 52
70 71 68 66 63 57 56 54 54 53 49 47 43 41 41 40 41 39 40 41 41 40 40 38 39 41 43 44 46 48 50 50 50 50 48 48 48 48 48 48 48 50 52 54 55
76 82 75 67 57 57 54 53 52 49 50 42 39 38 42 42 42 40 39 39 40 41 41 42 43 42 42 44 46 47 47 47 47 48 49 49 48 48 48 48 50 50 52 54 55
70 70 62 57 57 53 52 53 51 50 49 48 45 44 46 45 45 43 44 46 47 45 46 45 42 43 45 44 44 45 43 45 45 46 47 47 49 49 51 53 53 53 55 53 52
63 62 57 58 56 55 55 54 52 52 53 53 53 51 52 49 47 46 45 45 43 42 42 39 39 40 42 40 44 44 45 45 47 48 49 49 50 49 51 52 52 51 51 50 50
61 56 59 58 58 57 56 56 54 52 52 52 53 51 52 51 49 47 45 44 41 40 40 40 43 43 43 44 45 46 45 46 47 48 48 47 48 48 50 47 47 46 41 39 40
57 56 56 59 58 57 57 55 54 53 51 51 51 52 53 52 51 49 47 45 45 45 45 46 46 46 45 44 43 43 45 45 45 45 45 45 47 46 45 45 42 37 32 34 36
58 57 58 62 59 60 61 59 57 51 48 52 51 51 50 49 49 47 45 44 42 41 43 44 43 43 43 42 43 42 39 40 39 43 44 45 48 43 43 40 37 32 35 36 37
56 59 58 57 57 58 60 62 58 52 51 51 51 51 50 49 50 48 49 46 44 45 44 45 44 40 37 37 37 35 34 33 38 39 43 45 44 43 39 35 34 36 40 42 42
60 59 56 56 56 56 56 57 51 50 51 52 48 44 46 45 45 44 43 44 42 42 39 41 44 39 36 35 34 30 31 33 31 32 38 40 41 41 34 31 34 37 40 41 43
59 58 56 56 55 55 55 50 47 45 46 45 45 42 40 40 42 43 43 42 42 42 40 39 38 39 37 33 30 30 33 33 32 32 36 36 43 39 33 34 36 39 39 39 43
61 60 58 59 60 59 53 49 48 47 48 46 44 45 44 43 43 44 44 44 44 43 42 40 40 39 36 33 30 28 26 28 32 34 38 43 41 41 36 37 38 38 39 42 45
62 61 61 61 60 57 54 52 51 49 47 46 46 46 45 45 46 47 44 41 40 41 43 42 42 42 37 33 31 33 27 32 34 35 36 38 40 36 38 38 38 40 43 46 46
62 62 63 62 58 55 54 52 50 48 47 47 45 44 43 43 44 44 40 38 37 38 39 40 39 40 40 37 38 40 39 39 39 42 38 40 35 37 40 41 42 44 46 48 45
66 65 64 59 55 52 52 47 44 43 45 47 46 43 42 42 42 38 34 35 36 37 37 39 39 38 42 40 40 41 41 40 41 38 40 34 38 38 38 41 44 45 48 47 41
64 64 61 57 54 55 52 46 45 46 47 46 45 42 41 39 36 36 37 36 35 36 37 39 41 40 42 38 40 43 40 39 38 37 37 34 37 37 40 44 44 46 45 40 39
62 61 56 57 55 54 50 46 45 46 45 45 44 43 41 38 38 41 41 41 41 42 41 42 42 42 42 41 42 42 32 38 39 37 36 38 37 39 42 44 44 43 38 35 35